GEFSMA_prec_meanprecacc_090.txt.gz
Total_Precipitation_Accumulation
0.85 0.82 0.73 0.72 0.65 0.68 0.73 0.74 0.64 0.53 0.47 0.38 0.35 0.37 0.37 0.38 0.42 0.44 0.48 0.45 0.52 0.61 0.62 0.56 0.42 0.28 0.23 0.24 0.30 0.34 0.41 0.48 0.54 0.54 0.45 0.40 0.32 0.21 0.12 0.10 0.10 0.13 0.13
0.91 0.86 0.81 0.82 0.78 0.78 0.86 0.80 0.65 0.59 0.53 0.44 0.34 0.33 0.36 0.38 0.42 0.41 0.43 0.49 0.55 0.54 0.63 0.71 0.64 0.41 0.31 0.30 0.32 0.35 0.40 0.41 0.44 0.46 0.42 0.40 0.35 0.28 0.21 0.18 0.18 0.16 0.14
0.82 0.84 0.83 0.83 0.87 0.95 0.98 0.96 0.76 0.67 0.54 0.43 0.37 0.30 0.28 0.28 0.29 0.33 0.29 0.28 0.36 0.50 0.61 0.70 0.69 0.54 0.43 0.37 0.34 0.32 0.32 0.34 0.38 0.38 0.36 0.32 0.29 0.27 0.25 0.24 0.26 0.24 0.23
0.75 0.87 0.87 0.84 0.87 0.97 1.04 1.05 0.92 0.79 0.63 0.53 0.51 0.42 0.34 0.31 0.29 0.30 0.31 0.25 0.27 0.31 0.46 0.52 0.55 0.55 0.50 0.44 0.38 0.29 0.24 0.23 0.25 0.26 0.27 0.25 0.21 0.20 0.19 0.23 0.28 0.29 0.27
0.82 0.96 1.05 1.05 1.06 1.04 1.01 0.97 0.97 0.88 0.74 0.65 0.61 0.56 0.47 0.37 0.36 0.33 0.35 0.32 0.24 0.23 0.28 0.25 0.30 0.31 0.37 0.39 0.40 0.34 0.25 0.20 0.19 0.20 0.20 0.18 0.14 0.12 0.13 0.17 0.19 0.20 0.23
1.17 1.29 1.27 1.32 1.38 1.23 1.15 1.07 1.05 0.99 0.84 0.78 0.72 0.59 0.51 0.44 0.42 0.41 0.40 0.36 0.32 0.27 0.26 0.20 0.19 0.16 0.19 0.26 0.32 0.37 0.30 0.23 0.19 0.17 0.16 0.14 0.12 0.09 0.09 0.12 0.13 0.15 0.18
1.51 1.69 1.63 1.64 1.63 1.47 1.40 1.48 1.63 1.55 1.25 0.97 0.91 0.74 0.56 0.44 0.44 0.42 0.40 0.38 0.36 0.38 0.37 0.28 0.20 0.17 0.11 0.13 0.17 0.29 0.36 0.31 0.26 0.22 0.17 0.14 0.11 0.09 0.08 0.08 0.10 0.13 0.15
1.41 1.54 1.77 1.81 1.71 1.68 1.78 1.82 2.09 2.17 1.74 1.32 1.22 1.25 0.96 0.74 0.50 0.38 0.38 0.36 0.36 0.47 0.43 0.31 0.22 0.16 0.12 0.09 0.06 0.14 0.25 0.31 0.30 0.25 0.21 0.18 0.14 0.09 0.06 0.05 0.07 0.10 0.12
1.37 1.44 1.59 1.73 1.71 1.75 1.80 1.91 2.21 2.59 2.32 1.84 1.56 1.63 1.29 1.07 0.89 0.49 0.33 0.35 0.38 0.46 0.51 0.44 0.35 0.27 0.20 0.16 0.10 0.09 0.11 0.16 0.24 0.22 0.25 0.24 0.18 0.11 0.08 0.08 0.09 0.10 0.12
1.26 1.32 1.45 1.58 1.67 1.67 1.77 1.84 1.94 2.36 2.62 2.32 2.04 1.67 1.31 1.13 1.13 0.90 0.55 0.44 0.49 0.48 0.51 0.50 0.44 0.41 0.34 0.28 0.23 0.13 0.12 0.13 0.20 0.24 0.28 0.29 0.23 0.17 0.14 0.14 0.14 0.13 0.13
1.38 1.37 1.50 1.55 1.55 1.59 1.68 1.95 2.16 2.40 2.54 2.46 2.35 2.17 1.93 1.58 1.14 1.11 1.04 0.78 0.65 0.57 0.55 0.55 0.53 0.48 0.43 0.40 0.41 0.28 0.17 0.12 0.14 0.24 0.32 0.36 0.32 0.23 0.19 0.17 0.16 0.16 0.15
1.47 1.52 1.57 1.55 1.51 1.53 1.62 1.80 2.03 2.24 2.51 2.64 2.50 2.29 2.13 1.91 1.59 1.41 1.16 1.06 0.97 0.78 0.75 0.72 0.64 0.59 0.57 0.59 0.61 0.59 0.31 0.14 0.11 0.16 0.27 0.39 0.42 0.35 0.28 0.23 0.19 0.18 0.18
1.37 1.40 1.51 1.61 1.67 1.69 1.77 1.90 2.00 1.93 2.13 2.46 2.41 2.27 2.14 1.87 1.77 1.75 1.55 1.27 1.12 0.82 0.73 0.73 0.69 0.73 0.67 0.61 0.75 0.91 0.51 0.26 0.17 0.17 0.19 0.23 0.29 0.35 0.37 0.35 0.29 0.22 0.20
1.32 1.26 1.30 1.40 1.54 1.68 1.70 1.73 1.72 1.66 1.78 1.99 2.06 2.24 2.32 2.04 1.84 1.66 1.52 1.49 1.24 1.02 0.85 0.73 0.63 0.64 0.66 0.63 0.79 0.93 0.59 0.42 0.26 0.20 0.21 0.22 0.22 0.23 0.29 0.35 0.37 0.33 0.29
1.08 1.01 1.01 1.04 1.11 1.18 1.24 1.38 1.46 1.54 1.56 1.67 1.80 1.94 2.09 2.19 2.08 1.80 1.66 1.56 1.44 1.23 1.05 0.92 0.77 0.61 0.68 0.74 0.90 0.76 0.59 0.60 0.45 0.30 0.23 0.22 0.22 0.19 0.20 0.22 0.25 0.26 0.28
1.00 0.93 0.89 0.84 0.79 0.76 0.80 0.98 1.16 1.27 1.36 1.49 1.65 1.76 1.79 1.87 2.06 2.01 1.79 1.70 1.55 1.34 1.16 0.98 0.90 0.76 0.83 0.82 0.92 0.75 0.72 0.80 0.59 0.43 0.30 0.26 0.23 0.18 0.15 0.14 0.12 0.11 0.12
0.98 0.96 0.88 0.81 0.88 0.86 0.81 0.86 0.92 0.97 1.05 1.17 1.31 1.40 1.52 1.79 2.10 2.12 2.06 1.91 1.72 1.52 1.24 1.08 0.88 0.73 0.91 0.97 0.94 0.83 0.79 0.74 0.59 0.53 0.42 0.33 0.27 0.22 0.18 0.14 0.10 0.09 0.08
0.67 0.75 0.83 0.78 0.77 0.79 0.79 0.83 0.85 0.89 0.91 0.98 1.06 1.16 1.28 1.59 1.95 2.17 2.25 2.14 1.95 1.76 1.58 1.40 1.09 0.80 0.82 1.08 1.20 1.12 0.93 0.80 0.71 0.70 0.62 0.48 0.37 0.30 0.23 0.18 0.13 0.11 0.08
0.50 0.54 0.62 0.63 0.72 0.78 0.80 0.81 0.81 0.84 0.87 0.95 1.08 1.11 1.13 1.30 1.51 1.75 1.94 2.04 2.01 1.98 1.88 1.62 1.36 1.09 0.94 0.99 1.21 1.21 1.09 1.04 0.93 0.89 0.90 0.79 0.65 0.52 0.41 0.32 0.26 0.19 0.14
0.51 0.57 0.69 0.74 0.69 0.66 0.71 0.80 0.82 0.76 0.76 0.81 0.88 0.95 1.01 1.03 1.17 1.35 1.49 1.67 1.86 2.05 2.09 1.92 1.66 1.38 1.23 1.05 1.08 1.20 1.25 1.18 1.12 0.98 0.95 0.91 0.89 0.78 0.64 0.51 0.42 0.33 0.28
0.57 0.58 0.69 0.80 0.87 0.82 0.78 0.85 0.80 0.78 0.78 0.77 0.81 0.80 0.85 0.87 0.90 1.05 1.11 1.33 1.64 1.88 1.97 2.00 1.87 1.59 1.35 1.15 0.92 0.95 1.14 1.32 1.32 1.23 1.22 1.07 0.98 0.87 0.79 0.72 0.66 0.56 0.47
0.47 0.47 0.50 0.58 0.67 0.72 0.91 0.86 0.69 0.66 0.69 0.75 0.79 0.79 0.79 0.72 0.71 0.75 0.85 0.98 1.26 1.44 1.57 1.61 1.61 1.46 1.29 1.15 1.05 1.02 1.03 1.08 1.15 1.09 1.08 1.15 1.10 1.01 0.96 0.88 0.90 0.90 0.80
0.40 0.38 0.37 0.37 0.44 0.59 0.66 0.51 0.49 0.54 0.66 0.75 0.81 0.83 0.81 0.75 0.77 0.76 0.74 0.74 0.81 0.99 1.17 1.34 1.36 1.27 1.31 1.21 1.11 1.02 1.02 0.97 0.91 0.98 1.01 1.05 1.07 1.05 1.02 1.01 1.05 0.98 0.91
0.30 0.29 0.36 0.44 0.46 0.47 0.52 0.42 0.41 0.52 0.70 0.81 0.79 0.75 0.81 0.82 0.85 0.88 0.78 0.80 0.75 0.76 0.84 0.89 1.03 1.23 1.34 1.45 1.39 1.26 1.24 1.19 1.11 1.08 1.05 1.04 0.96 0.92 0.88 0.89 0.93 0.82 0.73
0.34 0.37 0.48 0.56 0.49 0.41 0.44 0.45 0.50 0.66 0.78 0.85 0.81 0.80 0.87 0.88 1.00 1.01 0.89 0.93 0.88 0.84 0.81 0.92 1.03 1.13 1.20 1.29 1.37 1.32 1.27 1.22 1.15 1.07 0.97 0.91 0.86 0.83 0.82 0.75 0.73 0.72 0.63
0.31 0.38 0.40 0.38 0.38 0.43 0.49 0.46 0.57 0.77 0.89 0.99 0.95 0.93 1.10 1.04 0.98 0.91 0.87 1.00 0.99 0.82 0.72 0.76 0.82 0.89 0.92 0.99 1.10 1.08 1.13 1.15 1.09 1.01 0.83 0.75 0.79 0.78 0.81 0.72 0.63 0.60 0.57

GEFSMA_prec_meanprecacc_096.txt.gz
Total_Precipitation_Accumulation
0.86 0.83 0.75 0.74 0.67 0.72 0.79 0.82 0.73 0.63 0.58 0.50 0.45 0.46 0.45 0.44 0.48 0.49 0.52 0.47 0.56 0.68 0.73 0.65 0.52 0.38 0.29 0.31 0.37 0.42 0.49 0.55 0.59 0.59 0.51 0.43 0.36 0.24 0.15 0.13 0.12 0.14 0.14
0.92 0.88 0.82 0.83 0.80 0.80 0.90 0.86 0.73 0.68 0.62 0.53 0.44 0.43 0.43 0.44 0.48 0.45 0.47 0.53 0.57 0.59 0.73 0.81 0.75 0.52 0.40 0.37 0.40 0.46 0.50 0.49 0.50 0.50 0.47 0.45 0.40 0.32 0.24 0.20 0.20 0.17 0.15
0.83 0.85 0.84 0.84 0.88 0.96 1.00 1.01 0.81 0.74 0.60 0.51 0.46 0.40 0.36 0.37 0.35 0.39 0.34 0.33 0.40 0.53 0.67 0.80 0.81 0.66 0.54 0.48 0.45 0.43 0.43 0.43 0.46 0.42 0.39 0.37 0.34 0.32 0.29 0.26 0.27 0.25 0.24
0.75 0.88 0.88 0.85 0.88 0.99 1.06 1.09 0.96 0.84 0.69 0.58 0.58 0.51 0.43 0.39 0.36 0.38 0.38 0.31 0.34 0.36 0.51 0.59 0.65 0.66 0.61 0.55 0.50 0.41 0.34 0.32 0.32 0.33 0.32 0.29 0.25 0.24 0.23 0.26 0.29 0.30 0.29
0.82 0.97 1.06 1.06 1.07 1.07 1.04 0.99 1.00 0.93 0.79 0.70 0.66 0.63 0.56 0.45 0.43 0.39 0.40 0.37 0.29 0.29 0.35 0.31 0.37 0.41 0.47 0.50 0.51 0.47 0.37 0.30 0.27 0.27 0.25 0.22 0.17 0.15 0.16 0.19 0.21 0.23 0.25
1.17 1.29 1.28 1.35 1.40 1.25 1.18 1.10 1.09 1.03 0.89 0.84 0.77 0.65 0.58 0.51 0.50 0.48 0.47 0.42 0.37 0.31 0.31 0.25 0.27 0.23 0.27 0.35 0.43 0.50 0.42 0.34 0.29 0.25 0.22 0.19 0.15 0.12 0.12 0.14 0.15 0.17 0.20
1.51 1.70 1.65 1.67 1.66 1.50 1.44 1.51 1.65 1.58 1.29 1.03 0.96 0.79 0.62 0.49 0.50 0.49 0.46 0.44 0.41 0.43 0.42 0.34 0.26 0.23 0.18 0.20 0.25 0.40 0.49 0.41 0.37 0.32 0.27 0.21 0.16 0.12 0.11 0.11 0.13 0.15 0.16
1.42 1.55 1.78 1.83 1.73 1.71 1.81 1.85 2.11 2.20 1.79 1.39 1.29 1.32 1.04 0.82 0.56 0.42 0.43 0.42 0.42 0.55 0.49 0.35 0.28 0.21 0.18 0.16 0.12 0.20 0.35 0.43 0.41 0.36 0.31 0.27 0.21 0.13 0.09 0.08 0.10 0.12 0.14
1.38 1.46 1.61 1.75 1.74 1.78 1.83 1.93 2.23 2.62 2.35 1.89 1.63 1.73 1.39 1.17 0.96 0.54 0.38 0.39 0.43 0.54 0.58 0.50 0.41 0.34 0.25 0.23 0.18 0.16 0.17 0.25 0.37 0.34 0.36 0.34 0.25 0.15 0.12 0.10 0.12 0.13 0.14
1.27 1.33 1.46 1.59 1.68 1.69 1.79 1.85 1.95 2.38 2.65 2.36 2.08 1.72 1.39 1.24 1.23 0.97 0.61 0.48 0.53 0.54 0.58 0.56 0.50 0.48 0.42 0.36 0.33 0.20 0.17 0.18 0.31 0.38 0.41 0.41 0.33 0.23 0.20 0.18 0.18 0.17 0.15
1.38 1.37 1.50 1.56 1.55 1.60 1.69 1.96 2.18 2.42 2.56 2.49 2.38 2.20 1.98 1.65 1.21 1.21 1.12 0.83 0.69 0.62 0.61 0.61 0.59 0.55 0.52 0.50 0.52 0.34 0.22 0.16 0.21 0.37 0.48 0.51 0.44 0.33 0.27 0.24 0.22 0.20 0.17
1.48 1.53 1.58 1.55 1.51 1.54 1.63 1.81 2.04 2.26 2.52 2.65 2.53 2.32 2.18 1.97 1.66 1.49 1.25 1.12 1.02 0.82 0.80 0.78 0.69 0.64 0.64 0.68 0.69 0.64 0.34 0.16 0.15 0.24 0.41 0.54 0.56 0.46 0.37 0.31 0.25 0.23 0.22
1.37 1.40 1.51 1.62 1.68 1.69 1.77 1.91 2.01 1.93 2.14 2.48 2.43 2.29 2.18 1.92 1.83 1.82 1.63 1.35 1.17 0.86 0.77 0.78 0.74 0.79 0.72 0.67 0.83 0.97 0.53 0.27 0.19 0.21 0.27 0.32 0.40 0.49 0.51 0.46 0.39 0.31 0.27
1.32 1.26 1.30 1.41 1.54 1.69 1.71 1.74 1.72 1.66 1.79 2.00 2.07 2.25 2.35 2.08 1.88 1.71 1.58 1.57 1.31 1.06 0.88 0.78 0.68 0.69 0.71 0.69 0.85 0.98 0.64 0.45 0.28 0.23 0.25 0.27 0.27 0.29 0.39 0.47 0.50 0.44 0.40
1.08 1.01 1.01 1.05 1.12 1.19 1.24 1.39 1.47 1.54 1.57 1.68 1.81 1.95 2.11 2.21 2.11 1.84 1.72 1.63 1.51 1.30 1.11 0.98 0.82 0.65 0.74 0.82 0.97 0.80 0.65 0.65 0.49 0.33 0.25 0.25 0.24 0.21 0.23 0.27 0.33 0.35 0.38
1.00 0.93 0.89 0.84 0.80 0.77 0.80 0.98 1.17 1.27 1.37 1.50 1.66 1.77 1.81 1.89 2.08 2.04 1.84 1.75 1.61 1.41 1.24 1.05 0.95 0.80 0.87 0.86 0.97 0.79 0.78 0.85 0.62 0.45 0.32 0.28 0.25 0.20 0.16 0.15 0.14 0.14 0.16
0.98 0.96 0.88 0.82 0.88 0.86 0.81 0.86 0.92 0.98 1.06 1.18 1.31 1.41 1.53 1.80 2.12 2.15 2.10 1.95 1.78 1.58 1.30 1.15 0.92 0.77 0.94 1.01 0.99 0.87 0.83 0.79 0.63 0.57 0.45 0.36 0.30 0.24 0.20 0.15 0.11 0.10 0.09
0.67 0.75 0.83 0.78 0.77 0.79 0.79 0.84 0.86 0.90 0.92 0.99 1.07 1.17 1.30 1.60 1.97 2.19 2.28 2.18 2.00 1.81 1.62 1.46 1.15 0.85 0.87 1.11 1.24 1.16 0.96 0.83 0.75 0.73 0.65 0.52 0.41 0.33 0.26 0.21 0.16 0.14 0.10
0.50 0.54 0.63 0.63 0.72 0.78 0.80 0.81 0.82 0.86 0.88 0.96 1.09 1.13 1.15 1.32 1.53 1.77 1.96 2.07 2.05 2.01 1.92 1.67 1.41 1.14 1.00 1.04 1.25 1.25 1.13 1.08 0.96 0.91 0.92 0.83 0.69 0.56 0.44 0.35 0.29 0.22 0.17
0.51 0.57 0.70 0.74 0.69 0.66 0.71 0.81 0.83 0.78 0.77 0.82 0.89 0.96 1.03 1.06 1.19 1.36 1.50 1.69 1.89 2.08 2.12 1.95 1.69 1.42 1.27 1.09 1.12 1.24 1.30 1.22 1.14 1.00 0.97 0.93 0.92 0.83 0.68 0.55 0.45 0.36 0.32
0.57 0.58 0.69 0.80 0.87 0.82 0.78 0.86 0.82 0.80 0.80 0.78 0.82 0.81 0.86 0.88 0.92 1.07 1.13 1.36 1.68 1.92 2.00 2.03 1.90 1.62 1.39 1.19 0.96 0.99 1.19 1.37 1.35 1.27 1.26 1.10 1.01 0.91 0.83 0.77 0.70 0.60 0.51
0.47 0.47 0.50 0.58 0.67 0.72 0.91 0.87 0.70 0.67 0.71 0.76 0.81 0.80 0.81 0.74 0.73 0.76 0.87 1.01 1.30 1.49 1.60 1.64 1.64 1.50 1.33 1.18 1.09 1.05 1.06 1.13 1.20 1.13 1.13 1.20 1.16 1.06 1.00 0.92 0.95 0.96 0.86
0.40 0.38 0.37 0.37 0.44 0.59 0.67 0.51 0.49 0.54 0.66 0.76 0.82 0.85 0.82 0.77 0.79 0.79 0.76 0.76 0.84 1.02 1.20 1.38 1.40 1.30 1.36 1.26 1.15 1.06 1.05 1.01 0.95 1.04 1.08 1.12 1.14 1.11 1.07 1.07 1.11 1.04 0.97
0.30 0.29 0.36 0.44 0.46 0.47 0.52 0.42 0.42 0.52 0.71 0.82 0.81 0.76 0.81 0.82 0.86 0.90 0.79 0.81 0.77 0.79 0.87 0.92 1.06 1.26 1.38 1.51 1.45 1.31 1.29 1.23 1.14 1.11 1.10 1.09 1.01 0.97 0.94 0.95 1.00 0.89 0.81
0.34 0.37 0.48 0.56 0.49 0.41 0.44 0.45 0.51 0.66 0.78 0.86 0.82 0.81 0.87 0.88 1.01 1.02 0.90 0.94 0.90 0.85 0.83 0.93 1.04 1.14 1.22 1.32 1.41 1.38 1.32 1.26 1.19 1.10 1.01 0.96 0.91 0.88 0.88 0.82 0.81 0.82 0.73
0.31 0.38 0.40 0.38 0.38 0.43 0.49 0.46 0.58 0.77 0.90 1.00 0.95 0.94 1.11 1.04 1.00 0.92 0.88 1.01 0.99 0.83 0.74 0.77 0.83 0.91 0.94 1.03 1.13 1.13 1.18 1.20 1.13 1.05 0.87 0.80 0.84 0.84 0.88 0.79 0.72 0.69 0.66

GEFSMA_prec_meanprecacc_102.txt.gz
Total_Precipitation_Accumulation
0.87 0.84 0.77 0.76 0.70 0.76 0.85 0.89 0.81 0.72 0.66 0.58 0.54 0.54 0.51 0.50 0.52 0.53 0.58 0.52 0.58 0.71 0.77 0.69 0.56 0.43 0.34 0.36 0.44 0.50 0.56 0.62 0.65 0.66 0.57 0.48 0.40 0.28 0.19 0.17 0.16 0.16 0.16
0.93 0.89 0.84 0.85 0.82 0.82 0.93 0.91 0.79 0.78 0.75 0.65 0.53 0.51 0.51 0.51 0.53 0.49 0.53 0.61 0.61 0.61 0.76 0.85 0.79 0.56 0.45 0.43 0.47 0.54 0.57 0.56 0.57 0.56 0.52 0.49 0.43 0.37 0.27 0.23 0.23 0.19 0.17
0.83 0.86 0.86 0.86 0.90 0.98 1.02 1.04 0.85 0.80 0.72 0.62 0.56 0.49 0.44 0.44 0.41 0.42 0.39 0.41 0.48 0.57 0.69 0.84 0.87 0.71 0.59 0.54 0.52 0.53 0.53 0.52 0.52 0.48 0.43 0.40 0.37 0.35 0.32 0.29 0.30 0.27 0.26
0.76 0.89 0.90 0.86 0.89 1.01 1.08 1.11 0.99 0.89 0.77 0.69 0.69 0.60 0.50 0.46 0.40 0.41 0.42 0.35 0.42 0.42 0.56 0.63 0.70 0.71 0.68 0.62 0.57 0.51 0.45 0.40 0.39 0.38 0.36 0.32 0.28 0.25 0.26 0.28 0.31 0.31 0.32
0.83 1.00 1.10 1.10 1.09 1.09 1.07 1.02 1.04 0.98 0.87 0.81 0.77 0.73 0.63 0.52 0.49 0.44 0.44 0.41 0.34 0.36 0.43 0.36 0.40 0.44 0.52 0.56 0.58 0.56 0.47 0.38 0.34 0.33 0.31 0.25 0.19 0.17 0.19 0.22 0.22 0.24 0.27
1.18 1.32 1.31 1.38 1.43 1.29 1.22 1.15 1.15 1.08 0.96 0.92 0.84 0.72 0.67 0.57 0.57 0.54 0.53 0.48 0.43 0.37 0.40 0.34 0.30 0.27 0.31 0.41 0.49 0.59 0.53 0.43 0.37 0.31 0.29 0.23 0.18 0.15 0.15 0.17 0.17 0.18 0.21
1.52 1.72 1.67 1.71 1.71 1.55 1.48 1.55 1.71 1.64 1.34 1.10 1.04 0.86 0.70 0.56 0.61 0.57 0.53 0.51 0.47 0.50 0.52 0.45 0.33 0.29 0.22 0.23 0.29 0.48 0.58 0.50 0.45 0.39 0.33 0.27 0.20 0.15 0.13 0.13 0.15 0.17 0.18
1.43 1.56 1.81 1.88 1.78 1.77 1.88 1.92 2.18 2.26 1.84 1.45 1.38 1.41 1.13 0.92 0.66 0.48 0.48 0.48 0.50 0.64 0.60 0.45 0.36 0.29 0.23 0.22 0.16 0.25 0.42 0.51 0.48 0.43 0.37 0.33 0.25 0.17 0.12 0.11 0.13 0.14 0.16
1.40 1.49 1.65 1.79 1.78 1.84 1.89 1.99 2.30 2.68 2.41 1.95 1.70 1.81 1.48 1.28 1.08 0.64 0.44 0.44 0.51 0.64 0.69 0.61 0.50 0.42 0.32 0.31 0.25 0.22 0.23 0.31 0.44 0.43 0.43 0.39 0.30 0.19 0.15 0.14 0.16 0.16 0.16
1.29 1.36 1.50 1.62 1.72 1.74 1.84 1.91 2.02 2.44 2.71 2.41 2.13 1.78 1.45 1.32 1.35 1.10 0.71 0.56 0.60 0.62 0.66 0.65 0.60 0.59 0.53 0.47 0.44 0.28 0.24 0.24 0.38 0.48 0.52 0.50 0.41 0.29 0.24 0.22 0.22 0.21 0.18
1.39 1.38 1.51 1.57 1.58 1.63 1.72 2.00 2.23 2.47 2.61 2.53 2.43 2.26 2.03 1.71 1.28 1.30 1.22 0.93 0.78 0.69 0.69 0.70 0.69 0.66 0.63 0.62 0.68 0.47 0.30 0.23 0.27 0.45 0.59 0.63 0.55 0.41 0.34 0.29 0.26 0.24 0.21
1.49 1.53 1.58 1.57 1.53 1.56 1.64 1.83 2.08 2.29 2.55 2.69 2.57 2.37 2.23 2.03 1.73 1.55 1.33 1.21 1.12 0.90 0.87 0.85 0.77 0.74 0.73 0.81 0.83 0.80 0.44 0.23 0.20 0.30 0.48 0.66 0.68 0.58 0.47 0.39 0.31 0.28 0.25
1.37 1.41 1.52 1.62 1.69 1.71 1.79 1.94 2.04 1.96 2.16 2.50 2.46 2.32 2.22 1.96 1.89 1.88 1.69 1.42 1.25 0.93 0.84 0.85 0.80 0.87 0.80 0.77 0.96 1.13 0.63 0.33 0.23 0.26 0.31 0.39 0.50 0.62 0.65 0.59 0.50 0.39 0.33
1.33 1.27 1.31 1.42 1.55 1.69 1.72 1.77 1.75 1.68 1.81 2.01 2.08 2.27 2.37 2.12 1.92 1.77 1.65 1.64 1.38 1.13 0.95 0.85 0.74 0.75 0.77 0.76 0.94 1.11 0.76 0.52 0.31 0.26 0.28 0.31 0.33 0.37 0.49 0.60 0.65 0.59 0.53
1.08 1.01 1.02 1.05 1.12 1.19 1.26 1.41 1.50 1.57 1.60 1.71 1.83 1.97 2.13 2.24 2.14 1.88 1.76 1.68 1.58 1.36 1.18 1.06 0.92 0.73 0.82 0.89 1.03 0.87 0.75 0.75 0.54 0.36 0.28 0.29 0.28 0.25 0.27 0.32 0.40 0.44 0.49
1.00 0.93 0.89 0.85 0.81 0.77 0.81 0.99 1.18 1.29 1.39 1.53 1.69 1.80 1.83 1.91 2.10 2.06 1.87 1.79 1.67 1.47 1.30 1.13 1.04 0.87 0.96 0.93 1.04 0.85 0.86 0.93 0.69 0.49 0.36 0.31 0.29 0.24 0.19 0.16 0.15 0.16 0.19
0.98 0.96 0.88 0.82 0.89 0.87 0.82 0.87 0.94 0.99 1.07 1.20 1.33 1.44 1.56 1.83 2.14 2.18 2.13 1.98 1.82 1.62 1.35 1.20 0.99 0.83 1.03 1.09 1.07 0.95 0.92 0.87 0.71 0.61 0.48 0.39 0.33 0.28 0.24 0.18 0.13 0.12 0.11
0.67 0.75 0.83 0.78 0.77 0.79 0.80 0.85 0.88 0.91 0.94 1.01 1.09 1.20 1.32 1.63 2.00 2.23 2.32 2.21 2.03 1.85 1.66 1.50 1.19 0.90 0.94 1.19 1.31 1.24 1.04 0.91 0.82 0.78 0.69 0.55 0.44 0.36 0.30 0.25 0.20 0.16 0.13
0.50 0.54 0.63 0.64 0.72 0.79 0.81 0.83 0.84 0.87 0.90 0.98 1.11 1.15 1.17 1.34 1.56 1.80 1.99 2.10 2.08 2.05 1.96 1.70 1.44 1.18 1.05 1.10 1.31 1.32 1.21 1.16 1.03 0.98 0.98 0.87 0.71 0.58 0.46 0.38 0.33 0.26 0.20
0.52 0.58 0.70 0.74 0.69 0.67 0.71 0.82 0.86 0.80 0.79 0.85 0.92 0.99 1.06 1.09 1.22 1.39 1.53 1.72 1.92 2.12 2.17 1.99 1.73 1.46 1.30 1.14 1.19 1.31 1.38 1.30 1.21 1.06 1.03 0.97 0.95 0.86 0.71 0.57 0.47 0.39 0.34
0.57 0.59 0.70 0.80 0.87 0.82 0.79 0.87 0.84 0.82 0.83 0.81 0.85 0.84 0.89 0.90 0.93 1.09 1.15 1.39 1.71 1.96 2.05 2.08 1.95 1.67 1.43 1.24 1.01 1.05 1.26 1.44 1.43 1.34 1.32 1.15 1.06 0.95 0.87 0.80 0.73 0.62 0.54
0.47 0.47 0.51 0.58 0.67 0.72 0.91 0.87 0.71 0.69 0.74 0.79 0.83 0.83 0.84 0.77 0.74 0.77 0.88 1.02 1.32 1.53 1.65 1.70 1.70 1.55 1.38 1.24 1.16 1.11 1.12 1.20 1.27 1.20 1.19 1.27 1.23 1.12 1.04 0.96 0.98 0.99 0.90
0.40 0.38 0.37 0.37 0.44 0.59 0.67 0.51 0.49 0.56 0.69 0.80 0.85 0.87 0.84 0.79 0.82 0.81 0.77 0.77 0.86 1.05 1.25 1.44 1.45 1.36 1.42 1.32 1.23 1.13 1.11 1.07 1.04 1.12 1.15 1.20 1.23 1.17 1.12 1.11 1.14 1.07 1.00
0.30 0.29 0.36 0.44 0.46 0.47 0.52 0.42 0.42 0.53 0.72 0.84 0.83 0.78 0.84 0.84 0.87 0.92 0.82 0.83 0.79 0.81 0.90 0.95 1.09 1.29 1.43 1.56 1.50 1.38 1.37 1.29 1.20 1.22 1.20 1.15 1.08 1.05 1.01 1.01 1.05 0.93 0.85
0.34 0.37 0.48 0.56 0.49 0.41 0.44 0.45 0.51 0.67 0.79 0.87 0.83 0.82 0.89 0.89 1.02 1.04 0.94 0.97 0.91 0.86 0.84 0.95 1.05 1.16 1.24 1.35 1.45 1.42 1.39 1.33 1.24 1.16 1.10 1.04 0.98 0.96 0.96 0.89 0.86 0.86 0.77
0.31 0.38 0.40 0.38 0.38 0.44 0.49 0.46 0.58 0.78 0.91 1.01 0.96 0.95 1.12 1.05 1.00 0.93 0.89 1.03 1.01 0.85 0.75 0.79 0.85 0.92 0.96 1.06 1.17 1.17 1.24 1.27 1.19 1.10 0.94 0.87 0.89 0.91 0.92 0.84 0.77 0.74 0.70

GEFSMA_prec_meanprecacc_108.txt.gz
Total_Precipitation_Accumulation
0.87 0.84 0.77 0.77 0.71 0.77 0.86 0.90 0.82 0.73 0.68 0.61 0.57 0.60 0.58 0.58 0.60 0.61 0.68 0.63 0.69 0.81 0.85 0.78 0.62 0.48 0.40 0.41 0.49 0.54 0.60 0.65 0.68 0.69 0.62 0.51 0.43 0.31 0.22 0.20 0.19 0.19 0.21
0.93 0.89 0.85 0.86 0.83 0.83 0.94 0.92 0.80 0.80 0.78 0.68 0.57 0.57 0.59 0.61 0.64 0.59 0.61 0.70 0.71 0.70 0.84 0.93 0.86 0.62 0.50 0.47 0.52 0.60 0.62 0.59 0.60 0.60 0.57 0.53 0.46 0.39 0.28 0.24 0.25 0.21 0.21
0.83 0.86 0.87 0.87 0.91 0.99 1.04 1.05 0.86 0.82 0.74 0.65 0.60 0.55 0.52 0.53 0.53 0.55 0.49 0.47 0.54 0.64 0.76 0.91 0.96 0.78 0.66 0.60 0.57 0.57 0.59 0.57 0.56 0.52 0.48 0.43 0.39 0.37 0.33 0.30 0.31 0.29 0.29
0.76 0.90 0.90 0.88 0.90 1.02 1.10 1.12 1.00 0.90 0.78 0.72 0.72 0.65 0.58 0.57 0.51 0.53 0.51 0.43 0.49 0.48 0.63 0.69 0.77 0.80 0.76 0.69 0.64 0.57 0.50 0.45 0.43 0.43 0.41 0.36 0.30 0.28 0.27 0.30 0.32 0.33 0.34
0.83 1.00 1.10 1.11 1.11 1.11 1.09 1.03 1.05 0.99 0.88 0.84 0.81 0.76 0.69 0.60 0.56 0.49 0.50 0.50 0.44 0.44 0.50 0.43 0.47 0.50 0.60 0.64 0.64 0.63 0.53 0.44 0.39 0.38 0.35 0.28 0.22 0.20 0.20 0.24 0.24 0.26 0.28
1.18 1.32 1.31 1.38 1.44 1.31 1.24 1.16 1.16 1.10 0.98 0.95 0.90 0.77 0.71 0.62 0.62 0.59 0.59 0.56 0.52 0.45 0.50 0.44 0.37 0.31 0.36 0.48 0.56 0.67 0.61 0.51 0.44 0.38 0.34 0.28 0.21 0.18 0.17 0.18 0.19 0.19 0.22
1.52 1.72 1.68 1.71 1.72 1.57 1.50 1.57 1.72 1.65 1.37 1.13 1.08 0.90 0.74 0.60 0.65 0.62 0.58 0.58 0.57 0.60 0.63 0.59 0.43 0.35 0.27 0.30 0.35 0.54 0.66 0.57 0.52 0.46 0.40 0.33 0.24 0.17 0.15 0.15 0.17 0.19 0.19
1.43 1.57 1.81 1.88 1.79 1.78 1.89 1.93 2.19 2.29 1.87 1.47 1.41 1.46 1.17 0.96 0.70 0.53 0.54 0.53 0.56 0.73 0.69 0.57 0.49 0.38 0.30 0.28 0.20 0.31 0.51 0.60 0.56 0.51 0.44 0.40 0.32 0.21 0.15 0.13 0.15 0.17 0.19
1.41 1.50 1.66 1.80 1.79 1.85 1.90 2.01 2.33 2.71 2.44 1.96 1.74 1.85 1.51 1.31 1.13 0.70 0.51 0.51 0.57 0.72 0.80 0.72 0.65 0.54 0.42 0.41 0.32 0.27 0.29 0.39 0.55 0.54 0.54 0.48 0.37 0.25 0.19 0.17 0.18 0.19 0.20
1.30 1.37 1.50 1.63 1.73 1.75 1.86 1.93 2.04 2.47 2.73 2.42 2.16 1.82 1.48 1.35 1.39 1.15 0.75 0.62 0.67 0.70 0.76 0.76 0.72 0.72 0.66 0.60 0.53 0.36 0.30 0.30 0.48 0.61 0.65 0.61 0.49 0.36 0.30 0.27 0.26 0.25 0.22
1.40 1.39 1.52 1.58 1.59 1.65 1.74 2.03 2.27 2.51 2.65 2.56 2.46 2.29 2.05 1.72 1.31 1.34 1.26 0.97 0.84 0.77 0.77 0.80 0.80 0.78 0.78 0.77 0.82 0.59 0.39 0.31 0.35 0.57 0.74 0.77 0.67 0.50 0.40 0.36 0.31 0.28 0.25
1.49 1.53 1.59 1.58 1.54 1.57 1.66 1.86 2.12 2.33 2.59 2.72 2.60 2.40 2.25 2.04 1.75 1.57 1.35 1.24 1.17 0.96 0.93 0.92 0.86 0.85 0.86 0.92 0.97 0.97 0.59 0.34 0.28 0.39 0.60 0.78 0.83 0.72 0.59 0.48 0.39 0.35 0.31
1.37 1.41 1.52 1.63 1.70 1.71 1.81 1.95 2.09 2.00 2.21 2.53 2.49 2.34 2.24 1.98 1.91 1.90 1.70 1.44 1.27 0.97 0.91 0.92 0.87 0.95 0.91 0.86 1.06 1.28 0.82 0.48 0.35 0.36 0.41 0.49 0.61 0.75 0.81 0.74 0.63 0.49 0.42
1.33 1.27 1.32 1.42 1.56 1.70 1.74 1.78 1.79 1.73 1.85 2.05 2.11 2.29 2.38 2.12 1.93 1.78 1.66 1.65 1.40 1.15 0.99 0.92 0.82 0.83 0.86 0.87 1.04 1.22 0.86 0.65 0.44 0.36 0.36 0.40 0.40 0.45 0.62 0.74 0.81 0.76 0.68
1.09 1.02 1.02 1.06 1.13 1.20 1.26 1.42 1.52 1.60 1.61 1.72 1.84 1.98 2.14 2.24 2.15 1.89 1.77 1.70 1.59 1.38 1.20 1.10 0.96 0.78 0.87 0.95 1.11 0.94 0.82 0.83 0.63 0.45 0.36 0.36 0.34 0.32 0.35 0.41 0.50 0.57 0.65
1.00 0.93 0.89 0.85 0.81 0.78 0.81 1.00 1.19 1.30 1.40 1.54 1.69 1.80 1.83 1.91 2.10 2.07 1.87 1.80 1.68 1.48 1.31 1.15 1.07 0.92 1.02 0.99 1.09 0.91 0.92 0.99 0.75 0.56 0.43 0.38 0.34 0.29 0.24 0.22 0.21 0.22 0.25
0.98 0.96 0.88 0.82 0.89 0.87 0.82 0.88 0.94 1.00 1.08 1.21 1.34 1.44 1.57 1.84 2.15 2.18 2.13 1.99 1.83 1.63 1.36 1.21 1.01 0.88 1.09 1.16 1.15 1.02 1.00 0.94 0.77 0.69 0.56 0.46 0.39 0.34 0.29 0.24 0.20 0.18 0.16
0.67 0.75 0.83 0.78 0.77 0.79 0.80 0.86 0.88 0.92 0.94 1.02 1.10 1.21 1.34 1.64 2.01 2.23 2.32 2.21 2.04 1.86 1.67 1.51 1.20 0.92 0.99 1.25 1.38 1.31 1.10 0.96 0.88 0.84 0.75 0.61 0.50 0.41 0.35 0.32 0.27 0.22 0.18
0.50 0.54 0.63 0.64 0.72 0.79 0.81 0.83 0.85 0.87 0.90 0.99 1.12 1.16 1.19 1.35 1.56 1.80 2.00 2.11 2.10 2.07 1.98 1.71 1.45 1.19 1.06 1.15 1.37 1.38 1.27 1.22 1.08 1.03 1.03 0.90 0.75 0.62 0.50 0.44 0.40 0.33 0.26
0.52 0.58 0.70 0.74 0.69 0.67 0.71 0.82 0.86 0.80 0.79 0.85 0.94 1.02 1.09 1.11 1.23 1.40 1.54 1.73 1.93 2.14 2.19 2.01 1.75 1.47 1.32 1.17 1.23 1.37 1.44 1.37 1.27 1.13 1.09 1.01 0.99 0.89 0.73 0.60 0.51 0.44 0.40
0.57 0.59 0.70 0.80 0.87 0.82 0.79 0.87 0.84 0.82 0.83 0.81 0.86 0.86 0.91 0.93 0.94 1.10 1.17 1.40 1.72 1.97 2.07 2.10 1.98 1.69 1.44 1.26 1.03 1.08 1.32 1.51 1.50 1.41 1.40 1.20 1.10 0.98 0.89 0.82 0.75 0.65 0.57
0.47 0.47 0.51 0.58 0.67 0.72 0.92 0.87 0.71 0.69 0.74 0.80 0.85 0.84 0.85 0.80 0.76 0.78 0.89 1.03 1.33 1.54 1.67 1.72 1.72 1.58 1.40 1.25 1.18 1.14 1.16 1.26 1.32 1.27 1.28 1.34 1.29 1.16 1.07 0.98 1.00 1.02 0.93
0.40 0.38 0.37 0.37 0.44 0.59 0.67 0.51 0.49 0.56 0.69 0.80 0.86 0.88 0.84 0.80 0.83 0.82 0.78 0.78 0.87 1.06 1.27 1.46 1.46 1.37 1.44 1.34 1.24 1.15 1.14 1.10 1.06 1.17 1.23 1.28 1.29 1.22 1.17 1.15 1.18 1.10 1.03
0.30 0.29 0.36 0.44 0.46 0.47 0.52 0.42 0.42 0.53 0.72 0.84 0.83 0.78 0.84 0.85 0.88 0.93 0.83 0.84 0.80 0.81 0.91 0.97 1.11 1.31 1.44 1.58 1.52 1.40 1.39 1.32 1.23 1.25 1.25 1.21 1.13 1.11 1.06 1.05 1.08 0.96 0.87
0.34 0.37 0.48 0.56 0.49 0.41 0.45 0.45 0.51 0.67 0.79 0.87 0.83 0.82 0.89 0.90 1.03 1.05 0.95 0.98 0.92 0.87 0.86 0.97 1.07 1.17 1.25 1.37 1.47 1.44 1.40 1.36 1.26 1.19 1.14 1.10 1.01 0.99 1.00 0.94 0.91 0.90 0.81
0.31 0.38 0.40 0.38 0.38 0.44 0.49 0.48 0.60 0.79 0.91 1.01 0.96 0.95 1.13 1.06 1.01 0.94 0.90 1.04 1.01 0.85 0.75 0.81 0.87 0.94 0.98 1.07 1.18 1.18 1.26 1.30 1.23 1.13 0.96 0.90 0.94 0.95 0.95 0.86 0.80 0.78 0.74

GEFSMA_prec_meanprecacc_114.txt.gz
Total_Precipitation_Accumulation
0.87 0.84 0.77 0.77 0.71 0.77 0.86 0.90 0.83 0.74 0.69 0.61 0.58 0.61 0.60 0.60 0.63 0.64 0.71 0.67 0.74 0.86 0.95 0.90 0.74 0.58 0.49 0.50 0.55 0.59 0.66 0.70 0.71 0.73 0.67 0.55 0.45 0.33 0.24 0.22 0.21 0.22 0.25
0.93 0.89 0.85 0.86 0.83 0.84 0.95 0.93 0.81 0.82 0.79 0.69 0.58 0.59 0.61 0.64 0.67 0.62 0.65 0.75 0.76 0.74 0.90 1.04 0.98 0.74 0.65 0.60 0.62 0.68 0.70 0.66 0.64 0.64 0.62 0.57 0.49 0.42 0.31 0.26 0.27 0.23 0.24
0.83 0.86 0.87 0.87 0.91 0.99 1.04 1.06 0.88 0.84 0.76 0.67 0.61 0.58 0.54 0.55 0.55 0.58 0.52 0.51 0.59 0.68 0.81 0.99 1.06 0.90 0.81 0.77 0.71 0.68 0.69 0.64 0.62 0.58 0.54 0.48 0.43 0.40 0.35 0.32 0.33 0.31 0.31
0.76 0.90 0.90 0.88 0.90 1.02 1.10 1.13 1.02 0.92 0.80 0.73 0.72 0.66 0.60 0.59 0.54 0.57 0.54 0.47 0.54 0.52 0.67 0.74 0.84 0.89 0.89 0.84 0.79 0.70 0.61 0.54 0.50 0.50 0.47 0.40 0.33 0.30 0.29 0.31 0.34 0.35 0.35
0.83 1.00 1.10 1.11 1.11 1.11 1.09 1.05 1.07 1.00 0.89 0.85 0.82 0.77 0.71 0.63 0.61 0.53 0.54 0.54 0.48 0.48 0.54 0.46 0.51 0.56 0.70 0.77 0.79 0.77 0.66 0.56 0.48 0.44 0.41 0.34 0.26 0.23 0.22 0.25 0.25 0.27 0.30
1.18 1.32 1.31 1.39 1.45 1.31 1.25 1.17 1.18 1.11 0.99 0.96 0.91 0.78 0.73 0.65 0.66 0.62 0.62 0.60 0.55 0.49 0.54 0.47 0.40 0.35 0.43 0.59 0.68 0.79 0.75 0.66 0.56 0.47 0.41 0.34 0.27 0.21 0.20 0.21 0.21 0.22 0.24
1.52 1.72 1.68 1.72 1.73 1.58 1.51 1.58 1.75 1.68 1.39 1.14 1.09 0.91 0.76 0.63 0.70 0.67 0.61 0.61 0.60 0.65 0.68 0.63 0.47 0.38 0.32 0.37 0.42 0.62 0.78 0.74 0.70 0.61 0.51 0.42 0.32 0.23 0.20 0.19 0.20 0.22 0.21
1.43 1.57 1.82 1.89 1.81 1.80 1.91 1.94 2.22 2.32 1.89 1.48 1.41 1.46 1.19 0.99 0.74 0.58 0.58 0.56 0.59 0.77 0.75 0.64 0.55 0.41 0.34 0.33 0.24 0.35 0.57 0.72 0.73 0.69 0.60 0.51 0.41 0.30 0.22 0.18 0.19 0.19 0.21
1.41 1.50 1.66 1.81 1.81 1.86 1.92 2.04 2.35 2.75 2.46 1.97 1.74 1.86 1.52 1.32 1.15 0.74 0.56 0.55 0.61 0.77 0.85 0.80 0.72 0.59 0.47 0.44 0.35 0.30 0.33 0.46 0.69 0.74 0.73 0.61 0.48 0.35 0.27 0.24 0.24 0.24 0.24
1.30 1.37 1.50 1.63 1.75 1.76 1.87 1.96 2.07 2.50 2.76 2.44 2.17 1.83 1.49 1.37 1.41 1.18 0.80 0.65 0.69 0.73 0.80 0.80 0.77 0.76 0.70 0.62 0.56 0.39 0.33 0.34 0.57 0.77 0.84 0.79 0.63 0.48 0.41 0.36 0.33 0.32 0.27
1.40 1.39 1.53 1.59 1.59 1.65 1.74 2.05 2.30 2.54 2.69 2.59 2.48 2.32 2.07 1.74 1.33 1.36 1.29 0.99 0.86 0.79 0.80 0.84 0.85 0.83 0.82 0.80 0.84 0.62 0.42 0.35 0.40 0.68 0.93 0.97 0.86 0.66 0.54 0.48 0.42 0.38 0.33
1.49 1.53 1.59 1.58 1.54 1.57 1.67 1.88 2.14 2.35 2.62 2.76 2.63 2.42 2.27 2.06 1.77 1.59 1.37 1.26 1.19 0.99 0.95 0.95 0.90 0.91 0.92 0.97 1.02 1.02 0.62 0.37 0.33 0.45 0.72 0.94 1.00 0.89 0.74 0.63 0.54 0.50 0.45
1.37 1.41 1.52 1.64 1.70 1.72 1.83 1.99 2.11 2.02 2.23 2.58 2.53 2.37 2.26 2.00 1.93 1.91 1.72 1.46 1.29 1.00 0.95 0.96 0.91 1.00 0.95 0.92 1.13 1.34 0.87 0.53 0.40 0.41 0.49 0.59 0.74 0.89 0.95 0.89 0.79 0.68 0.60
1.33 1.27 1.32 1.43 1.56 1.71 1.75 1.81 1.81 1.77 1.89 2.11 2.17 2.32 2.41 2.15 1.95 1.78 1.67 1.67 1.41 1.17 1.02 0.95 0.86 0.89 0.90 0.91 1.10 1.28 0.91 0.71 0.49 0.42 0.43 0.49 0.50 0.56 0.74 0.88 0.97 0.94 0.88
1.09 1.02 1.02 1.06 1.13 1.20 1.27 1.43 1.53 1.63 1.66 1.77 1.90 2.02 2.17 2.27 2.16 1.90 1.78 1.71 1.61 1.39 1.21 1.12 0.99 0.83 0.92 0.99 1.16 1.00 0.87 0.89 0.70 0.52 0.45 0.45 0.44 0.40 0.44 0.49 0.60 0.69 0.79
1.01 0.93 0.89 0.85 0.82 0.78 0.82 1.00 1.19 1.31 1.42 1.56 1.73 1.84 1.87 1.94 2.12 2.07 1.87 1.81 1.69 1.49 1.32 1.16 1.08 0.95 1.06 1.01 1.12 0.94 0.96 1.05 0.80 0.61 0.50 0.46 0.42 0.34 0.30 0.29 0.28 0.28 0.31
0.99 0.96 0.88 0.82 0.89 0.88 0.83 0.88 0.95 1.01 1.09 1.22 1.36 1.47 1.60 1.86 2.16 2.19 2.13 1.99 1.83 1.64 1.36 1.22 1.02 0.90 1.13 1.20 1.18 1.04 1.02 0.97 0.80 0.72 0.59 0.52 0.47 0.39 0.33 0.29 0.26 0.24 0.22
0.67 0.75 0.83 0.79 0.77 0.79 0.81 0.86 0.89 0.93 0.95 1.03 1.11 1.22 1.36 1.65 2.02 2.24 2.33 2.22 2.04 1.87 1.68 1.52 1.21 0.94 1.01 1.28 1.42 1.34 1.13 0.99 0.90 0.88 0.78 0.66 0.59 0.48 0.39 0.36 0.32 0.28 0.25
0.50 0.54 0.63 0.64 0.72 0.79 0.81 0.83 0.85 0.88 0.90 0.99 1.13 1.17 1.20 1.36 1.57 1.81 2.00 2.11 2.10 2.07 1.99 1.72 1.46 1.19 1.08 1.16 1.39 1.41 1.30 1.26 1.11 1.08 1.08 0.95 0.81 0.71 0.56 0.47 0.43 0.37 0.31
0.52 0.58 0.70 0.74 0.69 0.67 0.72 0.82 0.86 0.80 0.80 0.85 0.94 1.02 1.10 1.12 1.24 1.41 1.54 1.73 1.94 2.15 2.20 2.02 1.76 1.48 1.33 1.18 1.24 1.38 1.46 1.40 1.31 1.17 1.14 1.06 1.03 0.96 0.82 0.65 0.54 0.47 0.45
0.57 0.59 0.70 0.80 0.87 0.82 0.79 0.87 0.84 0.82 0.83 0.81 0.87 0.87 0.92 0.93 0.95 1.10 1.17 1.40 1.72 1.98 2.08 2.11 1.98 1.70 1.45 1.26 1.04 1.09 1.34 1.54 1.53 1.46 1.45 1.25 1.14 1.02 0.94 0.88 0.79 0.68 0.60
0.47 0.47 0.51 0.58 0.67 0.72 0.92 0.87 0.71 0.69 0.74 0.80 0.85 0.85 0.86 0.80 0.77 0.79 0.90 1.04 1.34 1.55 1.68 1.72 1.73 1.58 1.40 1.26 1.19 1.15 1.19 1.30 1.38 1.31 1.32 1.39 1.35 1.22 1.13 1.02 1.04 1.05 0.95
0.40 0.38 0.37 0.37 0.44 0.59 0.67 0.51 0.49 0.56 0.70 0.80 0.86 0.89 0.85 0.81 0.84 0.83 0.80 0.79 0.88 1.08 1.28 1.46 1.47 1.38 1.44 1.35 1.26 1.16 1.16 1.15 1.14 1.25 1.30 1.35 1.35 1.27 1.22 1.20 1.23 1.14 1.07
0.30 0.29 0.36 0.44 0.46 0.47 0.53 0.43 0.42 0.53 0.72 0.84 0.83 0.79 0.85 0.86 0.89 0.94 0.84 0.86 0.81 0.83 0.93 0.98 1.11 1.31 1.45 1.58 1.53 1.41 1.41 1.34 1.27 1.30 1.30 1.27 1.20 1.15 1.10 1.09 1.13 1.01 0.92
0.34 0.37 0.48 0.56 0.49 0.41 0.45 0.46 0.51 0.67 0.79 0.87 0.83 0.82 0.89 0.91 1.03 1.06 0.95 0.99 0.94 0.90 0.88 1.00 1.08 1.18 1.27 1.38 1.48 1.45 1.42 1.37 1.29 1.22 1.17 1.12 1.05 1.05 1.04 0.97 0.94 0.94 0.85
0.31 0.38 0.41 0.38 0.38 0.44 0.50 0.49 0.60 0.79 0.91 1.01 0.97 0.96 1.13 1.06 1.01 0.95 0.91 1.05 1.02 0.87 0.78 0.83 0.89 0.96 1.00 1.10 1.21 1.20 1.28 1.32 1.25 1.16 0.98 0.93 0.97 0.98 0.99 0.89 0.83 0.80 0.77

GEFSMA_prec_meanprecacc_120.txt.gz
Total_Precipitation_Accumulation
0.87 0.84 0.77 0.77 0.71 0.77 0.86 0.92 0.86 0.78 0.72 0.64 0.60 0.63 0.63 0.65 0.67 0.68 0.74 0.70 0.78 0.93 1.03 0.99 0.84 0.69 0.58 0.57 0.60 0.65 0.72 0.76 0.76 0.80 0.75 0.63 0.53 0.40 0.28 0.26 0.25 0.25 0.28
0.93 0.89 0.85 0.86 0.83 0.84 0.95 0.93 0.83 0.86 0.83 0.72 0.60 0.60 0.64 0.68 0.72 0.66 0.68 0.78 0.80 0.79 0.97 1.12 1.08 0.86 0.74 0.68 0.69 0.74 0.77 0.73 0.71 0.72 0.68 0.63 0.56 0.48 0.38 0.32 0.30 0.26 0.27
0.83 0.86 0.87 0.87 0.91 0.99 1.04 1.06 0.89 0.87 0.81 0.71 0.64 0.60 0.57 0.59 0.61 0.62 0.56 0.55 0.64 0.71 0.85 1.06 1.15 1.02 0.94 0.87 0.80 0.76 0.78 0.73 0.70 0.65 0.61 0.54 0.50 0.46 0.42 0.39 0.39 0.35 0.34
0.76 0.90 0.90 0.88 0.90 1.03 1.10 1.14 1.03 0.94 0.85 0.80 0.76 0.68 0.62 0.63 0.59 0.61 0.58 0.50 0.58 0.56 0.71 0.78 0.90 0.96 0.98 0.94 0.89 0.79 0.71 0.64 0.58 0.56 0.53 0.46 0.40 0.35 0.33 0.37 0.38 0.39 0.39
0.83 1.00 1.10 1.11 1.11 1.11 1.09 1.05 1.08 1.01 0.93 0.91 0.87 0.81 0.74 0.66 0.64 0.56 0.58 0.58 0.52 0.53 0.62 0.51 0.54 0.60 0.75 0.86 0.88 0.88 0.77 0.67 0.57 0.52 0.49 0.40 0.32 0.28 0.26 0.30 0.30 0.31 0.34
1.18 1.32 1.32 1.39 1.45 1.32 1.25 1.18 1.19 1.13 1.02 1.01 0.96 0.83 0.77 0.67 0.68 0.66 0.66 0.65 0.61 0.54 0.60 0.53 0.46 0.39 0.45 0.64 0.76 0.90 0.88 0.79 0.66 0.56 0.50 0.42 0.32 0.26 0.23 0.24 0.26 0.26 0.29
1.52 1.72 1.68 1.72 1.74 1.60 1.53 1.59 1.76 1.70 1.41 1.17 1.16 0.97 0.81 0.67 0.73 0.71 0.66 0.68 0.66 0.71 0.72 0.68 0.54 0.45 0.35 0.39 0.46 0.69 0.86 0.83 0.81 0.71 0.61 0.51 0.38 0.27 0.23 0.23 0.24 0.26 0.25
1.43 1.57 1.82 1.91 1.82 1.81 1.92 1.95 2.23 2.35 1.92 1.51 1.48 1.53 1.24 1.03 0.77 0.61 0.63 0.62 0.67 0.85 0.81 0.69 0.63 0.49 0.40 0.40 0.29 0.38 0.62 0.78 0.83 0.82 0.72 0.61 0.49 0.35 0.26 0.23 0.24 0.25 0.26
1.41 1.51 1.66 1.81 1.82 1.87 1.94 2.05 2.36 2.78 2.51 2.01 1.79 1.93 1.59 1.38 1.18 0.76 0.59 0.61 0.68 0.84 0.93 0.88 0.82 0.67 0.53 0.52 0.43 0.34 0.36 0.50 0.77 0.88 0.88 0.75 0.58 0.43 0.32 0.30 0.30 0.30 0.28
1.30 1.37 1.51 1.64 1.75 1.77 1.89 1.98 2.08 2.52 2.81 2.49 2.21 1.87 1.54 1.42 1.46 1.22 0.84 0.71 0.76 0.79 0.87 0.87 0.85 0.85 0.77 0.70 0.63 0.41 0.34 0.36 0.62 0.89 1.01 0.97 0.76 0.58 0.49 0.43 0.40 0.38 0.33
1.40 1.39 1.53 1.59 1.60 1.65 1.75 2.08 2.32 2.56 2.73 2.64 2.52 2.35 2.10 1.78 1.37 1.41 1.33 1.04 0.92 0.85 0.85 0.90 0.92 0.90 0.90 0.87 0.93 0.66 0.44 0.38 0.44 0.77 1.08 1.19 1.05 0.80 0.65 0.57 0.51 0.47 0.40
1.49 1.53 1.59 1.59 1.55 1.58 1.68 1.90 2.17 2.37 2.66 2.81 2.68 2.46 2.30 2.10 1.82 1.65 1.42 1.30 1.24 1.04 0.99 0.98 0.94 0.95 0.97 1.03 1.07 1.06 0.65 0.40 0.36 0.51 0.82 1.10 1.20 1.06 0.87 0.75 0.66 0.60 0.53
1.37 1.41 1.52 1.64 1.71 1.73 1.84 2.00 2.14 2.05 2.26 2.63 2.59 2.41 2.29 2.02 1.97 1.96 1.78 1.49 1.33 1.04 0.98 0.98 0.94 1.03 0.99 0.96 1.17 1.38 0.90 0.56 0.42 0.45 0.55 0.70 0.87 1.02 1.09 1.04 0.94 0.84 0.72
1.33 1.27 1.32 1.43 1.57 1.72 1.77 1.82 1.83 1.80 1.92 2.15 2.22 2.36 2.44 2.17 1.98 1.82 1.71 1.71 1.45 1.21 1.06 0.98 0.89 0.92 0.94 0.94 1.14 1.32 0.96 0.74 0.52 0.45 0.46 0.55 0.61 0.65 0.81 0.96 1.07 1.09 1.05
1.09 1.02 1.02 1.06 1.14 1.22 1.29 1.45 1.54 1.65 1.69 1.80 1.94 2.06 2.20 2.29 2.18 1.91 1.80 1.74 1.64 1.43 1.25 1.15 1.03 0.87 0.95 1.02 1.21 1.04 0.93 0.93 0.73 0.55 0.48 0.49 0.54 0.52 0.53 0.56 0.65 0.77 0.91
1.01 0.94 0.90 0.86 0.82 0.80 0.84 1.02 1.21 1.33 1.44 1.58 1.76 1.89 1.90 1.95 2.13 2.08 1.88 1.82 1.71 1.53 1.37 1.19 1.12 0.98 1.10 1.05 1.18 0.99 1.00 1.10 0.83 0.64 0.54 0.51 0.50 0.45 0.40 0.36 0.34 0.33 0.38
0.99 0.97 0.88 0.82 0.89 0.89 0.85 0.90 0.95 1.01 1.09 1.23 1.38 1.51 1.65 1.88 2.17 2.20 2.14 2.00 1.85 1.66 1.39 1.24 1.05 0.93 1.17 1.25 1.23 1.08 1.05 1.01 0.84 0.75 0.63 0.57 0.53 0.47 0.42 0.37 0.33 0.29 0.26
0.67 0.76 0.84 0.79 0.77 0.80 0.81 0.87 0.89 0.93 0.95 1.03 1.13 1.25 1.41 1.69 2.03 2.25 2.34 2.22 2.05 1.89 1.71 1.54 1.23 0.96 1.04 1.32 1.47 1.39 1.16 1.01 0.93 0.90 0.79 0.68 0.62 0.54 0.47 0.44 0.40 0.35 0.31
0.50 0.54 0.63 0.64 0.73 0.79 0.82 0.84 0.86 0.88 0.91 1.00 1.13 1.19 1.23 1.42 1.60 1.82 2.01 2.13 2.11 2.09 2.01 1.75 1.48 1.21 1.10 1.19 1.42 1.45 1.33 1.28 1.13 1.10 1.10 0.97 0.84 0.75 0.63 0.53 0.48 0.42 0.35
0.52 0.58 0.70 0.74 0.70 0.67 0.72 0.83 0.86 0.81 0.80 0.86 0.94 1.04 1.12 1.16 1.30 1.43 1.55 1.74 1.95 2.16 2.21 2.06 1.80 1.49 1.34 1.19 1.26 1.42 1.50 1.42 1.33 1.19 1.17 1.09 1.07 1.00 0.89 0.73 0.58 0.51 0.48
0.57 0.59 0.70 0.80 0.87 0.82 0.79 0.87 0.84 0.83 0.83 0.82 0.87 0.87 0.93 0.94 0.99 1.15 1.20 1.41 1.73 1.99 2.10 2.15 2.02 1.73 1.47 1.28 1.06 1.12 1.37 1.57 1.55 1.48 1.48 1.28 1.16 1.05 0.98 0.94 0.85 0.71 0.62
0.47 0.47 0.51 0.58 0.67 0.72 0.92 0.87 0.71 0.69 0.75 0.81 0.85 0.85 0.86 0.81 0.78 0.82 0.94 1.06 1.35 1.57 1.70 1.75 1.76 1.61 1.42 1.28 1.21 1.16 1.20 1.32 1.40 1.33 1.34 1.42 1.37 1.24 1.15 1.06 1.08 1.09 0.97
0.40 0.38 0.37 0.37 0.44 0.59 0.67 0.51 0.50 0.56 0.70 0.81 0.87 0.90 0.86 0.81 0.84 0.84 0.82 0.81 0.90 1.09 1.30 1.48 1.49 1.40 1.45 1.36 1.27 1.18 1.18 1.17 1.15 1.27 1.33 1.37 1.37 1.30 1.26 1.25 1.28 1.19 1.10
0.30 0.29 0.37 0.44 0.46 0.47 0.53 0.43 0.42 0.53 0.72 0.85 0.84 0.80 0.86 0.86 0.89 0.94 0.85 0.88 0.83 0.84 0.95 0.99 1.12 1.33 1.46 1.60 1.55 1.43 1.43 1.37 1.28 1.32 1.33 1.30 1.22 1.17 1.13 1.12 1.18 1.07 0.98
0.34 0.37 0.49 0.56 0.49 0.42 0.45 0.46 0.52 0.67 0.79 0.88 0.83 0.82 0.90 0.92 1.04 1.06 0.96 1.00 0.95 0.91 0.90 1.00 1.09 1.20 1.28 1.39 1.50 1.48 1.44 1.40 1.31 1.25 1.21 1.15 1.08 1.08 1.08 1.01 0.97 0.98 0.89
0.31 0.38 0.41 0.38 0.38 0.44 0.50 0.49 0.61 0.79 0.91 1.02 0.97 0.96 1.13 1.07 1.02 0.95 0.92 1.05 1.03 0.88 0.79 0.84 0.90 0.97 1.01 1.11 1.22 1.22 1.31 1.37 1.29 1.19 1.02 0.97 1.00 1.01 1.03 0.94 0.87 0.84 0.81

GEFSMA_prec_meanprecacc_126.txt.gz
Total_Precipitation_Accumulation
0.87 0.84 0.77 0.77 0.71 0.77 0.87 0.94 0.89 0.80 0.73 0.66 0.62 0.65 0.67 0.69 0.72 0.76 0.82 0.75 0.82 0.96 1.06 1.02 0.89 0.75 0.64 0.63 0.66 0.69 0.75 0.79 0.79 0.84 0.79 0.68 0.58 0.44 0.33 0.32 0.31 0.31 0.33
0.93 0.90 0.85 0.86 0.83 0.84 0.96 0.94 0.85 0.88 0.85 0.74 0.61 0.61 0.66 0.72 0.76 0.73 0.75 0.84 0.83 0.82 1.00 1.16 1.13 0.92 0.81 0.75 0.76 0.80 0.81 0.77 0.75 0.76 0.72 0.67 0.61 0.53 0.42 0.37 0.37 0.32 0.31
0.83 0.86 0.87 0.87 0.91 0.99 1.04 1.06 0.89 0.89 0.83 0.73 0.66 0.61 0.58 0.62 0.64 0.68 0.65 0.62 0.69 0.75 0.88 1.10 1.21 1.08 0.99 0.94 0.87 0.82 0.83 0.77 0.74 0.69 0.64 0.58 0.54 0.50 0.46 0.45 0.45 0.41 0.38
0.77 0.90 0.90 0.88 0.91 1.03 1.10 1.14 1.04 0.96 0.88 0.83 0.79 0.71 0.64 0.65 0.61 0.66 0.64 0.57 0.67 0.64 0.76 0.82 0.95 1.03 1.05 1.01 0.96 0.87 0.77 0.70 0.62 0.61 0.57 0.49 0.44 0.39 0.37 0.43 0.44 0.45 0.43
0.83 1.00 1.10 1.11 1.11 1.12 1.10 1.05 1.09 1.04 0.98 0.96 0.91 0.86 0.77 0.68 0.67 0.61 0.62 0.65 0.60 0.66 0.74 0.56 0.57 0.64 0.80 0.91 0.93 0.95 0.84 0.73 0.62 0.57 0.54 0.45 0.35 0.32 0.30 0.36 0.36 0.36 0.39
1.18 1.32 1.32 1.39 1.46 1.32 1.26 1.19 1.20 1.15 1.06 1.06 1.00 0.89 0.81 0.70 0.72 0.71 0.71 0.71 0.67 0.63 0.71 0.61 0.53 0.43 0.49 0.68 0.80 0.96 0.95 0.83 0.72 0.62 0.56 0.47 0.35 0.29 0.27 0.29 0.31 0.30 0.32
1.52 1.72 1.69 1.73 1.75 1.61 1.55 1.60 1.79 1.73 1.46 1.23 1.22 1.05 0.87 0.71 0.76 0.76 0.72 0.74 0.73 0.80 0.87 0.78 0.62 0.54 0.43 0.43 0.49 0.74 0.93 0.90 0.87 0.76 0.68 0.59 0.44 0.30 0.27 0.27 0.29 0.30 0.28
1.44 1.57 1.82 1.91 1.83 1.83 1.93 1.97 2.27 2.39 1.97 1.56 1.53 1.61 1.33 1.10 0.81 0.65 0.68 0.68 0.75 0.95 0.93 0.78 0.70 0.58 0.50 0.51 0.35 0.41 0.66 0.84 0.91 0.89 0.80 0.70 0.56 0.40 0.29 0.25 0.28 0.29 0.30
1.41 1.51 1.66 1.82 1.82 1.88 1.95 2.06 2.38 2.82 2.57 2.07 1.83 1.99 1.67 1.46 1.25 0.82 0.64 0.66 0.76 0.94 1.03 0.96 0.89 0.78 0.64 0.66 0.55 0.38 0.38 0.53 0.82 0.97 0.98 0.87 0.67 0.47 0.36 0.32 0.32 0.34 0.34
1.30 1.37 1.51 1.64 1.76 1.78 1.90 1.99 2.10 2.56 2.86 2.55 2.26 1.93 1.59 1.50 1.55 1.30 0.89 0.77 0.82 0.88 0.96 0.94 0.92 0.97 0.89 0.83 0.74 0.48 0.36 0.37 0.65 0.96 1.10 1.10 0.89 0.68 0.55 0.47 0.43 0.42 0.37
1.40 1.39 1.53 1.60 1.61 1.66 1.76 2.08 2.34 2.58 2.76 2.69 2.58 2.41 2.16 1.85 1.46 1.50 1.41 1.10 0.99 0.93 0.93 0.97 0.98 0.98 0.99 0.99 1.06 0.73 0.47 0.39 0.45 0.81 1.17 1.32 1.20 0.96 0.76 0.65 0.56 0.52 0.46
1.49 1.53 1.59 1.59 1.56 1.59 1.69 1.91 2.18 2.39 2.70 2.86 2.75 2.52 2.35 2.17 1.91 1.74 1.50 1.37 1.31 1.10 1.04 1.03 0.99 1.00 1.05 1.14 1.16 1.12 0.68 0.41 0.37 0.52 0.87 1.19 1.33 1.22 1.03 0.89 0.76 0.70 0.63
1.37 1.41 1.52 1.64 1.72 1.74 1.85 2.02 2.16 2.07 2.29 2.66 2.64 2.47 2.33 2.07 2.02 2.05 1.87 1.58 1.40 1.11 1.04 1.03 0.98 1.07 1.04 1.05 1.27 1.44 0.93 0.58 0.43 0.46 0.58 0.76 0.98 1.17 1.26 1.19 1.08 0.98 0.86
1.33 1.27 1.32 1.43 1.57 1.73 1.78 1.83 1.84 1.81 1.94 2.18 2.25 2.41 2.48 2.21 2.02 1.88 1.79 1.80 1.54 1.29 1.12 1.02 0.94 0.97 0.99 1.03 1.23 1.40 1.00 0.76 0.53 0.46 0.47 0.58 0.66 0.73 0.91 1.07 1.19 1.22 1.19
1.09 1.02 1.02 1.07 1.15 1.23 1.31 1.46 1.55 1.66 1.71 1.83 1.97 2.09 2.23 2.31 2.21 1.94 1.85 1.80 1.72 1.52 1.33 1.22 1.10 0.93 1.01 1.10 1.28 1.11 1.00 0.96 0.74 0.56 0.50 0.52 0.56 0.56 0.59 0.63 0.74 0.86 1.01
1.01 0.94 0.90 0.86 0.83 0.81 0.85 1.03 1.22 1.34 1.45 1.61 1.79 1.92 1.93 1.98 2.15 2.10 1.91 1.87 1.76 1.60 1.45 1.27 1.19 1.04 1.17 1.12 1.24 1.06 1.07 1.15 0.85 0.65 0.56 0.54 0.52 0.47 0.44 0.41 0.38 0.39 0.44
0.99 0.98 0.89 0.82 0.89 0.89 0.85 0.91 0.96 1.02 1.10 1.25 1.40 1.52 1.67 1.91 2.19 2.21 2.16 2.03 1.89 1.71 1.46 1.32 1.11 1.01 1.26 1.34 1.30 1.16 1.12 1.07 0.87 0.78 0.65 0.59 0.56 0.50 0.45 0.40 0.36 0.32 0.30
0.67 0.76 0.84 0.79 0.78 0.80 0.82 0.88 0.90 0.94 0.96 1.05 1.14 1.26 1.43 1.72 2.06 2.27 2.35 2.26 2.09 1.92 1.75 1.59 1.27 1.03 1.12 1.42 1.55 1.46 1.23 1.09 0.98 0.93 0.81 0.71 0.65 0.57 0.50 0.46 0.42 0.38 0.34
0.50 0.54 0.63 0.64 0.73 0.80 0.82 0.84 0.87 0.90 0.92 1.01 1.15 1.20 1.25 1.44 1.63 1.85 2.03 2.16 2.15 2.11 2.05 1.79 1.51 1.25 1.15 1.26 1.49 1.50 1.40 1.36 1.18 1.12 1.12 0.98 0.86 0.77 0.65 0.55 0.51 0.44 0.37
0.52 0.58 0.70 0.74 0.70 0.67 0.72 0.83 0.88 0.83 0.81 0.86 0.95 1.04 1.13 1.17 1.32 1.46 1.58 1.76 1.97 2.20 2.26 2.10 1.84 1.52 1.38 1.24 1.33 1.48 1.55 1.47 1.37 1.22 1.20 1.11 1.08 1.02 0.91 0.75 0.61 0.53 0.50
0.57 0.59 0.70 0.81 0.87 0.82 0.79 0.88 0.86 0.84 0.83 0.82 0.87 0.87 0.93 0.95 1.01 1.18 1.23 1.44 1.76 2.02 2.13 2.19 2.08 1.78 1.51 1.31 1.11 1.18 1.42 1.61 1.58 1.51 1.52 1.31 1.20 1.07 0.99 0.96 0.87 0.74 0.64
0.47 0.47 0.51 0.58 0.68 0.72 0.92 0.88 0.73 0.69 0.75 0.81 0.86 0.86 0.87 0.81 0.79 0.85 0.98 1.09 1.38 1.59 1.73 1.80 1.82 1.67 1.47 1.33 1.27 1.22 1.25 1.36 1.44 1.36 1.37 1.44 1.40 1.28 1.19 1.07 1.10 1.11 0.99
0.40 0.38 0.37 0.38 0.44 0.59 0.67 0.51 0.50 0.56 0.70 0.82 0.89 0.91 0.87 0.82 0.85 0.86 0.87 0.87 0.93 1.11 1.32 1.52 1.53 1.44 1.50 1.41 1.32 1.22 1.22 1.21 1.20 1.31 1.36 1.41 1.41 1.34 1.29 1.28 1.31 1.21 1.12
0.30 0.29 0.37 0.44 0.46 0.47 0.53 0.43 0.42 0.53 0.73 0.86 0.86 0.82 0.88 0.88 0.90 0.96 0.88 0.94 0.90 0.88 0.96 1.01 1.16 1.36 1.50 1.64 1.60 1.49 1.49 1.42 1.32 1.38 1.39 1.35 1.27 1.21 1.15 1.15 1.21 1.09 1.00
0.34 0.37 0.49 0.56 0.50 0.42 0.46 0.47 0.52 0.67 0.80 0.88 0.85 0.84 0.92 0.95 1.06 1.08 0.99 1.04 1.00 0.97 0.93 1.03 1.12 1.23 1.32 1.42 1.54 1.53 1.49 1.46 1.35 1.29 1.27 1.21 1.13 1.14 1.13 1.05 1.01 1.00 0.90
0.31 0.39 0.41 0.38 0.38 0.44 0.50 0.49 0.61 0.80 0.92 1.02 0.98 0.97 1.16 1.10 1.05 0.98 0.95 1.09 1.07 0.92 0.84 0.88 0.93 1.00 1.05 1.15 1.25 1.26 1.35 1.41 1.34 1.23 1.06 1.03 1.04 1.06 1.09 1.00 0.92 0.88 0.84

GEFSMA_prec_meanprecacc_132.txt.gz
Total_Precipitation_Accumulation
0.87 0.84 0.77 0.77 0.71 0.77 0.87 0.94 0.89 0.80 0.73 0.66 0.62 0.66 0.69 0.72 0.76 0.82 0.88 0.80 0.86 1.03 1.15 1.10 0.95 0.78 0.69 0.71 0.72 0.73 0.80 0.83 0.82 0.87 0.81 0.71 0.61 0.48 0.36 0.35 0.36 0.36 0.41
0.93 0.90 0.85 0.86 0.83 0.84 0.96 0.94 0.85 0.88 0.85 0.74 0.62 0.62 0.67 0.75 0.79 0.77 0.80 0.89 0.88 0.87 1.08 1.23 1.20 0.97 0.87 0.82 0.83 0.85 0.85 0.81 0.78 0.79 0.74 0.70 0.63 0.55 0.46 0.40 0.41 0.37 0.37
0.83 0.86 0.87 0.87 0.91 0.99 1.04 1.06 0.90 0.89 0.83 0.73 0.66 0.61 0.59 0.63 0.66 0.71 0.69 0.67 0.73 0.79 0.95 1.18 1.29 1.16 1.06 1.01 0.94 0.90 0.87 0.81 0.78 0.71 0.66 0.60 0.55 0.52 0.48 0.48 0.48 0.44 0.42
0.77 0.90 0.90 0.88 0.91 1.03 1.10 1.14 1.04 0.96 0.88 0.83 0.80 0.71 0.65 0.66 0.64 0.70 0.71 0.61 0.70 0.68 0.80 0.88 1.02 1.12 1.13 1.08 1.04 0.94 0.83 0.73 0.66 0.64 0.60 0.53 0.46 0.40 0.39 0.45 0.47 0.48 0.46
0.83 1.00 1.10 1.11 1.11 1.12 1.10 1.05 1.09 1.04 0.98 0.96 0.92 0.88 0.78 0.71 0.71 0.67 0.70 0.70 0.65 0.69 0.78 0.60 0.62 0.70 0.86 0.98 1.02 1.05 0.92 0.77 0.65 0.60 0.58 0.48 0.38 0.33 0.31 0.37 0.38 0.39 0.41
1.18 1.32 1.32 1.39 1.46 1.32 1.26 1.20 1.21 1.15 1.06 1.07 1.02 0.91 0.83 0.72 0.76 0.78 0.77 0.77 0.71 0.68 0.76 0.65 0.56 0.47 0.54 0.74 0.89 1.07 1.03 0.90 0.77 0.65 0.61 0.51 0.39 0.31 0.29 0.30 0.33 0.32 0.34
1.52 1.72 1.69 1.73 1.75 1.61 1.55 1.61 1.79 1.73 1.46 1.24 1.24 1.06 0.89 0.73 0.80 0.81 0.77 0.79 0.78 0.84 0.93 0.84 0.65 0.56 0.45 0.47 0.55 0.81 1.01 0.98 0.95 0.82 0.73 0.64 0.48 0.33 0.28 0.29 0.31 0.32 0.30
1.44 1.57 1.82 1.91 1.83 1.83 1.94 1.97 2.27 2.39 1.97 1.56 1.54 1.61 1.35 1.13 0.84 0.69 0.72 0.73 0.80 0.99 1.01 0.87 0.75 0.61 0.52 0.53 0.37 0.44 0.71 0.92 1.00 0.99 0.89 0.76 0.60 0.43 0.32 0.28 0.30 0.32 0.33
1.41 1.51 1.66 1.82 1.82 1.88 1.96 2.07 2.39 2.82 2.57 2.07 1.83 2.00 1.68 1.47 1.26 0.86 0.69 0.70 0.81 0.98 1.10 1.05 0.96 0.83 0.68 0.69 0.58 0.40 0.40 0.57 0.89 1.07 1.09 0.96 0.74 0.52 0.40 0.36 0.35 0.38 0.37
1.30 1.37 1.51 1.64 1.76 1.78 1.90 2.00 2.11 2.56 2.87 2.55 2.26 1.93 1.60 1.51 1.56 1.32 0.92 0.81 0.87 0.93 1.01 1.02 1.02 1.06 0.95 0.87 0.77 0.50 0.38 0.39 0.68 1.04 1.23 1.22 0.98 0.76 0.60 0.51 0.47 0.46 0.41
1.40 1.39 1.53 1.60 1.61 1.66 1.76 2.09 2.34 2.59 2.77 2.70 2.59 2.42 2.17 1.85 1.47 1.52 1.43 1.15 1.04 0.96 0.99 1.04 1.07 1.08 1.07 1.05 1.11 0.77 0.50 0.41 0.48 0.87 1.28 1.48 1.34 1.07 0.86 0.73 0.62 0.56 0.49
1.49 1.53 1.59 1.59 1.56 1.59 1.69 1.91 2.18 2.39 2.71 2.87 2.75 2.53 2.36 2.19 1.93 1.75 1.52 1.41 1.36 1.14 1.08 1.08 1.04 1.07 1.12 1.21 1.22 1.16 0.71 0.43 0.39 0.57 0.93 1.29 1.45 1.34 1.15 1.01 0.85 0.78 0.70
1.37 1.41 1.52 1.64 1.72 1.74 1.85 2.02 2.16 2.07 2.29 2.67 2.65 2.47 2.34 2.09 2.04 2.06 1.89 1.60 1.43 1.14 1.07 1.05 1.00 1.12 1.12 1.12 1.33 1.49 0.97 0.61 0.45 0.50 0.62 0.81 1.05 1.24 1.37 1.34 1.23 1.12 0.99
1.33 1.27 1.32 1.43 1.57 1.73 1.78 1.83 1.84 1.81 1.94 2.18 2.26 2.41 2.48 2.21 2.03 1.90 1.80 1.82 1.56 1.32 1.15 1.05 0.96 0.99 1.05 1.09 1.29 1.46 1.06 0.80 0.56 0.49 0.50 0.61 0.70 0.77 0.99 1.18 1.34 1.39 1.35
1.09 1.02 1.02 1.07 1.15 1.23 1.31 1.46 1.55 1.66 1.71 1.83 1.98 2.10 2.24 2.32 2.22 1.96 1.86 1.81 1.74 1.54 1.35 1.25 1.11 0.94 1.04 1.14 1.33 1.16 1.04 1.00 0.77 0.58 0.52 0.53 0.58 0.59 0.63 0.68 0.80 0.94 1.12
1.01 0.94 0.90 0.86 0.83 0.81 0.85 1.03 1.22 1.34 1.45 1.61 1.80 1.93 1.94 1.99 2.16 2.11 1.92 1.88 1.77 1.61 1.47 1.30 1.22 1.07 1.22 1.17 1.30 1.12 1.12 1.19 0.88 0.68 0.57 0.55 0.54 0.49 0.46 0.44 0.42 0.42 0.48
0.99 0.98 0.89 0.82 0.89 0.89 0.85 0.91 0.96 1.02 1.10 1.25 1.40 1.53 1.68 1.92 2.20 2.22 2.17 2.04 1.90 1.72 1.47 1.34 1.15 1.06 1.33 1.43 1.36 1.21 1.17 1.13 0.91 0.82 0.68 0.61 0.58 0.52 0.47 0.42 0.39 0.35 0.33
0.67 0.76 0.84 0.79 0.78 0.80 0.82 0.88 0.90 0.94 0.97 1.05 1.15 1.27 1.44 1.73 2.07 2.28 2.36 2.26 2.10 1.93 1.76 1.61 1.30 1.06 1.16 1.48 1.61 1.53 1.29 1.13 1.01 0.96 0.84 0.72 0.66 0.59 0.51 0.48 0.45 0.41 0.37
0.50 0.54 0.63 0.64 0.73 0.80 0.83 0.85 0.87 0.91 0.93 1.01 1.16 1.21 1.27 1.46 1.65 1.86 2.05 2.17 2.15 2.12 2.06 1.81 1.52 1.27 1.20 1.31 1.54 1.55 1.47 1.41 1.22 1.16 1.15 1.01 0.88 0.79 0.68 0.58 0.53 0.47 0.41
0.52 0.58 0.70 0.74 0.70 0.68 0.73 0.84 0.88 0.84 0.83 0.87 0.96 1.05 1.15 1.19 1.35 1.48 1.59 1.77 1.98 2.21 2.27 2.11 1.85 1.54 1.41 1.29 1.38 1.53 1.60 1.53 1.44 1.27 1.24 1.14 1.11 1.04 0.94 0.79 0.65 0.57 0.54
0.57 0.59 0.70 0.81 0.87 0.83 0.80 0.89 0.86 0.84 0.84 0.83 0.88 0.88 0.94 0.97 1.03 1.20 1.24 1.45 1.77 2.04 2.14 2.20 2.09 1.79 1.53 1.35 1.14 1.23 1.48 1.67 1.65 1.56 1.56 1.35 1.21 1.08 1.00 0.97 0.90 0.77 0.67
0.47 0.47 0.51 0.58 0.68 0.72 0.93 0.89 0.74 0.70 0.75 0.82 0.87 0.86 0.88 0.83 0.81 0.87 0.99 1.11 1.40 1.61 1.74 1.81 1.84 1.69 1.49 1.35 1.30 1.26 1.31 1.44 1.49 1.38 1.41 1.48 1.43 1.30 1.20 1.08 1.11 1.13 1.02
0.40 0.38 0.37 0.38 0.44 0.60 0.68 0.52 0.51 0.57 0.71 0.82 0.89 0.92 0.88 0.83 0.87 0.88 0.89 0.89 0.95 1.12 1.33 1.53 1.56 1.47 1.52 1.43 1.35 1.25 1.26 1.26 1.25 1.35 1.40 1.45 1.44 1.36 1.30 1.29 1.32 1.22 1.14
0.30 0.29 0.37 0.44 0.46 0.48 0.53 0.44 0.43 0.54 0.73 0.87 0.87 0.83 0.89 0.90 0.93 0.99 0.92 0.97 0.92 0.89 0.98 1.03 1.17 1.38 1.52 1.67 1.63 1.53 1.53 1.46 1.37 1.43 1.43 1.39 1.31 1.24 1.17 1.16 1.22 1.10 1.01
0.34 0.37 0.49 0.56 0.50 0.42 0.46 0.48 0.53 0.68 0.81 0.89 0.85 0.85 0.92 0.96 1.09 1.13 1.04 1.09 1.03 0.99 0.95 1.05 1.14 1.25 1.34 1.46 1.58 1.60 1.56 1.52 1.39 1.32 1.31 1.25 1.16 1.18 1.16 1.07 1.01 1.01 0.91
0.31 0.39 0.41 0.38 0.38 0.44 0.51 0.50 0.63 0.81 0.93 1.03 0.99 0.98 1.16 1.11 1.08 1.03 1.01 1.15 1.11 0.95 0.87 0.90 0.95 1.02 1.07 1.18 1.30 1.32 1.43 1.49 1.40 1.26 1.11 1.07 1.08 1.10 1.12 1.04 0.94 0.89 0.85

GEFSMA_prec_meanprecacc_138.txt.gz
Total_Precipitation_Accumulation
0.87 0.84 0.77 0.77 0.71 0.77 0.87 0.94 0.89 0.80 0.73 0.66 0.63 0.67 0.70 0.74 0.78 0.83 0.89 0.82 0.89 1.07 1.21 1.18 1.02 0.85 0.78 0.80 0.81 0.79 0.85 0.90 0.90 0.93 0.88 0.79 0.68 0.54 0.42 0.41 0.41 0.40 0.44
0.93 0.90 0.85 0.86 0.83 0.84 0.96 0.94 0.85 0.88 0.85 0.74 0.62 0.63 0.69 0.76 0.81 0.78 0.81 0.90 0.90 0.91 1.14 1.31 1.29 1.06 0.98 0.92 0.93 0.93 0.93 0.90 0.87 0.86 0.81 0.76 0.70 0.62 0.51 0.44 0.45 0.41 0.40
0.83 0.86 0.87 0.87 0.91 0.99 1.04 1.06 0.90 0.89 0.83 0.73 0.67 0.62 0.61 0.64 0.68 0.72 0.70 0.67 0.73 0.82 1.00 1.26 1.41 1.27 1.18 1.12 1.03 0.99 0.97 0.91 0.87 0.81 0.75 0.66 0.62 0.59 0.53 0.51 0.51 0.49 0.45
0.77 0.90 0.90 0.88 0.91 1.03 1.10 1.14 1.04 0.96 0.88 0.83 0.80 0.72 0.66 0.67 0.65 0.72 0.72 0.62 0.71 0.69 0.83 0.93 1.10 1.21 1.22 1.21 1.16 1.04 0.92 0.82 0.73 0.74 0.68 0.58 0.51 0.45 0.44 0.49 0.50 0.52 0.51
0.83 1.00 1.10 1.11 1.11 1.12 1.10 1.05 1.09 1.04 0.98 0.96 0.92 0.88 0.79 0.71 0.72 0.69 0.71 0.71 0.66 0.70 0.79 0.63 0.67 0.75 0.93 1.08 1.15 1.16 1.01 0.86 0.73 0.68 0.67 0.54 0.43 0.37 0.35 0.42 0.42 0.44 0.47
1.18 1.32 1.32 1.39 1.46 1.33 1.27 1.20 1.21 1.15 1.06 1.07 1.02 0.91 0.83 0.72 0.76 0.81 0.80 0.79 0.73 0.69 0.77 0.66 0.57 0.49 0.59 0.81 1.00 1.18 1.15 1.01 0.84 0.72 0.69 0.59 0.44 0.34 0.33 0.35 0.38 0.37 0.40
1.52 1.72 1.69 1.73 1.75 1.61 1.56 1.61 1.80 1.73 1.46 1.24 1.24 1.06 0.89 0.73 0.81 0.83 0.80 0.82 0.80 0.86 0.95 0.85 0.66 0.57 0.48 0.51 0.62 0.91 1.12 1.09 1.04 0.89 0.82 0.73 0.53 0.37 0.31 0.33 0.36 0.36 0.35
1.44 1.57 1.82 1.91 1.83 1.84 1.95 1.98 2.27 2.39 1.97 1.56 1.54 1.62 1.35 1.13 0.85 0.70 0.74 0.75 0.82 1.01 1.03 0.88 0.77 0.63 0.55 0.56 0.40 0.50 0.78 1.02 1.11 1.08 1.00 0.87 0.68 0.48 0.36 0.32 0.35 0.38 0.40
1.41 1.51 1.66 1.82 1.82 1.88 1.97 2.08 2.40 2.82 2.57 2.07 1.84 2.00 1.68 1.47 1.27 0.87 0.70 0.72 0.82 0.99 1.11 1.06 0.98 0.86 0.71 0.72 0.61 0.44 0.44 0.62 0.99 1.21 1.21 1.06 0.83 0.60 0.45 0.39 0.39 0.44 0.43
1.30 1.37 1.51 1.64 1.76 1.78 1.91 2.00 2.11 2.56 2.87 2.55 2.26 1.93 1.60 1.51 1.56 1.33 0.93 0.82 0.89 0.94 1.02 1.03 1.03 1.08 0.98 0.89 0.80 0.55 0.42 0.41 0.73 1.14 1.37 1.34 1.09 0.87 0.71 0.58 0.51 0.50 0.47
1.40 1.39 1.53 1.60 1.61 1.66 1.76 2.09 2.34 2.59 2.77 2.70 2.59 2.42 2.17 1.85 1.47 1.52 1.44 1.15 1.05 0.98 1.01 1.06 1.09 1.11 1.12 1.08 1.13 0.80 0.53 0.44 0.51 0.92 1.38 1.62 1.48 1.20 1.00 0.85 0.70 0.62 0.54
1.49 1.53 1.59 1.59 1.56 1.59 1.69 1.91 2.18 2.39 2.71 2.87 2.75 2.53 2.36 2.19 1.93 1.76 1.53 1.42 1.37 1.15 1.09 1.10 1.06 1.11 1.17 1.25 1.24 1.19 0.73 0.46 0.43 0.60 0.98 1.39 1.58 1.47 1.28 1.14 0.97 0.88 0.78
1.37 1.41 1.52 1.64 1.72 1.74 1.85 2.02 2.16 2.07 2.29 2.67 2.65 2.47 2.34 2.09 2.04 2.06 1.89 1.61 1.44 1.15 1.08 1.07 1.03 1.14 1.15 1.15 1.36 1.51 0.98 0.62 0.47 0.54 0.65 0.86 1.14 1.36 1.48 1.46 1.35 1.23 1.11
1.33 1.27 1.32 1.43 1.57 1.73 1.78 1.83 1.84 1.81 1.94 2.18 2.26 2.41 2.48 2.21 2.04 1.90 1.81 1.83 1.58 1.33 1.17 1.06 0.98 1.01 1.06 1.11 1.31 1.48 1.07 0.81 0.57 0.51 0.54 0.65 0.76 0.86 1.08 1.28 1.48 1.54 1.51
1.09 1.02 1.02 1.07 1.15 1.23 1.31 1.46 1.55 1.66 1.71 1.83 1.98 2.10 2.24 2.33 2.22 1.97 1.87 1.83 1.75 1.56 1.36 1.27 1.13 0.96 1.06 1.16 1.34 1.17 1.05 1.01 0.79 0.60 0.55 0.57 0.63 0.65 0.71 0.75 0.89 1.07 1.28
1.01 0.94 0.90 0.86 0.83 0.81 0.85 1.03 1.22 1.34 1.45 1.61 1.80 1.93 1.94 1.99 2.17 2.12 1.93 1.88 1.78 1.62 1.48 1.31 1.23 1.10 1.24 1.18 1.31 1.13 1.14 1.21 0.90 0.70 0.60 0.58 0.57 0.53 0.50 0.48 0.46 0.48 0.56
0.99 0.98 0.89 0.82 0.89 0.89 0.85 0.91 0.96 1.02 1.10 1.25 1.40 1.53 1.68 1.93 2.21 2.23 2.17 2.04 1.90 1.73 1.48 1.34 1.16 1.08 1.36 1.44 1.37 1.23 1.19 1.15 0.93 0.83 0.70 0.63 0.60 0.55 0.50 0.45 0.42 0.38 0.37
0.67 0.76 0.84 0.79 0.78 0.80 0.82 0.88 0.90 0.94 0.97 1.05 1.15 1.27 1.44 1.74 2.07 2.29 2.37 2.27 2.11 1.93 1.77 1.61 1.30 1.07 1.18 1.49 1.63 1.57 1.33 1.15 1.03 0.98 0.86 0.74 0.68 0.61 0.54 0.51 0.48 0.45 0.40
0.50 0.54 0.63 0.64 0.73 0.80 0.83 0.85 0.87 0.91 0.93 1.02 1.16 1.21 1.27 1.46 1.66 1.87 2.05 2.18 2.16 2.13 2.07 1.82 1.53 1.27 1.21 1.33 1.57 1.59 1.52 1.45 1.24 1.18 1.19 1.06 0.93 0.82 0.71 0.61 0.58 0.53 0.46
0.52 0.58 0.70 0.74 0.70 0.68 0.73 0.84 0.88 0.84 0.83 0.87 0.96 1.05 1.15 1.20 1.35 1.49 1.60 1.79 2.00 2.22 2.28 2.12 1.86 1.54 1.42 1.30 1.40 1.55 1.63 1.56 1.46 1.30 1.28 1.18 1.16 1.09 0.97 0.81 0.67 0.59 0.58
0.57 0.59 0.70 0.81 0.87 0.83 0.80 0.89 0.86 0.84 0.84 0.83 0.88 0.88 0.95 0.97 1.03 1.21 1.26 1.47 1.79 2.05 2.16 2.22 2.10 1.79 1.54 1.36 1.16 1.25 1.49 1.70 1.68 1.60 1.60 1.38 1.25 1.12 1.03 1.00 0.93 0.80 0.71
0.47 0.47 0.51 0.58 0.68 0.72 0.93 0.89 0.74 0.70 0.75 0.82 0.87 0.87 0.89 0.83 0.81 0.87 1.01 1.13 1.43 1.64 1.77 1.83 1.86 1.70 1.49 1.36 1.31 1.27 1.33 1.47 1.52 1.41 1.43 1.51 1.45 1.31 1.21 1.10 1.12 1.16 1.08
0.40 0.38 0.37 0.38 0.44 0.60 0.68 0.52 0.51 0.57 0.71 0.83 0.90 0.92 0.88 0.84 0.88 0.89 0.91 0.92 0.99 1.16 1.37 1.56 1.58 1.48 1.53 1.44 1.37 1.27 1.28 1.29 1.28 1.37 1.43 1.48 1.47 1.37 1.31 1.30 1.33 1.23 1.17
0.30 0.29 0.37 0.44 0.46 0.48 0.54 0.44 0.43 0.54 0.73 0.87 0.87 0.83 0.89 0.91 0.93 1.00 0.93 1.00 0.95 0.93 1.02 1.07 1.20 1.39 1.53 1.68 1.65 1.54 1.55 1.49 1.41 1.49 1.49 1.44 1.35 1.27 1.19 1.17 1.23 1.11 1.03
0.34 0.37 0.49 0.56 0.50 0.42 0.46 0.48 0.53 0.68 0.81 0.89 0.86 0.85 0.93 0.97 1.10 1.15 1.05 1.10 1.06 1.02 0.99 1.10 1.19 1.28 1.36 1.48 1.61 1.62 1.59 1.56 1.44 1.38 1.38 1.31 1.21 1.22 1.20 1.09 1.03 1.02 0.93
0.31 0.39 0.41 0.38 0.38 0.44 0.51 0.50 0.63 0.81 0.93 1.03 0.99 0.98 1.17 1.12 1.09 1.04 1.02 1.16 1.13 0.98 0.91 0.96 1.01 1.07 1.10 1.20 1.32 1.35 1.46 1.52 1.43 1.30 1.15 1.11 1.12 1.14 1.17 1.08 0.97 0.90 0.86

GEFSMA_prec_meanprecacc_144.txt.gz
Total_Precipitation_Accumulation
0.87 0.84 0.77 0.77 0.71 0.77 0.87 0.94 0.89 0.80 0.73 0.67 0.63 0.68 0.71 0.75 0.79 0.84 0.90 0.84 0.92 1.11 1.25 1.25 1.08 0.91 0.86 0.90 0.91 0.88 0.97 1.03 1.00 1.06 1.05 0.94 0.78 0.63 0.51 0.51 0.53 0.50 0.54
0.94 0.90 0.85 0.86 0.83 0.84 0.96 0.94 0.85 0.88 0.86 0.75 0.64 0.64 0.70 0.77 0.83 0.79 0.82 0.91 0.91 0.93 1.17 1.37 1.37 1.13 1.08 1.01 1.03 1.03 1.08 1.05 0.96 0.97 0.97 0.93 0.83 0.72 0.59 0.53 0.54 0.50 0.50
0.83 0.86 0.87 0.87 0.91 0.99 1.04 1.06 0.90 0.89 0.83 0.74 0.68 0.64 0.62 0.65 0.69 0.74 0.72 0.69 0.75 0.83 1.01 1.31 1.49 1.35 1.27 1.22 1.13 1.10 1.15 1.08 0.97 0.92 0.87 0.78 0.74 0.68 0.61 0.59 0.58 0.58 0.57
0.77 0.90 0.90 0.88 0.91 1.03 1.11 1.14 1.04 0.97 0.89 0.84 0.81 0.74 0.67 0.68 0.66 0.74 0.73 0.64 0.74 0.71 0.85 0.96 1.14 1.27 1.29 1.29 1.26 1.17 1.09 0.96 0.84 0.87 0.82 0.69 0.61 0.54 0.52 0.57 0.59 0.61 0.61
0.83 1.00 1.10 1.11 1.11 1.12 1.10 1.06 1.10 1.06 1.00 0.98 0.93 0.89 0.80 0.72 0.74 0.71 0.73 0.73 0.68 0.72 0.81 0.64 0.69 0.78 0.98 1.15 1.27 1.31 1.16 0.98 0.83 0.84 0.85 0.65 0.50 0.45 0.42 0.53 0.54 0.53 0.55
1.18 1.32 1.32 1.39 1.46 1.33 1.27 1.21 1.22 1.16 1.07 1.09 1.03 0.92 0.83 0.73 0.78 0.83 0.82 0.80 0.75 0.70 0.79 0.68 0.60 0.52 0.62 0.86 1.11 1.33 1.29 1.13 0.93 0.83 0.83 0.68 0.50 0.40 0.38 0.44 0.49 0.46 0.48
1.52 1.72 1.69 1.73 1.75 1.61 1.56 1.62 1.80 1.74 1.47 1.24 1.25 1.07 0.89 0.74 0.82 0.86 0.83 0.85 0.83 0.90 0.97 0.87 0.69 0.62 0.52 0.55 0.67 1.01 1.25 1.20 1.12 0.97 0.91 0.81 0.60 0.41 0.36 0.37 0.44 0.44 0.44
1.44 1.57 1.82 1.91 1.83 1.84 1.95 1.98 2.28 2.41 1.98 1.57 1.55 1.62 1.35 1.15 0.86 0.73 0.77 0.78 0.86 1.05 1.07 0.90 0.78 0.67 0.59 0.60 0.43 0.56 0.88 1.12 1.21 1.17 1.08 0.95 0.75 0.52 0.38 0.34 0.40 0.45 0.47
1.41 1.51 1.66 1.82 1.82 1.89 1.97 2.08 2.40 2.83 2.58 2.07 1.84 2.00 1.69 1.48 1.29 0.90 0.72 0.74 0.85 1.03 1.15 1.09 1.01 0.89 0.74 0.76 0.66 0.48 0.49 0.69 1.07 1.32 1.31 1.15 0.92 0.66 0.48 0.42 0.42 0.49 0.50
1.30 1.37 1.51 1.64 1.76 1.78 1.91 2.01 2.12 2.57 2.87 2.56 2.26 1.93 1.60 1.52 1.57 1.35 0.95 0.85 0.91 0.96 1.04 1.05 1.05 1.12 1.01 0.93 0.84 0.57 0.45 0.45 0.78 1.22 1.47 1.44 1.18 0.94 0.76 0.62 0.55 0.54 0.55
1.40 1.39 1.53 1.60 1.61 1.66 1.76 2.09 2.35 2.60 2.77 2.70 2.59 2.42 2.18 1.86 1.47 1.53 1.47 1.18 1.07 0.99 1.02 1.07 1.11 1.14 1.14 1.11 1.17 0.83 0.55 0.48 0.55 0.95 1.43 1.70 1.56 1.27 1.07 0.91 0.76 0.68 0.63
1.49 1.53 1.59 1.59 1.56 1.59 1.69 1.91 2.19 2.40 2.71 2.87 2.75 2.53 2.37 2.20 1.94 1.77 1.56 1.45 1.39 1.16 1.10 1.11 1.07 1.13 1.21 1.29 1.27 1.21 0.76 0.49 0.45 0.61 1.00 1.42 1.64 1.54 1.35 1.22 1.05 0.94 0.85
1.37 1.41 1.52 1.64 1.72 1.74 1.85 2.02 2.16 2.07 2.30 2.67 2.65 2.48 2.34 2.09 2.04 2.07 1.90 1.62 1.45 1.15 1.08 1.07 1.04 1.15 1.18 1.20 1.39 1.54 1.00 0.64 0.49 0.55 0.66 0.88 1.16 1.41 1.55 1.54 1.44 1.32 1.20
1.33 1.27 1.32 1.43 1.57 1.73 1.78 1.83 1.84 1.81 1.94 2.18 2.26 2.41 2.48 2.21 2.04 1.91 1.82 1.84 1.59 1.34 1.18 1.07 0.99 1.02 1.08 1.14 1.35 1.51 1.09 0.83 0.58 0.52 0.55 0.65 0.77 0.89 1.12 1.33 1.54 1.62 1.59
1.10 1.02 1.02 1.07 1.15 1.23 1.31 1.46 1.55 1.66 1.71 1.83 1.98 2.10 2.24 2.33 2.22 1.97 1.88 1.83 1.77 1.58 1.38 1.27 1.14 0.97 1.08 1.18 1.38 1.21 1.08 1.03 0.80 0.62 0.56 0.58 0.64 0.67 0.74 0.78 0.92 1.12 1.35
1.01 0.94 0.90 0.86 0.83 0.81 0.85 1.03 1.22 1.34 1.45 1.61 1.80 1.93 1.94 1.99 2.17 2.12 1.93 1.90 1.79 1.63 1.50 1.33 1.24 1.11 1.26 1.20 1.34 1.16 1.18 1.25 0.92 0.71 0.61 0.60 0.58 0.53 0.52 0.51 0.49 0.52 0.60
1.00 0.98 0.89 0.82 0.89 0.89 0.85 0.91 0.96 1.02 1.10 1.25 1.40 1.53 1.68 1.93 2.21 2.23 2.18 2.05 1.91 1.74 1.50 1.36 1.16 1.09 1.37 1.46 1.38 1.24 1.22 1.20 0.97 0.85 0.70 0.64 0.61 0.56 0.51 0.46 0.44 0.40 0.40
0.67 0.76 0.84 0.79 0.78 0.80 0.82 0.88 0.90 0.94 0.97 1.05 1.15 1.27 1.44 1.74 2.07 2.29 2.37 2.27 2.11 1.94 1.78 1.63 1.31 1.07 1.19 1.51 1.64 1.58 1.35 1.18 1.06 1.00 0.87 0.75 0.69 0.62 0.56 0.53 0.50 0.47 0.43
0.50 0.54 0.63 0.64 0.73 0.80 0.83 0.85 0.87 0.91 0.93 1.02 1.16 1.21 1.27 1.47 1.66 1.87 2.06 2.18 2.16 2.13 2.08 1.84 1.54 1.28 1.22 1.34 1.58 1.61 1.53 1.48 1.27 1.20 1.20 1.07 0.93 0.83 0.72 0.62 0.59 0.54 0.48
0.52 0.58 0.70 0.74 0.70 0.68 0.73 0.84 0.88 0.84 0.83 0.87 0.96 1.05 1.15 1.20 1.35 1.49 1.60 1.79 2.00 2.22 2.29 2.13 1.87 1.55 1.43 1.31 1.41 1.57 1.65 1.59 1.49 1.32 1.28 1.19 1.17 1.10 0.98 0.82 0.68 0.60 0.59
0.57 0.59 0.70 0.81 0.87 0.83 0.80 0.89 0.86 0.84 0.84 0.83 0.88 0.88 0.95 0.97 1.03 1.21 1.26 1.48 1.80 2.06 2.16 2.23 2.11 1.80 1.54 1.37 1.17 1.26 1.51 1.72 1.71 1.62 1.62 1.39 1.26 1.12 1.05 1.01 0.94 0.81 0.71
0.47 0.47 0.51 0.58 0.68 0.72 0.93 0.89 0.74 0.70 0.75 0.82 0.87 0.87 0.89 0.83 0.81 0.87 1.01 1.13 1.43 1.64 1.77 1.84 1.87 1.71 1.50 1.37 1.32 1.28 1.35 1.49 1.54 1.42 1.45 1.53 1.47 1.33 1.22 1.10 1.13 1.17 1.08
0.40 0.38 0.37 0.38 0.44 0.60 0.68 0.52 0.51 0.57 0.71 0.83 0.90 0.92 0.89 0.84 0.88 0.89 0.91 0.92 0.99 1.17 1.38 1.57 1.59 1.50 1.55 1.46 1.38 1.28 1.30 1.31 1.30 1.39 1.45 1.50 1.49 1.39 1.32 1.31 1.34 1.24 1.18
0.30 0.29 0.37 0.44 0.46 0.48 0.54 0.44 0.43 0.54 0.73 0.87 0.87 0.83 0.89 0.91 0.94 1.00 0.93 1.00 0.95 0.93 1.02 1.07 1.20 1.40 1.55 1.70 1.67 1.56 1.57 1.52 1.43 1.52 1.52 1.47 1.37 1.29 1.20 1.18 1.24 1.12 1.04
0.34 0.37 0.49 0.56 0.50 0.42 0.46 0.48 0.53 0.68 0.81 0.89 0.86 0.85 0.93 0.97 1.10 1.15 1.06 1.11 1.06 1.03 1.00 1.11 1.20 1.29 1.38 1.49 1.64 1.66 1.62 1.58 1.46 1.40 1.41 1.34 1.24 1.25 1.23 1.11 1.05 1.03 0.94
0.31 0.39 0.41 0.38 0.38 0.44 0.51 0.50 0.63 0.81 0.93 1.03 0.99 0.99 1.17 1.12 1.09 1.05 1.03 1.17 1.14 0.98 0.91 0.96 1.01 1.09 1.12 1.21 1.34 1.38 1.49 1.55 1.46 1.33 1.17 1.15 1.16 1.18 1.22 1.11 0.99 0.92 0.88

GEFSMA_prec_meanprecacc_150.txt.gz
Total_Precipitation_Accumulation
0.89 0.86 0.78 0.77 0.71 0.77 0.87 0.94 0.89 0.81 0.74 0.68 0.64 0.68 0.71 0.76 0.80 0.85 0.92 0.86 0.93 1.13 1.29 1.29 1.12 0.95 0.92 0.98 0.97 0.94 1.02 1.08 1.07 1.15 1.22 1.23 1.13 0.95 0.81 0.75 0.70 0.61 0.64
0.94 0.90 0.85 0.86 0.83 0.84 0.96 0.94 0.86 0.89 0.87 0.77 0.66 0.65 0.71 0.78 0.84 0.80 0.84 0.93 0.93 0.95 1.21 1.41 1.42 1.18 1.13 1.07 1.08 1.09 1.14 1.10 1.04 1.07 1.13 1.16 1.10 0.97 0.80 0.69 0.69 0.62 0.60
0.84 0.87 0.87 0.87 0.91 0.99 1.04 1.06 0.90 0.90 0.84 0.75 0.70 0.65 0.63 0.66 0.70 0.75 0.73 0.72 0.80 0.86 1.04 1.35 1.54 1.41 1.32 1.27 1.17 1.15 1.21 1.13 1.03 1.00 1.00 0.97 0.93 0.86 0.76 0.72 0.72 0.71 0.68
0.77 0.90 0.91 0.88 0.91 1.03 1.11 1.14 1.05 0.99 0.91 0.86 0.83 0.76 0.69 0.70 0.68 0.75 0.75 0.67 0.79 0.75 0.87 0.99 1.17 1.31 1.35 1.35 1.30 1.23 1.22 1.03 0.91 0.94 0.92 0.84 0.77 0.70 0.65 0.72 0.71 0.73 0.72
0.84 1.01 1.10 1.11 1.11 1.12 1.11 1.06 1.11 1.08 1.04 1.02 0.95 0.91 0.81 0.74 0.76 0.73 0.75 0.77 0.72 0.77 0.84 0.66 0.71 0.80 1.02 1.21 1.31 1.41 1.36 1.08 0.91 0.93 0.95 0.78 0.62 0.59 0.59 0.67 0.67 0.66 0.65
1.19 1.32 1.32 1.40 1.46 1.33 1.28 1.22 1.23 1.18 1.10 1.13 1.05 0.93 0.85 0.74 0.80 0.85 0.85 0.84 0.81 0.76 0.83 0.71 0.63 0.55 0.66 0.91 1.16 1.43 1.56 1.30 1.03 0.94 0.97 0.83 0.60 0.49 0.52 0.60 0.65 0.59 0.58
1.52 1.72 1.69 1.73 1.76 1.62 1.57 1.63 1.82 1.76 1.48 1.25 1.28 1.10 0.91 0.75 0.84 0.88 0.86 0.89 0.90 0.97 1.03 0.91 0.74 0.67 0.56 0.59 0.72 1.12 1.58 1.40 1.22 1.06 1.02 0.94 0.70 0.49 0.44 0.49 0.59 0.59 0.55
1.44 1.57 1.83 1.92 1.84 1.85 1.96 1.99 2.29 2.43 2.00 1.57 1.57 1.66 1.39 1.18 0.90 0.75 0.80 0.83 0.91 1.11 1.13 0.94 0.82 0.71 0.64 0.66 0.46 0.66 1.09 1.24 1.28 1.26 1.16 1.05 0.86 0.60 0.46 0.43 0.49 0.59 0.57
1.41 1.51 1.66 1.82 1.83 1.89 1.98 2.09 2.40 2.85 2.60 2.08 1.84 2.02 1.72 1.52 1.32 0.95 0.76 0.79 0.90 1.09 1.20 1.14 1.05 0.94 0.78 0.81 0.71 0.56 0.58 0.73 1.12 1.41 1.39 1.23 1.01 0.74 0.55 0.50 0.50 0.60 0.58
1.30 1.37 1.51 1.64 1.76 1.78 1.92 2.02 2.12 2.57 2.88 2.57 2.27 1.94 1.61 1.54 1.61 1.40 1.01 0.90 0.95 1.02 1.11 1.09 1.08 1.16 1.06 0.98 0.89 0.63 0.50 0.47 0.82 1.28 1.54 1.51 1.25 1.01 0.82 0.68 0.61 0.69 0.67
1.40 1.39 1.53 1.60 1.61 1.67 1.77 2.10 2.35 2.60 2.78 2.71 2.60 2.43 2.18 1.87 1.50 1.57 1.51 1.24 1.12 1.04 1.06 1.11 1.14 1.17 1.16 1.14 1.21 0.87 0.59 0.50 0.57 0.98 1.49 1.77 1.63 1.35 1.13 0.96 0.82 0.83 0.86
1.49 1.53 1.59 1.59 1.56 1.59 1.70 1.92 2.20 2.41 2.72 2.88 2.76 2.54 2.38 2.21 1.96 1.80 1.60 1.49 1.43 1.20 1.13 1.14 1.10 1.15 1.23 1.32 1.30 1.24 0.79 0.51 0.47 0.64 1.03 1.47 1.70 1.61 1.42 1.28 1.11 1.04 1.04
1.38 1.41 1.52 1.64 1.72 1.74 1.85 2.03 2.17 2.08 2.30 2.67 2.65 2.49 2.35 2.10 2.06 2.11 1.94 1.66 1.49 1.19 1.12 1.11 1.06 1.17 1.20 1.22 1.41 1.58 1.03 0.66 0.51 0.57 0.69 0.91 1.21 1.47 1.61 1.60 1.50 1.40 1.31
1.34 1.27 1.32 1.43 1.57 1.73 1.78 1.83 1.84 1.81 1.94 2.18 2.26 2.41 2.49 2.22 2.05 1.93 1.85 1.87 1.63 1.39 1.22 1.10 1.02 1.05 1.10 1.15 1.37 1.54 1.11 0.86 0.62 0.55 0.56 0.67 0.80 0.93 1.17 1.38 1.59 1.67 1.65
1.10 1.02 1.03 1.07 1.15 1.23 1.31 1.46 1.55 1.66 1.71 1.83 1.98 2.10 2.24 2.33 2.23 1.98 1.89 1.86 1.80 1.63 1.41 1.29 1.16 0.99 1.11 1.20 1.40 1.24 1.11 1.06 0.83 0.64 0.58 0.60 0.65 0.69 0.76 0.81 0.96 1.15 1.38
1.02 0.95 0.90 0.86 0.83 0.81 0.85 1.03 1.22 1.34 1.45 1.61 1.80 1.93 1.94 1.99 2.17 2.12 1.94 1.91 1.81 1.67 1.53 1.35 1.26 1.13 1.28 1.21 1.35 1.18 1.20 1.27 0.94 0.72 0.63 0.61 0.59 0.54 0.53 0.52 0.50 0.54 0.63
1.01 0.99 0.90 0.83 0.90 0.89 0.85 0.91 0.96 1.02 1.10 1.25 1.40 1.53 1.68 1.93 2.21 2.23 2.18 2.06 1.92 1.76 1.52 1.38 1.18 1.10 1.39 1.48 1.39 1.26 1.23 1.22 0.99 0.86 0.71 0.65 0.62 0.57 0.52 0.47 0.45 0.41 0.42
0.68 0.77 0.85 0.80 0.78 0.80 0.82 0.88 0.90 0.94 0.97 1.05 1.15 1.27 1.44 1.74 2.07 2.29 2.37 2.27 2.12 1.96 1.80 1.65 1.32 1.08 1.19 1.53 1.66 1.59 1.36 1.20 1.08 1.02 0.88 0.75 0.70 0.63 0.57 0.54 0.52 0.48 0.44
0.52 0.56 0.65 0.65 0.73 0.80 0.83 0.85 0.87 0.91 0.93 1.02 1.16 1.21 1.27 1.47 1.66 1.87 2.06 2.18 2.17 2.14 2.09 1.85 1.55 1.29 1.22 1.35 1.60 1.62 1.55 1.50 1.29 1.22 1.21 1.08 0.94 0.84 0.73 0.63 0.61 0.56 0.49
0.54 0.59 0.71 0.75 0.70 0.68 0.73 0.84 0.88 0.84 0.83 0.87 0.96 1.05 1.15 1.20 1.35 1.50 1.60 1.79 2.00 2.23 2.29 2.14 1.88 1.56 1.44 1.32 1.43 1.58 1.66 1.61 1.52 1.34 1.30 1.20 1.18 1.11 0.99 0.83 0.69 0.61 0.59
0.59 0.61 0.71 0.81 0.87 0.83 0.80 0.89 0.86 0.84 0.84 0.83 0.88 0.88 0.95 0.97 1.03 1.22 1.26 1.48 1.80 2.06 2.17 2.23 2.11 1.81 1.55 1.37 1.17 1.27 1.52 1.74 1.74 1.65 1.65 1.42 1.29 1.15 1.07 1.02 0.95 0.82 0.72
0.48 0.47 0.51 0.58 0.68 0.72 0.93 0.89 0.74 0.70 0.75 0.82 0.87 0.87 0.89 0.83 0.81 0.87 1.01 1.14 1.43 1.64 1.77 1.84 1.87 1.72 1.51 1.37 1.33 1.29 1.36 1.50 1.55 1.44 1.47 1.55 1.50 1.36 1.26 1.13 1.15 1.18 1.09
0.40 0.38 0.37 0.38 0.44 0.60 0.68 0.52 0.51 0.57 0.71 0.83 0.90 0.92 0.89 0.84 0.88 0.89 0.91 0.92 0.99 1.17 1.38 1.57 1.60 1.50 1.56 1.47 1.39 1.29 1.31 1.32 1.31 1.40 1.46 1.52 1.51 1.42 1.35 1.34 1.36 1.26 1.20
0.30 0.29 0.37 0.44 0.46 0.48 0.54 0.44 0.43 0.54 0.73 0.87 0.87 0.83 0.89 0.91 0.94 1.00 0.93 1.00 0.95 0.94 1.02 1.07 1.21 1.41 1.55 1.71 1.69 1.58 1.59 1.53 1.44 1.52 1.53 1.48 1.39 1.32 1.23 1.21 1.27 1.14 1.06
0.34 0.37 0.49 0.56 0.50 0.42 0.46 0.48 0.53 0.68 0.81 0.89 0.86 0.85 0.93 0.97 1.10 1.15 1.06 1.11 1.07 1.03 1.00 1.11 1.20 1.30 1.38 1.50 1.65 1.69 1.64 1.60 1.47 1.41 1.42 1.36 1.25 1.27 1.26 1.15 1.08 1.06 0.96
0.31 0.39 0.41 0.38 0.38 0.44 0.51 0.50 0.63 0.81 0.93 1.03 0.99 0.99 1.17 1.12 1.10 1.05 1.03 1.17 1.14 0.99 0.92 0.96 1.01 1.09 1.12 1.22 1.35 1.39 1.51 1.57 1.48 1.35 1.19 1.17 1.17 1.21 1.25 1.15 1.03 0.96 0.91

GEFSMA_prec_meanprecacc_156.txt.gz
Total_Precipitation_Accumulation
0.89 0.86 0.78 0.77 0.71 0.77 0.87 0.94 0.90 0.81 0.75 0.69 0.66 0.70 0.73 0.77 0.80 0.86 0.93 0.88 0.96 1.18 1.34 1.35 1.19 1.03 1.00 1.05 1.03 0.99 1.06 1.12 1.12 1.20 1.30 1.33 1.29 1.15 1.00 0.95 0.83 0.74 0.80
0.94 0.90 0.85 0.86 0.83 0.84 0.96 0.94 0.86 0.89 0.88 0.78 0.67 0.66 0.72 0.79 0.85 0.81 0.85 0.95 0.96 0.99 1.25 1.45 1.46 1.24 1.19 1.15 1.15 1.16 1.19 1.15 1.09 1.12 1.21 1.27 1.31 1.15 0.97 0.86 0.79 0.74 0.75
0.84 0.87 0.87 0.87 0.91 1.00 1.04 1.07 0.90 0.91 0.86 0.77 0.71 0.66 0.64 0.67 0.72 0.77 0.74 0.73 0.81 0.89 1.08 1.39 1.59 1.47 1.37 1.32 1.23 1.21 1.27 1.18 1.08 1.07 1.11 1.10 1.17 1.14 1.04 0.99 0.87 0.84 0.80
0.77 0.90 0.91 0.88 0.91 1.03 1.11 1.15 1.05 1.00 0.92 0.88 0.85 0.77 0.70 0.71 0.69 0.77 0.77 0.69 0.80 0.77 0.90 1.03 1.22 1.36 1.42 1.41 1.34 1.27 1.28 1.09 0.97 1.01 1.04 0.99 1.02 1.05 0.95 1.00 0.90 0.84 0.79
0.84 1.01 1.10 1.11 1.11 1.12 1.11 1.06 1.11 1.09 1.06 1.04 0.97 0.92 0.83 0.75 0.79 0.74 0.77 0.78 0.74 0.78 0.85 0.68 0.73 0.84 1.08 1.28 1.36 1.46 1.42 1.15 0.97 0.99 1.08 0.92 0.85 0.91 0.86 0.91 0.81 0.74 0.70
1.19 1.32 1.32 1.40 1.46 1.34 1.29 1.23 1.23 1.18 1.12 1.14 1.05 0.94 0.86 0.76 0.83 0.87 0.86 0.87 0.82 0.77 0.83 0.72 0.65 0.57 0.69 0.96 1.22 1.50 1.64 1.38 1.11 1.02 1.10 0.97 0.81 0.80 0.79 0.83 0.78 0.66 0.64
1.52 1.72 1.69 1.73 1.76 1.63 1.58 1.64 1.82 1.77 1.50 1.27 1.28 1.11 0.93 0.77 0.87 0.90 0.88 0.91 0.93 1.00 1.05 0.93 0.75 0.68 0.58 0.61 0.75 1.18 1.69 1.52 1.32 1.16 1.13 1.07 0.87 0.73 0.66 0.67 0.73 0.67 0.62
1.44 1.57 1.83 1.92 1.84 1.85 1.97 1.99 2.30 2.43 2.01 1.59 1.57 1.67 1.40 1.19 0.93 0.78 0.83 0.86 0.94 1.14 1.17 0.97 0.85 0.73 0.65 0.68 0.48 0.70 1.27 1.40 1.38 1.36 1.27 1.18 1.00 0.78 0.67 0.58 0.59 0.67 0.66
1.41 1.51 1.66 1.82 1.83 1.89 1.98 2.09 2.41 2.85 2.61 2.08 1.85 2.02 1.72 1.53 1.34 0.97 0.81 0.83 0.94 1.13 1.24 1.16 1.08 0.97 0.81 0.83 0.72 0.62 0.75 0.87 1.19 1.50 1.49 1.35 1.16 0.88 0.71 0.66 0.59 0.68 0.69
1.30 1.37 1.51 1.65 1.77 1.79 1.92 2.02 2.13 2.58 2.89 2.57 2.27 1.94 1.61 1.54 1.62 1.42 1.05 0.95 1.00 1.06 1.14 1.11 1.10 1.18 1.09 1.00 0.90 0.70 0.65 0.59 0.88 1.36 1.65 1.62 1.39 1.17 0.96 0.83 0.73 0.77 0.77
1.40 1.39 1.53 1.60 1.62 1.68 1.78 2.11 2.36 2.60 2.78 2.71 2.61 2.43 2.18 1.88 1.51 1.60 1.54 1.28 1.16 1.09 1.10 1.13 1.15 1.18 1.17 1.15 1.22 0.93 0.68 0.59 0.62 1.04 1.56 1.86 1.74 1.48 1.27 1.10 0.94 0.93 0.97
1.49 1.54 1.59 1.60 1.57 1.60 1.71 1.93 2.21 2.41 2.72 2.89 2.77 2.55 2.39 2.23 1.99 1.84 1.62 1.52 1.47 1.23 1.17 1.17 1.13 1.17 1.24 1.32 1.32 1.29 0.85 0.58 0.51 0.68 1.08 1.53 1.78 1.72 1.55 1.39 1.21 1.15 1.19
1.38 1.42 1.53 1.65 1.72 1.75 1.86 2.03 2.18 2.09 2.30 2.67 2.65 2.49 2.37 2.14 2.09 2.13 1.96 1.67 1.52 1.22 1.15 1.13 1.08 1.19 1.21 1.22 1.43 1.62 1.06 0.69 0.53 0.60 0.71 0.94 1.25 1.54 1.73 1.73 1.58 1.48 1.45
1.34 1.28 1.33 1.44 1.58 1.74 1.78 1.83 1.85 1.82 1.94 2.18 2.26 2.42 2.50 2.24 2.07 1.95 1.87 1.88 1.64 1.41 1.24 1.12 1.04 1.06 1.11 1.16 1.38 1.56 1.13 0.87 0.63 0.56 0.58 0.69 0.82 0.97 1.23 1.48 1.70 1.75 1.75
1.11 1.03 1.04 1.08 1.16 1.24 1.31 1.47 1.56 1.66 1.71 1.83 1.98 2.10 2.25 2.33 2.23 1.99 1.90 1.86 1.82 1.64 1.43 1.32 1.18 1.01 1.11 1.21 1.41 1.24 1.12 1.07 0.84 0.65 0.59 0.61 0.66 0.70 0.79 0.86 1.02 1.23 1.46
1.02 0.96 0.92 0.87 0.84 0.82 0.86 1.04 1.23 1.34 1.45 1.61 1.80 1.93 1.94 2.00 2.17 2.13 1.95 1.91 1.81 1.68 1.54 1.37 1.28 1.14 1.30 1.21 1.35 1.18 1.21 1.28 0.95 0.73 0.63 0.62 0.60 0.56 0.54 0.55 0.54 0.59 0.68
1.01 1.00 0.91 0.84 0.91 0.91 0.86 0.91 0.97 1.03 1.10 1.25 1.40 1.53 1.68 1.93 2.21 2.23 2.18 2.06 1.92 1.76 1.52 1.39 1.18 1.11 1.40 1.49 1.40 1.26 1.24 1.22 1.00 0.86 0.71 0.65 0.63 0.58 0.54 0.49 0.47 0.45 0.46
0.68 0.78 0.86 0.81 0.80 0.82 0.84 0.89 0.91 0.95 0.97 1.05 1.15 1.27 1.44 1.74 2.07 2.29 2.37 2.27 2.12 1.96 1.80 1.65 1.32 1.08 1.20 1.53 1.67 1.60 1.37 1.20 1.09 1.02 0.88 0.76 0.70 0.64 0.58 0.56 0.54 0.50 0.46
0.52 0.56 0.66 0.67 0.75 0.82 0.84 0.86 0.88 0.91 0.93 1.02 1.16 1.21 1.27 1.47 1.66 1.87 2.06 2.18 2.17 2.14 2.09 1.85 1.55 1.29 1.22 1.36 1.61 1.64 1.55 1.50 1.29 1.22 1.21 1.08 0.95 0.84 0.74 0.64 0.62 0.58 0.51
0.54 0.61 0.73 0.77 0.72 0.70 0.74 0.85 0.89 0.84 0.83 0.87 0.96 1.05 1.15 1.20 1.35 1.50 1.60 1.79 2.00 2.23 2.29 2.14 1.88 1.56 1.44 1.33 1.44 1.60 1.67 1.62 1.53 1.34 1.30 1.20 1.18 1.12 1.00 0.84 0.70 0.63 0.61
0.61 0.63 0.72 0.83 0.89 0.84 0.81 0.90 0.87 0.84 0.84 0.83 0.88 0.88 0.95 0.97 1.03 1.22 1.26 1.48 1.80 2.06 2.17 2.23 2.11 1.81 1.55 1.37 1.17 1.28 1.54 1.75 1.75 1.65 1.65 1.42 1.29 1.16 1.07 1.03 0.95 0.83 0.73
0.50 0.49 0.53 0.59 0.69 0.73 0.93 0.89 0.74 0.70 0.75 0.82 0.87 0.87 0.89 0.83 0.81 0.88 1.01 1.14 1.43 1.64 1.77 1.84 1.87 1.72 1.51 1.37 1.33 1.30 1.37 1.51 1.56 1.44 1.47 1.55 1.50 1.36 1.26 1.14 1.15 1.19 1.10
0.42 0.39 0.38 0.38 0.45 0.60 0.68 0.53 0.51 0.57 0.71 0.83 0.90 0.92 0.89 0.84 0.88 0.89 0.91 0.92 0.99 1.17 1.38 1.57 1.60 1.50 1.56 1.47 1.39 1.29 1.31 1.33 1.31 1.41 1.46 1.52 1.51 1.42 1.35 1.34 1.37 1.27 1.21
0.31 0.30 0.38 0.45 0.46 0.48 0.54 0.44 0.43 0.54 0.73 0.87 0.87 0.83 0.89 0.91 0.94 1.00 0.93 1.00 0.95 0.94 1.02 1.07 1.21 1.41 1.55 1.72 1.69 1.58 1.59 1.53 1.44 1.53 1.54 1.49 1.39 1.32 1.23 1.21 1.27 1.15 1.07
0.34 0.38 0.49 0.56 0.50 0.42 0.47 0.48 0.53 0.68 0.81 0.89 0.86 0.85 0.93 0.97 1.10 1.15 1.06 1.11 1.07 1.03 1.00 1.11 1.20 1.30 1.38 1.50 1.65 1.69 1.65 1.61 1.48 1.41 1.42 1.36 1.26 1.28 1.27 1.15 1.08 1.08 0.98
0.31 0.39 0.41 0.38 0.38 0.44 0.51 0.50 0.63 0.81 0.93 1.03 0.99 0.99 1.17 1.12 1.10 1.05 1.03 1.17 1.14 0.99 0.92 0.96 1.01 1.09 1.12 1.22 1.35 1.39 1.52 1.58 1.50 1.36 1.19 1.17 1.18 1.21 1.26 1.15 1.04 0.97 0.92

GEFSMA_prec_meanprecacc_162.txt.gz
Total_Precipitation_Accumulation
0.89 0.86 0.78 0.77 0.71 0.77 0.87 0.94 0.90 0.81 0.75 0.70 0.67 0.70 0.74 0.78 0.81 0.86 0.94 0.92 1.03 1.28 1.46 1.47 1.32 1.14 1.08 1.11 1.11 1.10 1.14 1.19 1.20 1.28 1.38 1.41 1.34 1.20 1.07 1.01 0.88 0.79 0.86
0.94 0.90 0.85 0.86 0.83 0.84 0.96 0.94 0.86 0.91 0.88 0.79 0.68 0.66 0.72 0.79 0.85 0.81 0.86 0.98 1.01 1.05 1.34 1.57 1.60 1.40 1.32 1.22 1.23 1.23 1.26 1.22 1.18 1.22 1.30 1.37 1.39 1.23 1.06 0.95 0.87 0.81 0.82
0.84 0.87 0.87 0.87 0.91 1.00 1.05 1.07 0.91 0.91 0.86 0.78 0.72 0.67 0.65 0.68 0.73 0.77 0.75 0.75 0.83 0.92 1.12 1.45 1.69 1.59 1.49 1.41 1.32 1.29 1.35 1.25 1.17 1.16 1.20 1.19 1.25 1.23 1.13 1.10 0.98 0.93 0.92
0.77 0.90 0.91 0.88 0.91 1.03 1.11 1.15 1.06 1.00 0.93 0.88 0.85 0.77 0.71 0.72 0.71 0.77 0.77 0.69 0.81 0.77 0.91 1.06 1.27 1.43 1.50 1.50 1.42 1.35 1.35 1.16 1.04 1.09 1.12 1.06 1.11 1.16 1.05 1.14 1.05 0.99 0.96
0.84 1.01 1.10 1.11 1.11 1.13 1.11 1.06 1.11 1.09 1.06 1.04 0.97 0.93 0.83 0.76 0.80 0.75 0.77 0.79 0.74 0.78 0.85 0.69 0.76 0.88 1.16 1.36 1.46 1.54 1.49 1.21 1.04 1.07 1.17 1.00 0.98 1.11 1.00 1.03 1.02 0.93 0.89
1.19 1.32 1.32 1.40 1.46 1.34 1.29 1.23 1.23 1.19 1.13 1.15 1.06 0.95 0.87 0.77 0.85 0.89 0.87 0.87 0.83 0.77 0.84 0.72 0.66 0.59 0.73 1.01 1.29 1.59 1.73 1.46 1.19 1.11 1.21 1.09 0.96 1.04 0.96 0.97 1.02 0.86 0.80
1.52 1.72 1.69 1.73 1.76 1.63 1.58 1.64 1.82 1.77 1.51 1.28 1.29 1.12 0.94 0.78 0.90 0.94 0.92 0.94 0.94 1.01 1.06 0.93 0.76 0.70 0.60 0.64 0.79 1.24 1.78 1.63 1.43 1.27 1.26 1.19 0.99 0.94 0.88 0.89 1.01 0.89 0.76
1.44 1.57 1.83 1.92 1.84 1.85 1.97 1.99 2.30 2.43 2.01 1.59 1.58 1.69 1.42 1.20 0.95 0.81 0.87 0.90 0.98 1.17 1.18 0.98 0.86 0.74 0.68 0.70 0.49 0.73 1.31 1.48 1.49 1.49 1.41 1.30 1.14 0.97 0.91 0.84 0.86 0.90 0.79
1.41 1.51 1.67 1.82 1.83 1.89 1.98 2.10 2.41 2.85 2.61 2.09 1.85 2.03 1.72 1.53 1.35 0.99 0.84 0.87 0.97 1.16 1.26 1.18 1.10 0.99 0.83 0.84 0.73 0.64 0.78 0.91 1.26 1.60 1.63 1.47 1.32 1.08 0.94 0.94 0.84 0.92 0.84
1.30 1.37 1.51 1.65 1.77 1.79 1.92 2.02 2.13 2.58 2.89 2.58 2.28 1.95 1.62 1.55 1.64 1.44 1.07 0.97 1.01 1.08 1.17 1.13 1.12 1.20 1.10 1.01 0.91 0.73 0.68 0.62 0.93 1.44 1.76 1.74 1.54 1.34 1.18 1.11 0.98 0.98 0.93
1.40 1.39 1.53 1.61 1.63 1.68 1.78 2.11 2.36 2.61 2.79 2.72 2.61 2.44 2.19 1.88 1.53 1.63 1.56 1.28 1.16 1.10 1.12 1.16 1.17 1.19 1.18 1.16 1.23 0.95 0.72 0.62 0.67 1.09 1.65 1.97 1.88 1.68 1.46 1.29 1.13 1.12 1.11
1.49 1.54 1.60 1.60 1.58 1.61 1.72 1.94 2.21 2.42 2.73 2.89 2.77 2.55 2.40 2.25 2.01 1.87 1.65 1.54 1.48 1.25 1.19 1.21 1.15 1.18 1.25 1.34 1.33 1.30 0.90 0.63 0.55 0.71 1.11 1.60 1.88 1.88 1.76 1.59 1.38 1.32 1.35
1.38 1.42 1.53 1.65 1.73 1.75 1.87 2.04 2.18 2.09 2.30 2.67 2.65 2.50 2.39 2.16 2.13 2.16 1.98 1.69 1.53 1.25 1.17 1.15 1.10 1.21 1.22 1.23 1.44 1.63 1.12 0.78 0.59 0.63 0.73 0.97 1.30 1.62 1.86 1.91 1.78 1.67 1.64
1.34 1.28 1.33 1.44 1.58 1.74 1.79 1.84 1.85 1.82 1.94 2.19 2.27 2.43 2.52 2.26 2.11 1.97 1.87 1.89 1.67 1.43 1.26 1.14 1.06 1.08 1.12 1.17 1.39 1.57 1.16 0.95 0.70 0.61 0.61 0.72 0.85 1.02 1.30 1.58 1.83 1.90 1.92
1.11 1.03 1.04 1.08 1.16 1.25 1.32 1.48 1.56 1.67 1.71 1.83 1.99 2.12 2.26 2.34 2.25 2.00 1.91 1.88 1.84 1.66 1.45 1.34 1.20 1.02 1.12 1.22 1.43 1.26 1.13 1.10 0.91 0.72 0.63 0.64 0.70 0.74 0.84 0.92 1.09 1.32 1.58
1.03 0.96 0.92 0.87 0.84 0.83 0.87 1.05 1.24 1.35 1.46 1.62 1.81 1.93 1.95 2.00 2.18 2.13 1.95 1.92 1.83 1.70 1.56 1.38 1.29 1.16 1.32 1.23 1.37 1.19 1.21 1.30 0.98 0.80 0.70 0.66 0.64 0.59 0.58 0.59 0.59 0.64 0.76
1.01 1.00 0.91 0.84 0.91 0.91 0.88 0.94 1.00 1.04 1.11 1.25 1.40 1.53 1.69 1.93 2.21 2.24 2.18 2.06 1.92 1.77 1.53 1.39 1.19 1.12 1.42 1.50 1.41 1.27 1.24 1.23 1.01 0.89 0.75 0.67 0.65 0.61 0.57 0.52 0.51 0.49 0.52
0.68 0.78 0.86 0.81 0.80 0.83 0.85 0.92 0.93 0.96 0.97 1.05 1.15 1.27 1.44 1.74 2.08 2.29 2.37 2.28 2.12 1.96 1.81 1.65 1.32 1.08 1.20 1.54 1.68 1.60 1.37 1.20 1.09 1.02 0.89 0.76 0.71 0.65 0.60 0.58 0.56 0.54 0.50
0.52 0.57 0.66 0.67 0.76 0.83 0.85 0.88 0.89 0.92 0.94 1.02 1.16 1.21 1.27 1.47 1.66 1.87 2.06 2.18 2.17 2.14 2.09 1.85 1.55 1.29 1.23 1.36 1.62 1.64 1.55 1.50 1.29 1.22 1.21 1.09 0.95 0.85 0.74 0.65 0.64 0.60 0.54
0.54 0.61 0.73 0.77 0.73 0.70 0.75 0.86 0.90 0.85 0.83 0.88 0.96 1.05 1.15 1.20 1.35 1.50 1.60 1.79 2.00 2.23 2.29 2.14 1.89 1.56 1.44 1.33 1.44 1.60 1.67 1.62 1.53 1.34 1.30 1.20 1.18 1.12 1.00 0.84 0.70 0.64 0.63
0.61 0.63 0.72 0.83 0.90 0.84 0.82 0.90 0.87 0.85 0.85 0.83 0.88 0.88 0.95 0.97 1.03 1.22 1.26 1.48 1.80 2.06 2.17 2.23 2.11 1.81 1.55 1.38 1.18 1.28 1.54 1.75 1.75 1.65 1.65 1.42 1.29 1.16 1.07 1.03 0.96 0.83 0.73
0.50 0.49 0.53 0.60 0.69 0.73 0.94 0.90 0.74 0.70 0.76 0.82 0.87 0.87 0.89 0.83 0.81 0.88 1.01 1.14 1.43 1.64 1.77 1.84 1.87 1.72 1.51 1.38 1.33 1.30 1.37 1.51 1.56 1.44 1.47 1.55 1.50 1.36 1.26 1.14 1.16 1.19 1.11
0.42 0.39 0.38 0.39 0.45 0.60 0.68 0.53 0.51 0.58 0.71 0.83 0.90 0.92 0.89 0.84 0.88 0.89 0.91 0.92 0.99 1.17 1.38 1.57 1.60 1.50 1.56 1.47 1.39 1.29 1.31 1.33 1.31 1.41 1.47 1.52 1.51 1.42 1.35 1.34 1.37 1.27 1.22
0.31 0.30 0.38 0.45 0.46 0.48 0.54 0.44 0.44 0.54 0.74 0.87 0.88 0.83 0.89 0.91 0.94 1.00 0.93 1.00 0.95 0.94 1.02 1.07 1.21 1.41 1.55 1.72 1.69 1.58 1.59 1.53 1.44 1.53 1.55 1.49 1.39 1.32 1.23 1.21 1.27 1.15 1.08
0.35 0.38 0.49 0.56 0.50 0.43 0.47 0.48 0.54 0.69 0.81 0.89 0.86 0.85 0.93 0.97 1.10 1.15 1.06 1.11 1.07 1.03 1.00 1.11 1.20 1.30 1.38 1.50 1.65 1.69 1.65 1.61 1.48 1.41 1.42 1.36 1.26 1.28 1.27 1.15 1.08 1.08 0.98
0.32 0.39 0.41 0.39 0.39 0.46 0.52 0.51 0.64 0.82 0.94 1.04 0.99 0.99 1.17 1.12 1.10 1.05 1.03 1.17 1.14 0.99 0.92 0.96 1.01 1.09 1.12 1.22 1.35 1.39 1.52 1.58 1.50 1.36 1.19 1.17 1.18 1.21 1.26 1.15 1.04 0.97 0.93

GEFSMA_prec_meanprecacc_168.txt.gz
Total_Precipitation_Accumulation
0.89 0.86 0.78 0.77 0.71 0.77 0.87 0.95 0.90 0.82 0.76 0.70 0.67 0.73 0.76 0.80 0.82 0.90 0.99 0.97 1.09 1.36 1.56 1.56 1.38 1.19 1.13 1.16 1.19 1.20 1.20 1.25 1.28 1.34 1.42 1.45 1.40 1.25 1.12 1.07 0.95 0.90 0.98
0.94 0.90 0.85 0.86 0.83 0.84 0.96 0.95 0.87 0.92 0.90 0.81 0.69 0.69 0.75 0.82 0.87 0.85 0.89 1.01 1.06 1.12 1.45 1.67 1.68 1.47 1.39 1.28 1.34 1.39 1.35 1.29 1.24 1.29 1.37 1.43 1.46 1.29 1.11 1.00 0.94 0.88 0.90
0.84 0.87 0.87 0.87 0.91 1.00 1.05 1.07 0.91 0.93 0.88 0.80 0.74 0.69 0.68 0.71 0.76 0.80 0.79 0.78 0.86 0.96 1.20 1.55 1.79 1.69 1.56 1.47 1.40 1.45 1.45 1.31 1.24 1.26 1.31 1.29 1.34 1.29 1.17 1.15 1.04 1.02 1.00
0.77 0.90 0.91 0.88 0.91 1.03 1.12 1.15 1.07 1.02 0.95 0.90 0.86 0.79 0.73 0.74 0.73 0.79 0.80 0.72 0.85 0.80 0.95 1.12 1.35 1.52 1.58 1.57 1.50 1.50 1.46 1.21 1.11 1.20 1.27 1.19 1.21 1.23 1.09 1.18 1.09 1.06 1.03
0.84 1.01 1.10 1.12 1.11 1.13 1.12 1.07 1.12 1.10 1.08 1.06 0.98 0.94 0.83 0.77 0.83 0.78 0.80 0.81 0.76 0.80 0.88 0.72 0.81 0.95 1.25 1.46 1.54 1.66 1.60 1.28 1.11 1.16 1.27 1.12 1.10 1.21 1.06 1.08 1.09 1.01 0.96
1.19 1.32 1.32 1.40 1.47 1.35 1.30 1.23 1.24 1.20 1.14 1.16 1.07 0.96 0.87 0.78 0.87 0.91 0.89 0.89 0.85 0.79 0.87 0.76 0.71 0.65 0.80 1.07 1.38 1.69 1.83 1.54 1.26 1.17 1.28 1.17 1.06 1.15 1.03 1.05 1.12 0.96 0.89
1.52 1.72 1.69 1.74 1.77 1.64 1.59 1.64 1.83 1.78 1.51 1.29 1.31 1.13 0.95 0.80 0.92 0.95 0.93 0.95 0.96 1.03 1.08 0.95 0.79 0.75 0.64 0.68 0.87 1.32 1.85 1.71 1.50 1.32 1.32 1.27 1.08 1.05 0.97 0.99 1.12 1.05 0.88
1.44 1.58 1.83 1.92 1.84 1.86 1.97 2.00 2.32 2.45 2.02 1.60 1.60 1.70 1.43 1.23 0.97 0.83 0.88 0.92 1.00 1.19 1.20 1.00 0.88 0.77 0.71 0.73 0.54 0.79 1.36 1.55 1.57 1.56 1.48 1.37 1.21 1.07 1.02 0.98 1.04 1.14 1.02
1.41 1.51 1.67 1.82 1.83 1.90 1.98 2.10 2.42 2.87 2.62 2.09 1.86 2.05 1.74 1.55 1.37 1.01 0.85 0.88 0.99 1.19 1.29 1.21 1.11 1.01 0.85 0.88 0.77 0.67 0.83 0.99 1.35 1.68 1.70 1.53 1.41 1.19 1.08 1.08 0.98 1.12 1.12
1.31 1.37 1.51 1.65 1.77 1.79 1.93 2.02 2.13 2.59 2.90 2.59 2.29 1.95 1.63 1.55 1.65 1.46 1.09 0.99 1.03 1.11 1.20 1.16 1.14 1.22 1.12 1.03 0.93 0.74 0.70 0.67 0.99 1.50 1.82 1.81 1.65 1.47 1.32 1.30 1.13 1.13 1.16
1.40 1.39 1.54 1.61 1.63 1.68 1.78 2.11 2.36 2.61 2.80 2.73 2.62 2.44 2.19 1.89 1.55 1.66 1.59 1.32 1.19 1.12 1.14 1.18 1.19 1.23 1.22 1.18 1.25 0.97 0.74 0.64 0.70 1.13 1.70 2.05 1.99 1.81 1.59 1.51 1.43 1.33 1.29
1.49 1.54 1.60 1.60 1.58 1.61 1.72 1.94 2.21 2.42 2.73 2.89 2.77 2.55 2.41 2.27 2.04 1.89 1.67 1.56 1.50 1.28 1.23 1.23 1.18 1.21 1.29 1.37 1.35 1.33 0.93 0.66 0.59 0.75 1.16 1.66 1.96 2.00 1.88 1.77 1.71 1.72 1.63
1.38 1.42 1.53 1.65 1.73 1.75 1.87 2.04 2.18 2.09 2.31 2.68 2.66 2.50 2.40 2.19 2.14 2.17 1.99 1.70 1.55 1.27 1.20 1.18 1.13 1.24 1.24 1.25 1.46 1.64 1.15 0.81 0.62 0.67 0.77 1.00 1.34 1.68 1.94 2.02 1.97 2.00 2.01
1.34 1.28 1.33 1.44 1.58 1.74 1.79 1.84 1.86 1.83 1.95 2.20 2.28 2.44 2.53 2.27 2.12 1.98 1.88 1.91 1.68 1.44 1.28 1.17 1.08 1.10 1.14 1.19 1.41 1.58 1.19 1.00 0.73 0.63 0.63 0.73 0.87 1.04 1.34 1.63 1.90 2.02 2.15
1.11 1.03 1.04 1.08 1.16 1.25 1.32 1.48 1.57 1.68 1.73 1.85 2.00 2.12 2.26 2.35 2.25 2.01 1.92 1.89 1.85 1.67 1.46 1.35 1.20 1.03 1.14 1.25 1.44 1.27 1.16 1.15 0.96 0.76 0.65 0.66 0.71 0.77 0.88 0.96 1.15 1.38 1.67
1.03 0.96 0.92 0.87 0.84 0.83 0.87 1.05 1.25 1.37 1.47 1.63 1.82 1.94 1.95 2.00 2.18 2.14 1.95 1.93 1.85 1.71 1.57 1.40 1.30 1.17 1.33 1.24 1.38 1.21 1.23 1.31 1.03 0.89 0.78 0.70 0.67 0.61 0.60 0.62 0.62 0.68 0.81
1.01 1.00 0.91 0.85 0.91 0.91 0.88 0.94 1.00 1.06 1.12 1.27 1.42 1.54 1.69 1.94 2.22 2.24 2.18 2.06 1.94 1.78 1.55 1.41 1.20 1.12 1.43 1.52 1.42 1.27 1.25 1.24 1.03 0.95 0.86 0.76 0.69 0.63 0.59 0.54 0.53 0.52 0.56
0.69 0.78 0.87 0.82 0.80 0.83 0.85 0.92 0.94 0.98 0.99 1.07 1.16 1.28 1.45 1.74 2.08 2.29 2.37 2.28 2.12 1.96 1.81 1.66 1.33 1.09 1.21 1.55 1.68 1.61 1.37 1.21 1.10 1.03 0.91 0.81 0.75 0.67 0.61 0.59 0.58 0.55 0.53
0.52 0.57 0.66 0.67 0.76 0.83 0.85 0.88 0.90 0.93 0.96 1.03 1.16 1.21 1.27 1.47 1.66 1.87 2.06 2.18 2.17 2.14 2.10 1.86 1.56 1.29 1.23 1.37 1.62 1.64 1.56 1.51 1.29 1.22 1.22 1.10 0.96 0.86 0.75 0.66 0.65 0.61 0.55
0.54 0.61 0.73 0.77 0.73 0.71 0.75 0.86 0.90 0.86 0.85 0.88 0.96 1.05 1.15 1.20 1.35 1.50 1.60 1.79 2.00 2.23 2.30 2.15 1.89 1.57 1.45 1.34 1.45 1.60 1.67 1.62 1.53 1.34 1.30 1.20 1.19 1.12 1.00 0.85 0.71 0.64 0.65
0.61 0.63 0.73 0.83 0.90 0.84 0.82 0.91 0.87 0.85 0.85 0.83 0.88 0.88 0.95 0.97 1.03 1.22 1.26 1.48 1.80 2.06 2.17 2.24 2.12 1.81 1.55 1.38 1.18 1.28 1.54 1.75 1.75 1.65 1.65 1.42 1.29 1.16 1.07 1.03 0.96 0.83 0.74
0.51 0.50 0.54 0.61 0.70 0.74 0.94 0.90 0.74 0.71 0.76 0.82 0.87 0.87 0.89 0.83 0.82 0.88 1.01 1.14 1.44 1.65 1.78 1.85 1.88 1.72 1.51 1.38 1.33 1.30 1.37 1.51 1.56 1.44 1.47 1.55 1.50 1.36 1.26 1.14 1.16 1.19 1.11
0.42 0.39 0.39 0.39 0.45 0.60 0.68 0.53 0.51 0.58 0.72 0.83 0.90 0.93 0.89 0.84 0.88 0.89 0.91 0.92 0.99 1.17 1.38 1.58 1.60 1.50 1.56 1.47 1.39 1.29 1.31 1.33 1.31 1.41 1.47 1.52 1.51 1.42 1.35 1.34 1.37 1.27 1.22
0.31 0.30 0.38 0.45 0.46 0.48 0.54 0.45 0.44 0.55 0.74 0.87 0.88 0.84 0.90 0.91 0.94 1.00 0.93 1.00 0.96 0.94 1.02 1.07 1.21 1.41 1.55 1.72 1.69 1.58 1.59 1.53 1.44 1.53 1.55 1.49 1.39 1.32 1.23 1.21 1.27 1.15 1.08
0.35 0.38 0.49 0.56 0.50 0.43 0.47 0.48 0.54 0.69 0.81 0.90 0.86 0.86 0.93 0.97 1.10 1.15 1.06 1.11 1.07 1.03 1.00 1.11 1.20 1.30 1.38 1.50 1.65 1.69 1.65 1.61 1.48 1.41 1.42 1.36 1.26 1.28 1.27 1.15 1.08 1.08 0.98
0.32 0.39 0.41 0.39 0.39 0.46 0.52 0.51 0.64 0.82 0.94 1.04 1.00 0.99 1.17 1.12 1.10 1.05 1.03 1.18 1.14 0.99 0.92 0.96 1.01 1.09 1.12 1.22 1.35 1.39 1.52 1.58 1.50 1.36 1.19 1.17 1.18 1.22 1.26 1.15 1.04 0.97 0.93

GEFSMA_prec_meanprecacc_174.txt.gz
Total_Precipitation_Accumulation
0.89 0.86 0.78 0.78 0.71 0.78 0.89 0.96 0.92 0.84 0.80 0.72 0.69 0.75 0.79 0.82 0.85 0.96 1.03 1.01 1.15 1.43 1.64 1.65 1.45 1.26 1.20 1.23 1.27 1.27 1.27 1.33 1.35 1.41 1.48 1.49 1.45 1.31 1.17 1.11 1.00 0.98 1.09
0.94 0.90 0.85 0.87 0.83 0.84 0.96 0.96 0.88 0.93 0.92 0.85 0.72 0.72 0.79 0.85 0.90 0.91 0.93 1.04 1.09 1.16 1.51 1.74 1.75 1.53 1.45 1.34 1.39 1.46 1.42 1.35 1.31 1.36 1.43 1.48 1.51 1.35 1.17 1.05 0.99 0.93 0.95
0.84 0.87 0.87 0.87 0.91 1.00 1.05 1.07 0.92 0.95 0.91 0.83 0.78 0.72 0.71 0.73 0.78 0.84 0.81 0.82 0.89 0.99 1.24 1.60 1.83 1.74 1.62 1.53 1.47 1.53 1.50 1.36 1.30 1.32 1.37 1.36 1.41 1.35 1.23 1.20 1.07 1.05 1.04
0.77 0.90 0.91 0.88 0.91 1.04 1.13 1.16 1.07 1.04 0.98 0.94 0.91 0.84 0.75 0.76 0.74 0.81 0.82 0.75 0.88 0.83 0.98 1.15 1.38 1.57 1.64 1.63 1.56 1.59 1.52 1.26 1.16 1.27 1.33 1.26 1.28 1.29 1.15 1.22 1.14 1.10 1.08
0.84 1.01 1.11 1.12 1.12 1.13 1.13 1.08 1.13 1.13 1.11 1.10 1.02 0.97 0.86 0.79 0.84 0.79 0.81 0.83 0.79 0.83 0.92 0.79 0.86 1.00 1.30 1.51 1.60 1.77 1.72 1.34 1.17 1.24 1.36 1.20 1.17 1.26 1.11 1.12 1.13 1.05 1.00
1.19 1.32 1.33 1.40 1.47 1.36 1.32 1.25 1.26 1.22 1.16 1.19 1.08 0.97 0.89 0.80 0.89 0.93 0.91 0.91 0.87 0.81 0.90 0.84 0.78 0.71 0.86 1.14 1.44 1.78 1.99 1.63 1.34 1.26 1.37 1.26 1.15 1.23 1.09 1.10 1.17 1.01 0.95
1.52 1.73 1.69 1.74 1.78 1.66 1.63 1.66 1.86 1.81 1.54 1.30 1.33 1.16 0.98 0.83 0.94 0.99 0.96 0.98 0.99 1.05 1.10 0.99 0.86 0.82 0.70 0.73 0.93 1.39 1.99 1.85 1.60 1.42 1.41 1.36 1.17 1.13 1.03 1.06 1.18 1.09 0.93
1.44 1.58 1.83 1.93 1.86 1.88 2.01 2.02 2.35 2.50 2.06 1.63 1.62 1.74 1.47 1.26 1.00 0.86 0.92 0.94 1.03 1.22 1.23 1.03 0.93 0.85 0.78 0.80 0.60 0.84 1.45 1.66 1.65 1.62 1.54 1.43 1.29 1.13 1.08 1.15 1.13 1.18 1.08
1.41 1.51 1.67 1.82 1.84 1.91 2.01 2.12 2.45 2.91 2.67 2.13 1.89 2.08 1.78 1.58 1.39 1.05 0.90 0.92 1.02 1.23 1.33 1.25 1.16 1.08 0.93 0.95 0.82 0.71 0.90 1.07 1.42 1.74 1.75 1.58 1.46 1.23 1.17 1.31 1.13 1.19 1.22
1.31 1.37 1.51 1.65 1.78 1.80 1.94 2.04 2.15 2.62 2.94 2.62 2.32 1.98 1.65 1.57 1.67 1.49 1.13 1.04 1.08 1.16 1.24 1.19 1.18 1.26 1.17 1.08 0.95 0.76 0.77 0.78 1.05 1.54 1.85 1.84 1.68 1.51 1.42 1.50 1.32 1.25 1.28
1.40 1.39 1.54 1.61 1.63 1.68 1.79 2.12 2.37 2.62 2.81 2.75 2.64 2.46 2.20 1.91 1.57 1.68 1.62 1.35 1.22 1.14 1.17 1.22 1.23 1.26 1.27 1.23 1.28 0.98 0.78 0.75 0.78 1.18 1.73 2.07 2.01 1.85 1.70 1.68 1.60 1.49 1.44
1.49 1.54 1.60 1.60 1.58 1.61 1.72 1.94 2.22 2.43 2.74 2.90 2.79 2.57 2.42 2.29 2.07 1.91 1.69 1.58 1.52 1.30 1.24 1.25 1.20 1.24 1.33 1.41 1.36 1.33 0.95 0.71 0.64 0.79 1.19 1.68 2.00 2.05 1.96 1.91 1.87 1.88 1.77
1.38 1.42 1.53 1.65 1.73 1.76 1.87 2.04 2.19 2.10 2.31 2.69 2.67 2.52 2.42 2.21 2.17 2.21 2.02 1.73 1.60 1.31 1.23 1.20 1.15 1.26 1.27 1.28 1.47 1.65 1.16 0.83 0.65 0.71 0.80 1.03 1.37 1.72 1.99 2.11 2.13 2.13 2.13
1.34 1.29 1.33 1.44 1.58 1.75 1.79 1.84 1.86 1.83 1.96 2.20 2.29 2.46 2.56 2.31 2.15 2.01 1.92 1.96 1.74 1.47 1.31 1.19 1.10 1.12 1.17 1.21 1.41 1.59 1.20 1.00 0.74 0.64 0.65 0.76 0.89 1.06 1.37 1.68 2.00 2.14 2.26
1.11 1.03 1.04 1.08 1.16 1.25 1.33 1.48 1.57 1.68 1.73 1.85 2.01 2.13 2.27 2.36 2.26 2.02 1.93 1.92 1.89 1.70 1.48 1.38 1.22 1.04 1.16 1.26 1.45 1.29 1.17 1.16 0.98 0.78 0.67 0.68 0.73 0.79 0.91 1.00 1.19 1.45 1.76
1.03 0.96 0.92 0.88 0.84 0.83 0.88 1.06 1.25 1.37 1.48 1.64 1.83 1.95 1.96 2.01 2.19 2.15 1.97 1.95 1.87 1.73 1.59 1.41 1.31 1.18 1.35 1.26 1.39 1.25 1.26 1.32 1.04 0.91 0.82 0.75 0.72 0.65 0.64 0.66 0.65 0.71 0.87
1.01 1.00 0.91 0.85 0.91 0.91 0.89 0.95 1.01 1.06 1.14 1.28 1.43 1.56 1.71 1.95 2.23 2.25 2.19 2.08 1.95 1.80 1.57 1.41 1.20 1.13 1.44 1.53 1.44 1.31 1.27 1.26 1.04 0.95 0.88 0.81 0.76 0.70 0.64 0.57 0.55 0.54 0.60
0.69 0.78 0.87 0.82 0.80 0.83 0.86 0.92 0.95 0.98 1.00 1.08 1.18 1.31 1.49 1.77 2.10 2.31 2.39 2.28 2.13 1.97 1.83 1.67 1.33 1.09 1.21 1.55 1.69 1.61 1.38 1.22 1.11 1.03 0.92 0.83 0.78 0.71 0.65 0.62 0.59 0.57 0.55
0.52 0.57 0.66 0.67 0.76 0.83 0.86 0.88 0.90 0.94 0.96 1.04 1.18 1.24 1.29 1.48 1.67 1.88 2.06 2.19 2.18 2.15 2.11 1.88 1.57 1.30 1.24 1.37 1.63 1.64 1.56 1.51 1.29 1.22 1.22 1.10 0.97 0.87 0.76 0.67 0.65 0.61 0.56
0.54 0.61 0.73 0.78 0.73 0.71 0.76 0.86 0.90 0.86 0.85 0.88 0.97 1.06 1.16 1.20 1.36 1.50 1.61 1.80 2.01 2.24 2.31 2.17 1.90 1.58 1.45 1.35 1.45 1.61 1.68 1.62 1.53 1.34 1.30 1.20 1.19 1.12 1.00 0.85 0.71 0.64 0.65
0.61 0.63 0.73 0.83 0.90 0.85 0.82 0.91 0.88 0.86 0.85 0.84 0.89 0.89 0.95 0.98 1.04 1.22 1.26 1.48 1.81 2.06 2.17 2.24 2.13 1.82 1.56 1.38 1.18 1.28 1.54 1.76 1.75 1.65 1.65 1.42 1.29 1.16 1.07 1.03 0.96 0.83 0.74
0.51 0.50 0.54 0.61 0.70 0.74 0.94 0.90 0.74 0.71 0.77 0.83 0.88 0.87 0.89 0.83 0.82 0.88 1.01 1.14 1.44 1.65 1.78 1.85 1.88 1.73 1.52 1.38 1.33 1.30 1.37 1.51 1.56 1.44 1.47 1.56 1.50 1.36 1.26 1.14 1.16 1.19 1.11
0.42 0.39 0.39 0.39 0.45 0.60 0.69 0.54 0.52 0.58 0.72 0.84 0.91 0.93 0.89 0.84 0.88 0.89 0.91 0.93 1.00 1.17 1.38 1.58 1.60 1.51 1.56 1.47 1.39 1.29 1.31 1.33 1.31 1.41 1.47 1.52 1.52 1.42 1.35 1.34 1.37 1.28 1.22
0.31 0.31 0.38 0.45 0.47 0.49 0.55 0.46 0.45 0.55 0.75 0.88 0.88 0.84 0.90 0.91 0.94 1.00 0.93 1.00 0.96 0.94 1.03 1.07 1.21 1.41 1.55 1.72 1.69 1.58 1.59 1.53 1.44 1.53 1.55 1.49 1.39 1.32 1.23 1.21 1.28 1.16 1.08
0.35 0.38 0.49 0.56 0.50 0.44 0.49 0.49 0.55 0.69 0.81 0.90 0.86 0.86 0.93 0.98 1.10 1.15 1.06 1.11 1.07 1.04 1.00 1.11 1.20 1.30 1.39 1.50 1.65 1.69 1.65 1.61 1.48 1.41 1.42 1.36 1.26 1.28 1.27 1.15 1.08 1.08 0.99
0.32 0.39 0.41 0.39 0.39 0.46 0.52 0.51 0.64 0.82 0.94 1.04 1.00 0.99 1.18 1.13 1.10 1.05 1.03 1.18 1.15 1.00 0.92 0.97 1.02 1.10 1.13 1.23 1.35 1.39 1.52 1.59 1.50 1.36 1.19 1.17 1.18 1.22 1.26 1.16 1.04 0.97 0.93

GEFSMA_prec_meanprecacc_180.txt.gz
Total_Precipitation_Accumulation
0.89 0.86 0.78 0.78 0.72 0.79 0.90 0.99 0.94 0.85 0.81 0.75 0.71 0.78 0.81 0.86 0.88 0.97 1.06 1.06 1.20 1.49 1.71 1.71 1.51 1.32 1.25 1.27 1.31 1.32 1.32 1.41 1.45 1.48 1.52 1.53 1.50 1.37 1.24 1.18 1.08 1.04 1.16
0.94 0.91 0.86 0.87 0.84 0.86 0.97 0.96 0.89 0.94 0.94 0.87 0.74 0.74 0.81 0.87 0.92 0.92 0.95 1.06 1.13 1.21 1.57 1.80 1.81 1.59 1.51 1.38 1.43 1.51 1.47 1.39 1.36 1.41 1.47 1.53 1.55 1.39 1.21 1.11 1.07 1.00 1.01
0.84 0.87 0.88 0.88 0.92 1.01 1.07 1.08 0.92 0.96 0.93 0.84 0.79 0.73 0.72 0.74 0.79 0.85 0.82 0.82 0.90 1.02 1.29 1.65 1.89 1.80 1.67 1.58 1.52 1.58 1.54 1.40 1.36 1.37 1.43 1.41 1.45 1.40 1.28 1.25 1.12 1.11 1.10
0.77 0.90 0.91 0.89 0.92 1.05 1.14 1.17 1.08 1.05 1.00 0.96 0.92 0.84 0.76 0.78 0.76 0.82 0.83 0.76 0.89 0.84 1.01 1.19 1.42 1.61 1.68 1.69 1.62 1.64 1.56 1.31 1.22 1.32 1.38 1.31 1.34 1.36 1.20 1.27 1.17 1.13 1.11
0.84 1.01 1.11 1.13 1.13 1.14 1.14 1.08 1.14 1.14 1.12 1.11 1.03 0.97 0.88 0.82 0.86 0.80 0.83 0.85 0.80 0.84 0.93 0.81 0.89 1.02 1.34 1.57 1.67 1.84 1.78 1.41 1.23 1.29 1.40 1.25 1.21 1.30 1.15 1.17 1.17 1.08 1.03
1.19 1.33 1.33 1.40 1.47 1.36 1.33 1.26 1.26 1.23 1.16 1.20 1.09 0.98 0.91 0.82 0.90 0.94 0.93 0.93 0.89 0.82 0.91 0.86 0.81 0.73 0.89 1.17 1.48 1.82 2.04 1.68 1.40 1.32 1.43 1.32 1.22 1.29 1.15 1.15 1.20 1.04 0.98
1.52 1.73 1.69 1.74 1.78 1.66 1.63 1.67 1.86 1.82 1.55 1.31 1.34 1.17 0.99 0.83 0.96 1.00 0.98 0.99 1.01 1.07 1.11 1.00 0.86 0.84 0.73 0.75 0.94 1.41 2.04 1.92 1.67 1.50 1.49 1.44 1.23 1.19 1.08 1.10 1.22 1.13 0.97
1.44 1.58 1.83 1.93 1.86 1.89 2.01 2.02 2.35 2.50 2.07 1.64 1.63 1.74 1.48 1.26 1.01 0.89 0.94 0.96 1.06 1.25 1.24 1.05 0.95 0.86 0.80 0.80 0.61 0.85 1.47 1.78 1.79 1.71 1.60 1.48 1.34 1.18 1.14 1.20 1.17 1.21 1.11
1.41 1.51 1.67 1.83 1.84 1.91 2.01 2.13 2.45 2.91 2.68 2.14 1.90 2.09 1.79 1.58 1.39 1.06 0.92 0.94 1.06 1.26 1.37 1.28 1.18 1.10 0.94 0.95 0.83 0.72 0.91 1.20 1.68 1.87 1.82 1.64 1.52 1.30 1.24 1.36 1.17 1.22 1.26
1.31 1.37 1.51 1.66 1.78 1.81 1.94 2.04 2.16 2.62 2.95 2.63 2.34 1.99 1.66 1.58 1.68 1.50 1.16 1.07 1.12 1.20 1.27 1.22 1.19 1.29 1.20 1.09 0.96 0.77 0.78 0.84 1.26 1.68 1.93 1.90 1.76 1.59 1.53 1.61 1.37 1.29 1.32
1.40 1.39 1.54 1.61 1.63 1.69 1.79 2.12 2.38 2.63 2.82 2.76 2.65 2.47 2.21 1.92 1.58 1.70 1.64 1.39 1.25 1.17 1.20 1.24 1.24 1.27 1.28 1.24 1.29 1.00 0.79 0.77 0.84 1.24 1.79 2.12 2.08 1.95 1.88 1.93 1.73 1.56 1.49
1.49 1.54 1.60 1.61 1.58 1.61 1.72 1.94 2.22 2.43 2.74 2.90 2.79 2.57 2.43 2.30 2.08 1.93 1.71 1.60 1.56 1.33 1.26 1.26 1.21 1.24 1.33 1.42 1.37 1.35 0.95 0.72 0.67 0.83 1.22 1.71 2.03 2.12 2.10 2.11 2.01 1.96 1.84
1.39 1.42 1.53 1.65 1.73 1.76 1.88 2.05 2.19 2.10 2.32 2.69 2.68 2.53 2.43 2.21 2.18 2.21 2.03 1.74 1.62 1.33 1.24 1.20 1.16 1.27 1.27 1.29 1.48 1.65 1.16 0.83 0.65 0.72 0.81 1.05 1.40 1.76 2.07 2.26 2.30 2.25 2.21
1.35 1.29 1.34 1.45 1.58 1.75 1.80 1.85 1.86 1.83 1.96 2.20 2.29 2.46 2.56 2.32 2.16 2.03 1.93 1.98 1.76 1.48 1.31 1.20 1.11 1.13 1.18 1.22 1.42 1.59 1.21 1.01 0.74 0.65 0.67 0.79 0.93 1.10 1.41 1.77 2.15 2.25 2.34
1.11 1.04 1.04 1.09 1.17 1.26 1.33 1.49 1.58 1.69 1.73 1.86 2.02 2.14 2.28 2.37 2.27 2.04 1.95 1.94 1.90 1.71 1.49 1.38 1.23 1.05 1.17 1.28 1.46 1.30 1.18 1.17 0.98 0.79 0.69 0.71 0.76 0.82 0.95 1.04 1.23 1.49 1.79
1.03 0.96 0.92 0.88 0.85 0.84 0.89 1.07 1.26 1.39 1.49 1.64 1.83 1.95 1.97 2.03 2.21 2.17 1.98 1.96 1.88 1.74 1.60 1.42 1.31 1.18 1.37 1.29 1.40 1.25 1.26 1.32 1.04 0.92 0.83 0.77 0.74 0.67 0.65 0.67 0.66 0.73 0.89
1.01 1.00 0.92 0.85 0.92 0.92 0.89 0.95 1.02 1.08 1.14 1.29 1.44 1.57 1.72 1.97 2.26 2.27 2.21 2.08 1.96 1.81 1.58 1.43 1.22 1.15 1.47 1.56 1.45 1.32 1.28 1.26 1.04 0.95 0.88 0.81 0.77 0.70 0.64 0.58 0.56 0.56 0.62
0.69 0.78 0.87 0.82 0.80 0.83 0.86 0.92 0.95 0.99 1.01 1.09 1.19 1.32 1.50 1.78 2.12 2.33 2.40 2.29 2.13 1.98 1.84 1.68 1.34 1.10 1.23 1.57 1.70 1.62 1.39 1.23 1.11 1.03 0.92 0.83 0.78 0.71 0.65 0.62 0.60 0.58 0.57
0.52 0.57 0.66 0.67 0.76 0.83 0.86 0.88 0.90 0.94 0.96 1.04 1.19 1.24 1.30 1.49 1.68 1.89 2.07 2.19 2.18 2.15 2.13 1.89 1.58 1.31 1.25 1.38 1.63 1.65 1.56 1.51 1.29 1.22 1.22 1.10 0.97 0.87 0.76 0.67 0.65 0.62 0.57
0.54 0.61 0.73 0.78 0.73 0.71 0.76 0.86 0.90 0.86 0.85 0.88 0.97 1.06 1.16 1.21 1.36 1.50 1.61 1.80 2.01 2.24 2.32 2.18 1.91 1.59 1.46 1.35 1.46 1.61 1.68 1.62 1.53 1.34 1.30 1.20 1.19 1.12 1.00 0.85 0.71 0.65 0.65
0.61 0.63 0.73 0.83 0.90 0.85 0.82 0.91 0.88 0.86 0.85 0.84 0.89 0.89 0.95 0.98 1.04 1.22 1.27 1.48 1.81 2.07 2.19 2.26 2.13 1.83 1.56 1.39 1.18 1.28 1.54 1.76 1.75 1.65 1.65 1.42 1.29 1.16 1.07 1.03 0.96 0.83 0.74
0.51 0.50 0.54 0.61 0.70 0.74 0.94 0.90 0.75 0.71 0.77 0.83 0.88 0.87 0.89 0.83 0.82 0.88 1.01 1.14 1.44 1.65 1.79 1.87 1.89 1.73 1.52 1.38 1.33 1.30 1.37 1.51 1.56 1.44 1.47 1.56 1.50 1.36 1.26 1.14 1.16 1.19 1.11
0.42 0.39 0.39 0.39 0.45 0.60 0.69 0.54 0.53 0.58 0.72 0.84 0.91 0.93 0.89 0.84 0.88 0.89 0.91 0.93 1.00 1.17 1.39 1.59 1.61 1.51 1.56 1.47 1.39 1.29 1.31 1.33 1.31 1.41 1.47 1.52 1.52 1.42 1.35 1.34 1.37 1.28 1.22
0.31 0.31 0.38 0.45 0.47 0.49 0.56 0.46 0.45 0.55 0.75 0.88 0.88 0.84 0.90 0.91 0.94 1.00 0.93 1.00 0.96 0.94 1.03 1.08 1.22 1.41 1.56 1.72 1.69 1.58 1.59 1.53 1.44 1.53 1.55 1.49 1.39 1.32 1.23 1.21 1.28 1.16 1.08
0.35 0.38 0.49 0.56 0.50 0.44 0.49 0.49 0.55 0.69 0.81 0.90 0.87 0.86 0.93 0.98 1.10 1.15 1.06 1.11 1.08 1.04 1.01 1.12 1.21 1.32 1.39 1.50 1.65 1.69 1.65 1.61 1.48 1.41 1.42 1.36 1.26 1.28 1.27 1.15 1.08 1.08 0.99
0.32 0.40 0.42 0.39 0.40 0.46 0.52 0.51 0.64 0.82 0.94 1.04 1.00 0.99 1.18 1.13 1.10 1.05 1.03 1.18 1.15 1.00 0.93 0.97 1.03 1.11 1.14 1.24 1.35 1.39 1.52 1.59 1.50 1.36 1.19 1.17 1.18 1.22 1.26 1.16 1.04 0.97 0.93

GEFSMA_prec_meanprecacc_186.txt.gz
Total_Precipitation_Accumulation
0.89 0.86 0.78 0.78 0.73 0.80 0.91 1.00 0.96 0.86 0.82 0.76 0.72 0.79 0.83 0.89 0.92 1.00 1.09 1.11 1.26 1.56 1.79 1.78 1.58 1.39 1.31 1.32 1.36 1.40 1.46 1.57 1.57 1.57 1.60 1.60 1.56 1.43 1.30 1.25 1.16 1.10 1.22
0.94 0.91 0.86 0.87 0.85 0.87 0.99 0.97 0.90 0.95 0.95 0.88 0.75 0.75 0.83 0.89 0.93 0.93 0.97 1.10 1.17 1.26 1.65 1.88 1.87 1.67 1.57 1.43 1.48 1.60 1.61 1.51 1.45 1.49 1.53 1.59 1.61 1.43 1.26 1.17 1.13 1.06 1.05
0.84 0.87 0.88 0.88 0.93 1.02 1.07 1.08 0.92 0.96 0.94 0.85 0.79 0.74 0.73 0.75 0.80 0.86 0.83 0.83 0.92 1.06 1.36 1.73 1.98 1.88 1.74 1.64 1.57 1.64 1.62 1.48 1.43 1.44 1.48 1.47 1.52 1.46 1.33 1.31 1.19 1.18 1.15
0.77 0.90 0.91 0.89 0.93 1.06 1.14 1.18 1.09 1.06 1.00 0.97 0.93 0.85 0.77 0.80 0.77 0.83 0.84 0.77 0.89 0.86 1.05 1.25 1.51 1.69 1.77 1.78 1.70 1.72 1.64 1.39 1.30 1.39 1.45 1.36 1.39 1.41 1.26 1.33 1.23 1.18 1.15
0.84 1.01 1.11 1.13 1.13 1.15 1.15 1.09 1.14 1.14 1.12 1.12 1.03 0.98 0.90 0.85 0.88 0.81 0.84 0.87 0.81 0.84 0.95 0.85 0.94 1.10 1.43 1.65 1.76 1.96 1.89 1.50 1.30 1.38 1.47 1.31 1.28 1.38 1.22 1.23 1.22 1.12 1.07
1.19 1.33 1.33 1.40 1.48 1.36 1.33 1.26 1.27 1.23 1.17 1.21 1.10 0.99 0.92 0.84 0.92 0.95 0.94 0.95 0.90 0.83 0.92 0.87 0.84 0.77 0.96 1.26 1.56 1.92 2.14 1.78 1.48 1.42 1.52 1.42 1.31 1.39 1.24 1.22 1.26 1.09 1.02
1.52 1.73 1.69 1.74 1.78 1.67 1.63 1.67 1.86 1.82 1.55 1.31 1.34 1.18 0.99 0.85 0.97 1.01 0.99 1.02 1.03 1.09 1.13 1.02 0.88 0.86 0.75 0.78 0.98 1.45 2.08 1.98 1.74 1.58 1.57 1.51 1.30 1.25 1.13 1.15 1.25 1.16 1.00
1.44 1.58 1.83 1.93 1.86 1.89 2.01 2.03 2.36 2.50 2.07 1.64 1.63 1.74 1.48 1.27 1.02 0.89 0.95 0.99 1.09 1.28 1.27 1.06 0.96 0.87 0.81 0.81 0.62 0.87 1.49 1.80 1.82 1.74 1.64 1.52 1.38 1.23 1.20 1.27 1.24 1.27 1.15
1.41 1.51 1.67 1.83 1.84 1.92 2.01 2.13 2.45 2.92 2.68 2.15 1.90 2.09 1.79 1.58 1.40 1.07 0.93 0.96 1.08 1.29 1.42 1.30 1.20 1.10 0.95 0.95 0.83 0.72 0.92 1.22 1.72 1.93 1.87 1.69 1.58 1.37 1.30 1.41 1.22 1.31 1.34
1.31 1.37 1.52 1.66 1.78 1.81 1.94 2.04 2.16 2.62 2.95 2.64 2.34 2.00 1.66 1.58 1.68 1.50 1.17 1.11 1.15 1.22 1.30 1.25 1.23 1.31 1.21 1.09 0.96 0.77 0.78 0.87 1.38 1.77 1.98 1.96 1.84 1.66 1.63 1.76 1.49 1.36 1.37
1.40 1.39 1.54 1.61 1.63 1.69 1.79 2.12 2.38 2.63 2.82 2.76 2.66 2.47 2.21 1.92 1.59 1.71 1.65 1.41 1.29 1.21 1.22 1.26 1.27 1.31 1.32 1.26 1.29 1.00 0.80 0.79 1.01 1.43 1.87 2.18 2.14 2.03 2.10 2.19 1.81 1.62 1.53
1.49 1.54 1.60 1.61 1.58 1.61 1.72 1.95 2.23 2.44 2.74 2.90 2.79 2.58 2.43 2.30 2.08 1.95 1.73 1.61 1.59 1.38 1.29 1.29 1.23 1.26 1.36 1.46 1.40 1.36 0.96 0.73 0.75 1.04 1.38 1.80 2.10 2.20 2.33 2.37 2.10 2.02 1.89
1.39 1.42 1.53 1.65 1.73 1.76 1.88 2.05 2.19 2.10 2.32 2.69 2.68 2.53 2.43 2.22 2.18 2.23 2.05 1.76 1.64 1.37 1.27 1.22 1.18 1.29 1.29 1.31 1.50 1.67 1.18 0.85 0.69 0.84 0.95 1.17 1.50 1.85 2.23 2.48 2.43 2.33 2.28
1.35 1.29 1.34 1.45 1.59 1.75 1.80 1.85 1.86 1.83 1.96 2.21 2.29 2.46 2.56 2.32 2.16 2.04 1.95 1.99 1.77 1.50 1.34 1.22 1.12 1.15 1.20 1.25 1.44 1.62 1.23 1.03 0.76 0.70 0.74 0.87 1.01 1.18 1.49 1.91 2.29 2.35 2.43
1.12 1.04 1.05 1.09 1.17 1.26 1.34 1.49 1.58 1.70 1.74 1.86 2.02 2.14 2.28 2.37 2.27 2.05 1.96 1.94 1.90 1.71 1.51 1.40 1.24 1.06 1.18 1.31 1.49 1.32 1.19 1.18 1.00 0.81 0.73 0.76 0.83 0.88 1.01 1.11 1.31 1.59 1.93
1.03 0.96 0.93 0.88 0.85 0.84 0.89 1.07 1.27 1.40 1.49 1.65 1.83 1.96 1.97 2.03 2.22 2.17 1.98 1.96 1.88 1.75 1.62 1.44 1.32 1.19 1.38 1.30 1.43 1.27 1.27 1.33 1.05 0.92 0.84 0.79 0.77 0.70 0.68 0.70 0.70 0.79 1.00
1.01 1.00 0.92 0.85 0.92 0.92 0.89 0.96 1.02 1.08 1.15 1.29 1.44 1.57 1.72 1.97 2.26 2.27 2.21 2.08 1.96 1.82 1.59 1.44 1.23 1.15 1.47 1.58 1.48 1.35 1.31 1.28 1.05 0.97 0.89 0.82 0.78 0.71 0.65 0.58 0.57 0.58 0.64
0.69 0.78 0.87 0.82 0.80 0.83 0.86 0.93 0.95 0.99 1.01 1.10 1.20 1.33 1.51 1.79 2.13 2.34 2.41 2.29 2.13 1.98 1.85 1.69 1.36 1.11 1.23 1.58 1.72 1.66 1.43 1.26 1.13 1.06 0.94 0.83 0.78 0.71 0.65 0.62 0.60 0.58 0.57
0.52 0.57 0.66 0.67 0.76 0.83 0.86 0.88 0.90 0.94 0.96 1.05 1.19 1.25 1.30 1.50 1.69 1.90 2.08 2.20 2.18 2.15 2.13 1.89 1.58 1.32 1.25 1.39 1.64 1.66 1.57 1.52 1.30 1.23 1.23 1.10 0.97 0.87 0.76 0.67 0.65 0.62 0.57
0.55 0.61 0.73 0.78 0.73 0.71 0.76 0.86 0.90 0.86 0.85 0.89 0.97 1.07 1.17 1.21 1.37 1.51 1.61 1.80 2.01 2.24 2.32 2.18 1.91 1.59 1.47 1.36 1.46 1.62 1.68 1.62 1.53 1.34 1.30 1.20 1.19 1.12 1.00 0.85 0.71 0.65 0.65
0.61 0.63 0.73 0.84 0.90 0.85 0.82 0.91 0.88 0.86 0.85 0.84 0.89 0.89 0.96 0.98 1.04 1.22 1.27 1.49 1.81 2.07 2.19 2.26 2.14 1.84 1.57 1.40 1.19 1.29 1.54 1.76 1.75 1.65 1.65 1.42 1.29 1.16 1.07 1.03 0.96 0.83 0.74
0.51 0.50 0.54 0.61 0.70 0.74 0.94 0.90 0.75 0.71 0.77 0.83 0.88 0.87 0.89 0.84 0.82 0.88 1.01 1.14 1.44 1.65 1.79 1.87 1.89 1.74 1.53 1.39 1.34 1.31 1.37 1.51 1.57 1.44 1.47 1.56 1.50 1.36 1.26 1.14 1.16 1.19 1.11
0.42 0.40 0.39 0.39 0.45 0.60 0.69 0.54 0.53 0.58 0.72 0.84 0.91 0.94 0.90 0.84 0.89 0.90 0.91 0.93 1.00 1.17 1.39 1.59 1.61 1.51 1.57 1.48 1.40 1.30 1.31 1.33 1.32 1.41 1.47 1.52 1.52 1.42 1.35 1.34 1.37 1.28 1.22
0.33 0.31 0.38 0.45 0.47 0.49 0.56 0.46 0.45 0.55 0.75 0.88 0.88 0.84 0.91 0.92 0.94 1.00 0.94 1.01 0.96 0.94 1.03 1.08 1.22 1.42 1.57 1.73 1.70 1.59 1.60 1.54 1.45 1.53 1.55 1.49 1.39 1.32 1.23 1.21 1.28 1.16 1.08
0.37 0.39 0.50 0.57 0.51 0.44 0.49 0.50 0.55 0.69 0.82 0.90 0.87 0.86 0.94 0.98 1.11 1.16 1.06 1.11 1.08 1.04 1.01 1.12 1.21 1.32 1.40 1.52 1.66 1.70 1.66 1.62 1.48 1.41 1.42 1.36 1.26 1.28 1.27 1.15 1.09 1.08 0.99
0.33 0.40 0.42 0.40 0.41 0.47 0.54 0.52 0.64 0.82 0.94 1.04 1.00 0.99 1.18 1.13 1.11 1.05 1.03 1.18 1.15 1.00 0.93 0.97 1.03 1.11 1.15 1.24 1.36 1.40 1.52 1.59 1.50 1.36 1.19 1.17 1.18 1.22 1.26 1.16 1.04 0.97 0.93

GEFSMA_prec_meanprecacc_192.txt.gz
Total_Precipitation_Accumulation
0.89 0.86 0.78 0.78 0.73 0.81 0.93 1.03 0.98 0.88 0.84 0.78 0.74 0.82 0.87 0.94 0.97 1.05 1.14 1.15 1.32 1.63 1.86 1.85 1.65 1.44 1.35 1.36 1.42 1.44 1.51 1.64 1.62 1.62 1.66 1.65 1.61 1.50 1.41 1.36 1.25 1.17 1.28
0.94 0.91 0.86 0.87 0.85 0.88 1.01 1.00 0.91 0.97 0.97 0.90 0.77 0.77 0.85 0.92 0.97 0.97 1.02 1.13 1.21 1.31 1.71 1.96 1.93 1.72 1.62 1.53 1.63 1.72 1.71 1.58 1.51 1.57 1.61 1.65 1.67 1.52 1.38 1.27 1.19 1.11 1.11
0.84 0.87 0.88 0.88 0.93 1.02 1.08 1.10 0.93 0.97 0.95 0.86 0.80 0.74 0.74 0.77 0.83 0.89 0.86 0.86 0.94 1.08 1.39 1.77 2.04 1.95 1.84 1.79 1.76 1.80 1.72 1.54 1.50 1.51 1.56 1.53 1.59 1.54 1.42 1.38 1.24 1.24 1.20
0.77 0.90 0.91 0.90 0.93 1.06 1.15 1.20 1.11 1.08 1.02 0.98 0.94 0.86 0.78 0.82 0.79 0.85 0.86 0.80 0.93 0.89 1.08 1.28 1.56 1.77 1.90 1.90 1.84 1.84 1.72 1.45 1.38 1.48 1.52 1.42 1.45 1.47 1.32 1.39 1.28 1.24 1.20
0.84 1.01 1.12 1.13 1.13 1.15 1.15 1.10 1.16 1.16 1.14 1.15 1.06 1.00 0.92 0.87 0.90 0.83 0.86 0.90 0.85 0.87 0.97 0.89 0.98 1.17 1.51 1.73 1.85 2.06 1.98 1.57 1.36 1.44 1.54 1.38 1.34 1.43 1.27 1.28 1.26 1.17 1.12
1.19 1.33 1.33 1.41 1.48 1.37 1.33 1.28 1.30 1.25 1.19 1.24 1.12 1.02 0.94 0.86 0.94 0.97 0.95 0.97 0.92 0.85 0.94 0.90 0.89 0.83 1.03 1.32 1.62 1.99 2.22 1.85 1.55 1.49 1.60 1.49 1.38 1.46 1.30 1.27 1.31 1.14 1.07
1.52 1.73 1.70 1.75 1.79 1.68 1.64 1.68 1.88 1.84 1.57 1.33 1.37 1.21 1.01 0.86 0.99 1.03 1.01 1.04 1.05 1.11 1.15 1.03 0.92 0.92 0.82 0.83 1.03 1.50 2.14 2.05 1.81 1.65 1.67 1.61 1.40 1.33 1.19 1.19 1.30 1.20 1.04
1.44 1.58 1.83 1.93 1.87 1.91 2.03 2.04 2.38 2.53 2.09 1.66 1.65 1.77 1.50 1.29 1.04 0.91 0.97 1.00 1.10 1.30 1.29 1.07 0.98 0.91 0.85 0.86 0.66 0.92 1.53 1.86 1.88 1.81 1.70 1.58 1.43 1.27 1.23 1.30 1.28 1.32 1.20
1.41 1.51 1.67 1.83 1.84 1.92 2.01 2.14 2.47 2.95 2.71 2.17 1.91 2.11 1.82 1.61 1.42 1.08 0.94 0.98 1.09 1.32 1.46 1.33 1.22 1.14 0.98 0.98 0.86 0.74 0.94 1.24 1.75 1.98 1.92 1.73 1.62 1.41 1.34 1.46 1.28 1.39 1.43
1.31 1.37 1.52 1.66 1.78 1.81 1.94 2.04 2.16 2.64 2.98 2.67 2.37 2.01 1.67 1.60 1.71 1.52 1.19 1.13 1.17 1.24 1.33 1.29 1.27 1.35 1.23 1.11 0.98 0.79 0.78 0.87 1.41 1.81 2.01 1.99 1.86 1.68 1.67 1.85 1.60 1.47 1.46
1.40 1.39 1.54 1.62 1.64 1.69 1.79 2.12 2.38 2.64 2.84 2.79 2.69 2.50 2.23 1.94 1.61 1.73 1.67 1.44 1.32 1.23 1.24 1.28 1.29 1.36 1.38 1.30 1.32 1.01 0.80 0.79 1.04 1.47 1.91 2.21 2.17 2.06 2.18 2.28 1.90 1.70 1.60
1.50 1.54 1.60 1.61 1.59 1.62 1.73 1.95 2.23 2.44 2.75 2.92 2.81 2.59 2.45 2.32 2.10 1.96 1.74 1.63 1.60 1.40 1.31 1.30 1.24 1.28 1.40 1.53 1.45 1.39 0.98 0.74 0.77 1.11 1.45 1.84 2.13 2.24 2.42 2.44 2.18 2.11 1.93
1.39 1.42 1.53 1.66 1.74 1.77 1.89 2.06 2.20 2.10 2.32 2.70 2.68 2.53 2.44 2.23 2.19 2.24 2.07 1.77 1.65 1.38 1.29 1.24 1.20 1.32 1.32 1.35 1.54 1.70 1.20 0.87 0.72 0.95 1.13 1.29 1.56 1.91 2.33 2.58 2.55 2.50 2.38
1.35 1.29 1.34 1.45 1.59 1.76 1.81 1.85 1.87 1.84 1.97 2.22 2.30 2.46 2.57 2.33 2.18 2.05 1.97 2.01 1.78 1.51 1.36 1.24 1.15 1.18 1.23 1.27 1.47 1.64 1.25 1.04 0.79 0.75 0.85 1.05 1.15 1.27 1.61 2.04 2.42 2.50 2.58
1.12 1.04 1.05 1.09 1.17 1.26 1.34 1.49 1.58 1.70 1.74 1.86 2.02 2.14 2.28 2.38 2.29 2.06 1.97 1.95 1.92 1.73 1.52 1.41 1.26 1.08 1.20 1.32 1.51 1.34 1.21 1.19 1.01 0.82 0.76 0.82 0.93 0.97 1.10 1.22 1.42 1.73 2.11
1.03 0.96 0.93 0.88 0.85 0.84 0.89 1.07 1.27 1.40 1.49 1.65 1.84 1.96 1.97 2.03 2.22 2.18 1.99 1.96 1.89 1.77 1.64 1.45 1.34 1.21 1.39 1.31 1.44 1.29 1.29 1.35 1.06 0.93 0.85 0.81 0.81 0.75 0.73 0.76 0.77 0.90 1.19
1.01 1.00 0.92 0.85 0.92 0.92 0.89 0.96 1.02 1.08 1.15 1.30 1.44 1.57 1.72 1.97 2.27 2.28 2.22 2.09 1.97 1.83 1.61 1.45 1.25 1.17 1.49 1.59 1.50 1.38 1.34 1.31 1.07 0.97 0.89 0.82 0.79 0.73 0.68 0.61 0.61 0.64 0.72
0.69 0.78 0.87 0.82 0.80 0.83 0.86 0.93 0.95 0.99 1.02 1.11 1.21 1.34 1.52 1.81 2.15 2.35 2.42 2.31 2.15 2.00 1.86 1.70 1.38 1.13 1.25 1.60 1.74 1.68 1.45 1.29 1.15 1.07 0.94 0.84 0.79 0.72 0.66 0.64 0.62 0.62 0.62
0.52 0.57 0.66 0.67 0.76 0.84 0.86 0.88 0.90 0.94 0.96 1.05 1.19 1.25 1.30 1.50 1.69 1.90 2.08 2.20 2.18 2.16 2.13 1.90 1.59 1.33 1.26 1.39 1.65 1.67 1.59 1.55 1.32 1.24 1.24 1.11 0.98 0.87 0.77 0.67 0.66 0.64 0.60
0.55 0.61 0.73 0.78 0.73 0.71 0.76 0.86 0.90 0.86 0.85 0.89 0.97 1.07 1.17 1.21 1.37 1.51 1.62 1.80 2.02 2.25 2.33 2.19 1.92 1.60 1.47 1.36 1.47 1.63 1.70 1.65 1.57 1.37 1.32 1.22 1.19 1.13 1.01 0.85 0.71 0.65 0.65
0.61 0.63 0.73 0.84 0.90 0.85 0.82 0.91 0.88 0.86 0.85 0.84 0.89 0.90 0.96 0.98 1.04 1.23 1.27 1.49 1.81 2.08 2.20 2.27 2.14 1.84 1.58 1.40 1.19 1.29 1.55 1.78 1.79 1.71 1.70 1.45 1.30 1.16 1.08 1.03 0.96 0.84 0.74
0.51 0.50 0.54 0.61 0.70 0.74 0.94 0.90 0.75 0.71 0.77 0.83 0.88 0.87 0.89 0.84 0.82 0.89 1.02 1.15 1.45 1.66 1.80 1.87 1.90 1.74 1.53 1.40 1.35 1.31 1.38 1.53 1.59 1.49 1.54 1.60 1.52 1.37 1.26 1.14 1.16 1.19 1.11
0.43 0.41 0.40 0.40 0.46 0.61 0.69 0.54 0.53 0.59 0.72 0.84 0.91 0.94 0.90 0.84 0.89 0.90 0.91 0.93 1.00 1.18 1.39 1.59 1.62 1.52 1.57 1.49 1.41 1.31 1.32 1.34 1.33 1.43 1.51 1.57 1.54 1.43 1.35 1.34 1.37 1.28 1.22
0.35 0.34 0.40 0.46 0.47 0.49 0.56 0.46 0.46 0.55 0.75 0.88 0.88 0.84 0.91 0.92 0.94 1.00 0.94 1.01 0.97 0.95 1.03 1.08 1.22 1.42 1.57 1.73 1.71 1.60 1.61 1.55 1.46 1.55 1.57 1.52 1.42 1.33 1.24 1.22 1.28 1.16 1.08
0.40 0.41 0.51 0.57 0.51 0.44 0.50 0.50 0.55 0.69 0.82 0.90 0.87 0.86 0.94 0.98 1.11 1.16 1.07 1.12 1.08 1.04 1.01 1.12 1.21 1.32 1.40 1.52 1.67 1.71 1.67 1.63 1.50 1.43 1.43 1.38 1.28 1.29 1.27 1.15 1.09 1.08 0.99
0.34 0.41 0.43 0.40 0.41 0.47 0.54 0.52 0.64 0.82 0.94 1.04 1.00 0.99 1.18 1.13 1.11 1.06 1.03 1.18 1.15 1.01 0.94 0.98 1.03 1.11 1.15 1.24 1.36 1.41 1.54 1.61 1.52 1.37 1.20 1.18 1.19 1.22 1.26 1.16 1.04 0.97 0.93

GEFSMA_prec_meanprecacc_198.txt.gz
Total_Precipitation_Accumulation
0.89 0.86 0.78 0.79 0.74 0.84 0.97 1.06 1.01 0.90 0.87 0.80 0.74 0.84 0.90 0.97 1.03 1.09 1.18 1.19 1.37 1.68 1.92 1.89 1.69 1.48 1.39 1.41 1.47 1.49 1.56 1.69 1.69 1.68 1.72 1.71 1.68 1.56 1.46 1.45 1.36 1.27 1.34
0.94 0.91 0.86 0.88 0.86 0.90 1.03 1.03 0.93 0.98 1.00 0.92 0.78 0.79 0.88 0.96 1.02 1.04 1.08 1.19 1.25 1.35 1.76 2.02 1.99 1.79 1.73 1.60 1.71 1.78 1.78 1.63 1.57 1.64 1.69 1.72 1.74 1.58 1.46 1.37 1.30 1.18 1.17
0.84 0.87 0.88 0.89 0.94 1.03 1.09 1.12 0.95 0.98 0.96 0.88 0.82 0.77 0.77 0.82 0.89 0.95 0.92 0.90 0.98 1.12 1.43 1.82 2.12 2.05 2.05 2.09 1.95 1.89 1.77 1.60 1.56 1.58 1.64 1.59 1.66 1.61 1.49 1.48 1.33 1.30 1.27
0.77 0.90 0.92 0.91 0.94 1.07 1.17 1.22 1.13 1.10 1.04 0.99 0.96 0.88 0.81 0.87 0.84 0.89 0.89 0.83 0.96 0.92 1.11 1.32 1.60 1.82 2.03 2.12 2.01 1.93 1.78 1.49 1.42 1.52 1.57 1.47 1.51 1.53 1.38 1.46 1.35 1.29 1.25
0.84 1.01 1.13 1.15 1.14 1.16 1.16 1.12 1.18 1.19 1.17 1.17 1.09 1.03 0.94 0.91 0.96 0.87 0.89 0.93 0.87 0.90 0.99 0.90 1.00 1.21 1.60 1.83 1.95 2.13 2.05 1.62 1.40 1.48 1.59 1.42 1.39 1.49 1.33 1.34 1.32 1.22 1.17
1.19 1.33 1.35 1.43 1.49 1.38 1.36 1.31 1.33 1.27 1.20 1.25 1.15 1.05 0.96 0.88 0.98 1.00 0.98 0.99 0.94 0.88 0.98 0.94 0.92 0.87 1.12 1.43 1.72 2.07 2.28 1.91 1.60 1.54 1.65 1.54 1.43 1.51 1.36 1.33 1.36 1.17 1.09
1.52 1.74 1.71 1.77 1.81 1.70 1.68 1.71 1.92 1.87 1.59 1.35 1.40 1.24 1.04 0.89 1.02 1.06 1.04 1.07 1.08 1.14 1.20 1.11 1.00 0.99 0.89 0.94 1.13 1.57 2.19 2.09 1.85 1.69 1.70 1.64 1.44 1.37 1.23 1.23 1.32 1.22 1.06
1.44 1.58 1.84 1.95 1.89 1.93 2.07 2.08 2.43 2.58 2.12 1.68 1.69 1.83 1.56 1.33 1.07 0.93 0.99 1.01 1.12 1.33 1.34 1.13 1.04 0.99 0.91 0.91 0.73 0.97 1.58 1.90 1.92 1.85 1.73 1.60 1.46 1.30 1.27 1.35 1.32 1.36 1.22
1.41 1.51 1.67 1.83 1.85 1.93 2.03 2.17 2.51 3.00 2.77 2.20 1.93 2.15 1.89 1.67 1.45 1.10 0.96 0.99 1.11 1.34 1.50 1.37 1.26 1.17 1.01 1.01 0.89 0.78 0.98 1.28 1.80 2.03 1.96 1.76 1.66 1.44 1.37 1.48 1.31 1.41 1.45
1.31 1.37 1.52 1.66 1.79 1.81 1.95 2.05 2.17 2.68 3.04 2.72 2.40 2.04 1.70 1.64 1.75 1.54 1.20 1.15 1.19 1.25 1.34 1.31 1.30 1.38 1.26 1.14 1.00 0.80 0.80 0.89 1.44 1.86 2.06 2.02 1.89 1.70 1.69 1.87 1.62 1.49 1.48
1.40 1.40 1.54 1.62 1.64 1.69 1.80 2.13 2.39 2.65 2.86 2.83 2.74 2.54 2.26 1.97 1.64 1.75 1.68 1.45 1.34 1.24 1.25 1.30 1.32 1.38 1.40 1.32 1.34 1.03 0.82 0.82 1.07 1.51 1.95 2.25 2.20 2.08 2.20 2.29 1.91 1.73 1.65
1.51 1.54 1.60 1.61 1.59 1.62 1.73 1.95 2.24 2.45 2.76 2.94 2.83 2.61 2.48 2.35 2.13 1.99 1.77 1.64 1.62 1.42 1.32 1.32 1.26 1.30 1.41 1.54 1.46 1.40 1.00 0.78 0.82 1.14 1.47 1.86 2.15 2.25 2.43 2.46 2.20 2.16 2.01
1.41 1.44 1.54 1.67 1.75 1.77 1.89 2.06 2.20 2.11 2.32 2.70 2.69 2.55 2.45 2.25 2.22 2.26 2.10 1.80 1.67 1.40 1.30 1.25 1.22 1.34 1.33 1.36 1.55 1.71 1.21 0.88 0.74 0.96 1.15 1.31 1.56 1.91 2.34 2.59 2.57 2.56 2.46
1.36 1.30 1.35 1.45 1.59 1.76 1.81 1.86 1.87 1.85 1.97 2.22 2.30 2.46 2.57 2.33 2.19 2.06 1.98 2.03 1.80 1.53 1.38 1.25 1.16 1.19 1.24 1.28 1.48 1.65 1.26 1.05 0.79 0.76 0.86 1.06 1.16 1.29 1.63 2.06 2.44 2.56 2.69
1.12 1.04 1.05 1.09 1.17 1.27 1.35 1.50 1.59 1.71 1.74 1.87 2.03 2.14 2.29 2.38 2.29 2.07 1.98 1.97 1.94 1.76 1.55 1.42 1.27 1.10 1.21 1.33 1.51 1.35 1.21 1.19 1.01 0.83 0.76 0.83 0.95 0.99 1.13 1.25 1.46 1.79 2.22
1.04 0.96 0.93 0.88 0.85 0.84 0.90 1.08 1.27 1.40 1.49 1.65 1.84 1.96 1.98 2.04 2.23 2.18 2.00 1.97 1.90 1.79 1.66 1.46 1.36 1.22 1.41 1.32 1.45 1.30 1.30 1.35 1.07 0.94 0.85 0.82 0.83 0.77 0.75 0.79 0.81 0.96 1.34
1.01 1.00 0.92 0.86 0.92 0.92 0.90 0.96 1.02 1.08 1.15 1.30 1.44 1.57 1.72 1.98 2.27 2.28 2.22 2.10 1.98 1.84 1.63 1.47 1.26 1.19 1.50 1.61 1.52 1.40 1.36 1.32 1.08 0.98 0.90 0.82 0.80 0.75 0.69 0.63 0.63 0.68 0.81
0.69 0.78 0.87 0.82 0.80 0.83 0.86 0.93 0.95 0.99 1.02 1.11 1.21 1.34 1.52 1.81 2.15 2.36 2.43 2.31 2.15 2.01 1.88 1.72 1.39 1.15 1.28 1.62 1.76 1.70 1.47 1.29 1.15 1.07 0.95 0.85 0.79 0.73 0.67 0.65 0.64 0.64 0.65
0.52 0.57 0.67 0.67 0.76 0.84 0.86 0.89 0.90 0.94 0.96 1.05 1.19 1.25 1.30 1.50 1.70 1.90 2.08 2.20 2.19 2.16 2.14 1.90 1.59 1.33 1.27 1.40 1.65 1.68 1.60 1.55 1.32 1.24 1.24 1.12 0.98 0.88 0.77 0.68 0.67 0.64 0.61
0.55 0.61 0.74 0.78 0.73 0.71 0.76 0.86 0.90 0.86 0.85 0.89 0.97 1.07 1.17 1.21 1.37 1.51 1.62 1.81 2.02 2.26 2.33 2.19 1.92 1.60 1.47 1.36 1.47 1.63 1.70 1.66 1.57 1.38 1.33 1.22 1.20 1.13 1.02 0.86 0.72 0.66 0.66
0.61 0.63 0.73 0.84 0.91 0.85 0.83 0.91 0.88 0.86 0.85 0.84 0.89 0.90 0.96 0.98 1.05 1.23 1.27 1.49 1.82 2.08 2.20 2.28 2.15 1.85 1.58 1.40 1.19 1.30 1.56 1.78 1.80 1.71 1.70 1.45 1.31 1.17 1.09 1.04 0.97 0.84 0.75
0.51 0.51 0.55 0.62 0.71 0.75 0.96 0.91 0.75 0.71 0.77 0.83 0.88 0.87 0.89 0.84 0.82 0.89 1.02 1.15 1.45 1.66 1.80 1.88 1.90 1.75 1.53 1.40 1.35 1.31 1.39 1.53 1.59 1.49 1.54 1.61 1.54 1.38 1.27 1.15 1.16 1.20 1.11
0.44 0.42 0.42 0.42 0.47 0.62 0.70 0.55 0.53 0.59 0.72 0.84 0.91 0.94 0.90 0.84 0.89 0.90 0.92 0.93 1.00 1.18 1.39 1.60 1.62 1.53 1.58 1.49 1.41 1.31 1.32 1.34 1.33 1.43 1.51 1.59 1.57 1.46 1.38 1.36 1.38 1.28 1.22
0.37 0.36 0.41 0.47 0.48 0.50 0.56 0.46 0.46 0.56 0.75 0.88 0.88 0.84 0.91 0.92 0.94 1.01 0.94 1.01 0.97 0.95 1.03 1.08 1.22 1.42 1.57 1.74 1.71 1.60 1.61 1.55 1.46 1.55 1.57 1.53 1.44 1.36 1.26 1.24 1.30 1.18 1.09
0.41 0.41 0.51 0.57 0.51 0.44 0.50 0.50 0.55 0.69 0.82 0.90 0.87 0.86 0.94 0.98 1.11 1.16 1.07 1.12 1.08 1.04 1.01 1.12 1.21 1.32 1.40 1.52 1.67 1.72 1.67 1.64 1.50 1.43 1.44 1.39 1.28 1.30 1.29 1.18 1.11 1.10 1.00
0.34 0.41 0.43 0.40 0.41 0.47 0.54 0.52 0.64 0.82 0.95 1.04 1.00 0.99 1.18 1.13 1.11 1.06 1.03 1.18 1.15 1.01 0.94 0.98 1.03 1.11 1.15 1.25 1.37 1.41 1.54 1.61 1.52 1.38 1.21 1.19 1.20 1.24 1.27 1.17 1.06 0.99 0.95

GEFSMA_prec_meanprecacc_204.txt.gz
Total_Precipitation_Accumulation
0.90 0.86 0.79 0.80 0.75 0.84 0.97 1.07 1.02 0.91 0.88 0.81 0.75 0.86 0.93 1.00 1.05 1.12 1.21 1.23 1.41 1.73 1.97 1.95 1.74 1.53 1.43 1.44 1.51 1.54 1.62 1.74 1.74 1.74 1.78 1.76 1.72 1.60 1.50 1.48 1.41 1.36 1.41
0.94 0.91 0.87 0.89 0.87 0.90 1.04 1.04 0.94 0.99 1.01 0.93 0.80 0.81 0.92 0.99 1.06 1.07 1.11 1.21 1.28 1.39 1.82 2.09 2.05 1.87 1.81 1.68 1.79 1.85 1.84 1.68 1.60 1.68 1.73 1.76 1.79 1.63 1.50 1.43 1.37 1.26 1.24
0.84 0.88 0.89 0.90 0.95 1.04 1.11 1.13 0.95 0.99 0.97 0.90 0.84 0.81 0.81 0.85 0.92 0.97 0.93 0.92 1.00 1.15 1.49 1.90 2.20 2.21 2.26 2.22 2.04 1.96 1.82 1.64 1.60 1.62 1.68 1.64 1.71 1.66 1.55 1.56 1.43 1.38 1.32
0.78 0.91 0.92 0.91 0.95 1.08 1.19 1.24 1.14 1.10 1.05 1.01 0.99 0.93 0.84 0.89 0.86 0.90 0.90 0.85 0.98 0.95 1.17 1.39 1.67 1.95 2.25 2.27 2.09 1.99 1.84 1.55 1.47 1.57 1.63 1.53 1.57 1.61 1.47 1.55 1.43 1.35 1.30
0.85 1.02 1.13 1.15 1.15 1.16 1.17 1.12 1.19 1.19 1.17 1.18 1.11 1.06 0.98 0.94 0.97 0.88 0.90 0.94 0.89 0.92 1.03 0.95 1.04 1.27 1.68 1.93 2.03 2.20 2.11 1.67 1.44 1.53 1.63 1.46 1.44 1.55 1.40 1.40 1.36 1.26 1.21
1.19 1.33 1.35 1.43 1.49 1.39 1.37 1.31 1.34 1.27 1.21 1.28 1.17 1.07 0.99 0.91 1.00 1.01 0.99 1.00 0.96 0.90 1.01 0.98 0.98 0.92 1.18 1.50 1.80 2.14 2.34 1.95 1.65 1.59 1.69 1.58 1.47 1.55 1.40 1.37 1.39 1.19 1.12
1.52 1.74 1.71 1.78 1.81 1.71 1.70 1.73 1.92 1.87 1.60 1.36 1.42 1.27 1.07 0.92 1.04 1.08 1.07 1.09 1.10 1.16 1.23 1.15 1.06 1.04 0.93 0.99 1.21 1.65 2.25 2.15 1.92 1.75 1.73 1.66 1.46 1.40 1.27 1.27 1.34 1.24 1.09
1.45 1.59 1.84 1.95 1.89 1.95 2.09 2.10 2.44 2.59 2.13 1.69 1.70 1.86 1.60 1.38 1.11 0.96 1.03 1.05 1.15 1.37 1.38 1.16 1.07 1.03 0.95 0.94 0.75 1.02 1.64 1.95 1.95 1.87 1.75 1.62 1.47 1.32 1.30 1.38 1.35 1.39 1.26
1.41 1.52 1.67 1.83 1.85 1.93 2.04 2.18 2.52 3.02 2.78 2.20 1.94 2.19 1.93 1.70 1.48 1.14 1.00 1.01 1.14 1.39 1.54 1.40 1.28 1.19 1.03 1.02 0.89 0.79 1.00 1.31 1.82 2.06 1.99 1.79 1.68 1.47 1.41 1.53 1.36 1.47 1.50
1.31 1.38 1.52 1.66 1.79 1.82 1.95 2.05 2.18 2.69 3.05 2.73 2.41 2.05 1.72 1.67 1.78 1.56 1.22 1.17 1.21 1.28 1.36 1.34 1.33 1.39 1.27 1.15 1.01 0.81 0.81 0.91 1.47 1.91 2.12 2.08 1.95 1.75 1.75 1.93 1.66 1.53 1.52
1.41 1.40 1.54 1.62 1.64 1.70 1.80 2.13 2.39 2.66 2.87 2.84 2.75 2.54 2.27 1.99 1.67 1.78 1.70 1.46 1.35 1.25 1.26 1.32 1.34 1.39 1.40 1.33 1.34 1.04 0.83 0.83 1.10 1.56 2.01 2.32 2.26 2.13 2.24 2.33 1.94 1.76 1.68
1.52 1.55 1.60 1.62 1.59 1.62 1.73 1.95 2.24 2.45 2.76 2.94 2.84 2.62 2.49 2.36 2.14 2.02 1.78 1.65 1.62 1.43 1.34 1.33 1.27 1.30 1.42 1.55 1.47 1.41 1.01 0.81 0.85 1.17 1.51 1.90 2.19 2.29 2.47 2.49 2.23 2.19 2.03
1.42 1.44 1.54 1.67 1.75 1.78 1.89 2.06 2.20 2.11 2.33 2.71 2.71 2.55 2.45 2.25 2.23 2.28 2.11 1.81 1.67 1.40 1.32 1.26 1.22 1.34 1.34 1.37 1.56 1.72 1.24 0.92 0.77 1.00 1.18 1.32 1.58 1.93 2.35 2.60 2.59 2.58 2.49
1.37 1.30 1.35 1.45 1.59 1.77 1.82 1.86 1.88 1.85 1.97 2.23 2.31 2.47 2.57 2.33 2.19 2.07 1.99 2.04 1.81 1.54 1.39 1.26 1.16 1.19 1.24 1.29 1.49 1.66 1.27 1.06 0.81 0.78 0.88 1.07 1.17 1.30 1.64 2.07 2.46 2.57 2.71
1.13 1.05 1.05 1.10 1.18 1.27 1.35 1.50 1.59 1.71 1.75 1.88 2.03 2.14 2.29 2.38 2.30 2.08 1.99 1.98 1.95 1.77 1.56 1.43 1.28 1.10 1.22 1.33 1.51 1.35 1.22 1.20 1.02 0.84 0.77 0.84 0.96 1.00 1.14 1.27 1.50 1.83 2.24
1.05 0.97 0.93 0.89 0.86 0.85 0.90 1.08 1.28 1.41 1.50 1.66 1.84 1.96 1.98 2.04 2.23 2.18 2.00 1.98 1.91 1.79 1.66 1.47 1.36 1.22 1.41 1.33 1.45 1.30 1.30 1.36 1.07 0.94 0.86 0.82 0.83 0.77 0.76 0.80 0.83 0.99 1.37
1.02 1.01 0.92 0.86 0.93 0.93 0.90 0.96 1.03 1.09 1.15 1.30 1.44 1.57 1.72 1.98 2.27 2.29 2.23 2.10 1.98 1.85 1.63 1.48 1.27 1.20 1.51 1.62 1.52 1.41 1.37 1.32 1.08 0.98 0.90 0.82 0.80 0.75 0.70 0.64 0.65 0.70 0.84
0.69 0.79 0.87 0.83 0.81 0.84 0.86 0.93 0.95 0.99 1.02 1.11 1.21 1.35 1.53 1.81 2.15 2.36 2.43 2.31 2.16 2.01 1.88 1.72 1.40 1.16 1.28 1.63 1.77 1.70 1.47 1.29 1.15 1.07 0.95 0.85 0.79 0.73 0.68 0.66 0.65 0.65 0.66
0.53 0.57 0.67 0.67 0.77 0.84 0.86 0.89 0.91 0.94 0.97 1.05 1.19 1.25 1.31 1.50 1.70 1.90 2.08 2.21 2.19 2.17 2.15 1.91 1.60 1.33 1.27 1.40 1.66 1.68 1.60 1.55 1.32 1.24 1.24 1.12 0.98 0.88 0.78 0.69 0.68 0.65 0.62
0.55 0.62 0.74 0.78 0.74 0.72 0.77 0.87 0.91 0.86 0.85 0.89 0.97 1.07 1.17 1.22 1.37 1.51 1.62 1.81 2.02 2.26 2.34 2.19 1.92 1.60 1.47 1.37 1.47 1.63 1.70 1.66 1.57 1.38 1.33 1.22 1.20 1.14 1.02 0.86 0.73 0.67 0.67
0.62 0.64 0.74 0.85 0.91 0.87 0.84 0.92 0.88 0.86 0.86 0.84 0.89 0.90 0.97 0.99 1.05 1.23 1.28 1.50 1.82 2.09 2.21 2.28 2.15 1.85 1.58 1.40 1.19 1.30 1.56 1.78 1.80 1.71 1.70 1.45 1.31 1.17 1.09 1.05 0.97 0.85 0.75
0.52 0.51 0.56 0.63 0.72 0.77 0.97 0.92 0.75 0.71 0.77 0.83 0.88 0.87 0.89 0.84 0.82 0.89 1.02 1.15 1.45 1.66 1.80 1.88 1.90 1.75 1.53 1.40 1.35 1.31 1.39 1.53 1.59 1.49 1.54 1.61 1.54 1.38 1.27 1.15 1.16 1.20 1.11
0.44 0.42 0.42 0.42 0.48 0.63 0.71 0.55 0.53 0.59 0.72 0.84 0.91 0.94 0.90 0.84 0.89 0.90 0.92 0.93 1.00 1.18 1.39 1.60 1.63 1.53 1.58 1.49 1.41 1.31 1.32 1.34 1.33 1.44 1.51 1.59 1.57 1.46 1.38 1.36 1.39 1.29 1.23
0.37 0.36 0.41 0.47 0.48 0.50 0.57 0.47 0.46 0.56 0.75 0.88 0.88 0.84 0.91 0.92 0.94 1.01 0.94 1.01 0.97 0.95 1.03 1.08 1.22 1.42 1.57 1.74 1.71 1.60 1.61 1.55 1.46 1.56 1.58 1.53 1.44 1.36 1.27 1.24 1.30 1.18 1.09
0.41 0.41 0.51 0.58 0.52 0.45 0.50 0.50 0.55 0.69 0.82 0.90 0.87 0.87 0.94 0.98 1.11 1.16 1.07 1.12 1.08 1.05 1.02 1.12 1.22 1.32 1.41 1.52 1.67 1.72 1.67 1.64 1.50 1.43 1.44 1.39 1.29 1.30 1.30 1.18 1.11 1.10 1.01
0.34 0.41 0.44 0.41 0.41 0.48 0.55 0.52 0.64 0.82 0.95 1.05 1.00 0.99 1.18 1.13 1.11 1.06 1.03 1.18 1.15 1.01 0.94 0.98 1.03 1.11 1.15 1.25 1.37 1.42 1.54 1.61 1.52 1.38 1.21 1.19 1.20 1.24 1.28 1.17 1.06 0.99 0.96

GEFSMA_prec_meanprecacc_210.txt.gz
Total_Precipitation_Accumulation
0.91 0.87 0.80 0.80 0.75 0.84 0.98 1.08 1.03 0.92 0.89 0.82 0.76 0.87 0.95 1.03 1.07 1.14 1.24 1.27 1.47 1.82 2.07 2.06 1.84 1.59 1.48 1.51 1.58 1.61 1.68 1.80 1.80 1.80 1.84 1.80 1.77 1.65 1.55 1.54 1.49 1.44 1.50
0.95 0.91 0.87 0.90 0.87 0.91 1.04 1.05 0.94 1.00 1.03 0.94 0.81 0.83 0.95 1.02 1.09 1.09 1.13 1.23 1.32 1.46 1.92 2.20 2.15 1.95 1.88 1.75 1.87 1.93 1.90 1.73 1.65 1.74 1.78 1.80 1.83 1.67 1.55 1.49 1.43 1.32 1.31
0.85 0.88 0.89 0.90 0.95 1.05 1.11 1.14 0.96 1.00 0.99 0.91 0.86 0.83 0.86 0.89 0.95 1.00 0.96 0.95 1.05 1.22 1.55 1.98 2.31 2.30 2.34 2.29 2.12 2.03 1.89 1.69 1.64 1.67 1.73 1.69 1.75 1.69 1.58 1.60 1.48 1.43 1.39
0.78 0.92 0.93 0.91 0.95 1.09 1.20 1.25 1.15 1.12 1.07 1.03 1.01 0.96 0.89 0.93 0.89 0.93 0.93 0.88 1.03 1.00 1.22 1.46 1.80 2.07 2.35 2.35 2.16 2.06 1.89 1.59 1.51 1.61 1.67 1.57 1.61 1.65 1.52 1.61 1.51 1.42 1.37
0.85 1.02 1.13 1.15 1.15 1.18 1.18 1.14 1.20 1.21 1.19 1.20 1.12 1.08 1.01 0.98 1.01 0.92 0.93 0.98 0.94 0.98 1.10 1.00 1.10 1.34 1.76 2.02 2.11 2.26 2.16 1.71 1.48 1.56 1.66 1.49 1.49 1.61 1.48 1.49 1.45 1.34 1.28
1.20 1.34 1.35 1.43 1.49 1.39 1.37 1.32 1.35 1.29 1.23 1.29 1.19 1.09 1.02 0.94 1.03 1.04 1.03 1.03 0.99 0.96 1.09 1.05 1.03 0.98 1.23 1.56 1.86 2.22 2.41 2.02 1.71 1.64 1.74 1.62 1.51 1.61 1.47 1.45 1.47 1.25 1.17
1.53 1.75 1.72 1.78 1.81 1.72 1.70 1.74 1.93 1.88 1.61 1.37 1.43 1.28 1.09 0.95 1.07 1.11 1.10 1.13 1.14 1.21 1.28 1.24 1.14 1.09 0.97 1.04 1.27 1.74 2.34 2.25 2.02 1.81 1.78 1.70 1.50 1.45 1.32 1.32 1.39 1.29 1.14
1.45 1.59 1.85 1.96 1.90 1.96 2.10 2.11 2.46 2.60 2.14 1.70 1.72 1.89 1.62 1.40 1.14 1.01 1.06 1.08 1.20 1.41 1.43 1.25 1.16 1.09 0.99 0.98 0.81 1.11 1.73 2.04 2.04 1.93 1.79 1.65 1.50 1.35 1.32 1.41 1.39 1.43 1.31
1.42 1.53 1.68 1.84 1.86 1.94 2.05 2.20 2.54 3.03 2.79 2.21 1.96 2.25 1.99 1.73 1.54 1.20 1.04 1.04 1.19 1.43 1.61 1.51 1.36 1.25 1.08 1.08 0.95 0.86 1.06 1.36 1.88 2.12 2.05 1.84 1.73 1.51 1.44 1.57 1.41 1.53 1.56
1.31 1.38 1.52 1.66 1.79 1.82 1.96 2.06 2.19 2.70 3.06 2.74 2.42 2.09 1.77 1.70 1.81 1.61 1.25 1.19 1.24 1.31 1.43 1.42 1.41 1.44 1.32 1.20 1.05 0.85 0.85 0.95 1.53 1.98 2.20 2.16 2.02 1.82 1.80 1.97 1.70 1.57 1.56
1.42 1.41 1.55 1.62 1.64 1.70 1.80 2.13 2.40 2.67 2.88 2.85 2.76 2.57 2.29 2.02 1.69 1.81 1.72 1.48 1.37 1.28 1.31 1.35 1.37 1.42 1.44 1.36 1.37 1.08 0.87 0.86 1.15 1.61 2.07 2.38 2.32 2.18 2.28 2.36 1.98 1.79 1.71
1.53 1.56 1.61 1.62 1.59 1.62 1.73 1.95 2.24 2.46 2.78 2.96 2.85 2.65 2.51 2.37 2.16 2.04 1.80 1.67 1.64 1.45 1.36 1.35 1.28 1.31 1.42 1.56 1.48 1.43 1.05 0.85 0.88 1.19 1.53 1.92 2.21 2.32 2.49 2.52 2.26 2.22 2.06
1.43 1.45 1.55 1.67 1.75 1.78 1.89 2.06 2.20 2.12 2.33 2.72 2.72 2.57 2.47 2.27 2.25 2.29 2.12 1.81 1.68 1.41 1.32 1.27 1.23 1.35 1.34 1.37 1.57 1.74 1.26 0.97 0.81 1.01 1.19 1.33 1.59 1.94 2.37 2.62 2.60 2.59 2.50
1.37 1.32 1.36 1.46 1.60 1.77 1.82 1.86 1.88 1.85 1.98 2.23 2.31 2.48 2.58 2.34 2.20 2.08 2.00 2.04 1.81 1.54 1.39 1.27 1.17 1.20 1.24 1.29 1.50 1.67 1.29 1.08 0.83 0.79 0.88 1.07 1.18 1.31 1.65 2.08 2.47 2.58 2.72
1.14 1.06 1.06 1.10 1.19 1.27 1.35 1.50 1.60 1.71 1.75 1.89 2.03 2.16 2.30 2.40 2.31 2.10 2.01 1.98 1.95 1.77 1.56 1.44 1.28 1.11 1.22 1.33 1.52 1.36 1.22 1.21 1.02 0.84 0.77 0.84 0.96 1.00 1.14 1.27 1.50 1.83 2.25
1.05 0.98 0.94 0.90 0.87 0.85 0.90 1.08 1.28 1.41 1.51 1.66 1.84 1.97 2.00 2.06 2.25 2.21 2.02 1.99 1.91 1.80 1.66 1.47 1.37 1.23 1.41 1.33 1.45 1.30 1.30 1.36 1.07 0.94 0.86 0.82 0.83 0.77 0.76 0.80 0.83 0.99 1.38
1.03 1.01 0.93 0.86 0.93 0.94 0.90 0.96 1.03 1.09 1.16 1.31 1.45 1.57 1.73 1.99 2.29 2.30 2.24 2.11 1.98 1.85 1.63 1.48 1.27 1.20 1.51 1.62 1.52 1.41 1.37 1.32 1.08 0.98 0.90 0.82 0.80 0.75 0.70 0.64 0.65 0.70 0.84
0.70 0.79 0.88 0.83 0.81 0.85 0.87 0.93 0.96 1.00 1.02 1.11 1.22 1.35 1.53 1.81 2.16 2.37 2.44 2.32 2.16 2.01 1.88 1.73 1.40 1.17 1.29 1.63 1.77 1.70 1.47 1.29 1.15 1.07 0.95 0.85 0.79 0.73 0.68 0.66 0.65 0.65 0.66
0.54 0.58 0.67 0.68 0.78 0.85 0.87 0.89 0.91 0.95 0.97 1.05 1.20 1.25 1.31 1.50 1.70 1.91 2.09 2.21 2.20 2.17 2.15 1.91 1.60 1.34 1.27 1.40 1.66 1.68 1.60 1.55 1.32 1.24 1.24 1.12 0.98 0.88 0.78 0.69 0.68 0.65 0.62
0.59 0.64 0.76 0.79 0.75 0.73 0.78 0.88 0.92 0.87 0.85 0.89 0.98 1.08 1.17 1.22 1.37 1.51 1.62 1.82 2.03 2.27 2.35 2.20 1.92 1.60 1.48 1.37 1.47 1.63 1.70 1.66 1.57 1.38 1.33 1.22 1.20 1.14 1.02 0.86 0.73 0.67 0.67
0.66 0.68 0.77 0.87 0.93 0.87 0.85 0.93 0.89 0.87 0.86 0.85 0.89 0.90 0.97 0.99 1.05 1.23 1.28 1.50 1.83 2.10 2.21 2.28 2.15 1.85 1.58 1.40 1.20 1.30 1.56 1.78 1.80 1.71 1.70 1.45 1.31 1.17 1.09 1.05 0.97 0.85 0.76
0.54 0.53 0.57 0.64 0.73 0.77 0.98 0.93 0.76 0.72 0.77 0.84 0.88 0.88 0.89 0.84 0.82 0.89 1.02 1.15 1.45 1.67 1.81 1.89 1.91 1.75 1.53 1.40 1.35 1.31 1.39 1.53 1.59 1.49 1.54 1.61 1.54 1.38 1.28 1.15 1.17 1.20 1.12
0.44 0.42 0.42 0.42 0.48 0.63 0.72 0.56 0.54 0.59 0.73 0.84 0.91 0.94 0.90 0.84 0.89 0.90 0.92 0.93 1.00 1.18 1.39 1.60 1.63 1.53 1.59 1.50 1.41 1.31 1.32 1.34 1.33 1.44 1.51 1.59 1.57 1.46 1.38 1.36 1.39 1.29 1.23
0.37 0.36 0.41 0.47 0.49 0.51 0.58 0.48 0.46 0.56 0.75 0.88 0.89 0.84 0.91 0.92 0.94 1.01 0.94 1.01 0.97 0.95 1.04 1.09 1.22 1.43 1.57 1.74 1.71 1.61 1.61 1.55 1.46 1.56 1.58 1.53 1.44 1.36 1.27 1.25 1.30 1.18 1.10
0.42 0.41 0.51 0.58 0.52 0.46 0.51 0.52 0.56 0.70 0.82 0.90 0.87 0.87 0.94 0.98 1.11 1.16 1.07 1.12 1.08 1.05 1.02 1.12 1.22 1.33 1.41 1.53 1.68 1.72 1.68 1.64 1.50 1.43 1.44 1.39 1.29 1.30 1.30 1.19 1.11 1.11 1.01
0.35 0.42 0.44 0.41 0.42 0.48 0.55 0.53 0.65 0.83 0.95 1.05 1.00 0.99 1.18 1.13 1.11 1.06 1.04 1.18 1.15 1.01 0.94 0.98 1.03 1.12 1.16 1.25 1.38 1.43 1.55 1.62 1.53 1.38 1.21 1.20 1.20 1.24 1.28 1.17 1.06 1.00 0.96

GEFSMA_prec_meanprecacc_216.txt.gz
Total_Precipitation_Accumulation
0.93 0.90 0.82 0.83 0.77 0.87 1.01 1.11 1.06 0.95 0.92 0.84 0.79 0.90 0.98 1.06 1.09 1.17 1.27 1.32 1.54 1.88 2.15 2.14 1.92 1.68 1.58 1.59 1.65 1.69 1.77 1.87 1.86 1.85 1.89 1.84 1.81 1.69 1.62 1.62 1.57 1.50 1.57
0.97 0.95 0.92 0.94 0.90 0.93 1.06 1.08 0.99 1.03 1.06 0.97 0.82 0.85 0.97 1.04 1.11 1.12 1.16 1.29 1.39 1.52 1.99 2.27 2.23 2.04 1.97 1.82 1.93 1.99 1.96 1.78 1.70 1.78 1.82 1.84 1.86 1.70 1.59 1.53 1.48 1.39 1.40
0.85 0.89 0.92 0.93 0.97 1.07 1.13 1.17 1.00 1.05 1.02 0.93 0.89 0.86 0.88 0.92 0.97 1.02 0.98 1.03 1.14 1.28 1.61 2.04 2.37 2.37 2.40 2.33 2.16 2.07 1.91 1.71 1.67 1.70 1.75 1.71 1.78 1.72 1.61 1.63 1.51 1.49 1.45
0.78 0.92 0.95 0.93 0.96 1.11 1.21 1.26 1.17 1.15 1.10 1.06 1.04 0.99 0.91 0.96 0.91 0.95 0.96 0.95 1.12 1.07 1.26 1.54 1.87 2.13 2.40 2.38 2.18 2.09 1.92 1.61 1.53 1.63 1.68 1.59 1.64 1.68 1.56 1.65 1.57 1.49 1.44
0.85 1.04 1.16 1.17 1.15 1.18 1.19 1.15 1.22 1.23 1.22 1.23 1.15 1.10 1.04 1.01 1.04 0.95 0.97 1.04 1.02 1.04 1.15 1.09 1.23 1.42 1.81 2.06 2.13 2.28 2.18 1.74 1.50 1.58 1.68 1.52 1.52 1.64 1.52 1.55 1.52 1.39 1.33
1.21 1.37 1.37 1.44 1.51 1.41 1.39 1.34 1.37 1.32 1.26 1.32 1.20 1.10 1.05 0.98 1.07 1.08 1.07 1.10 1.06 1.01 1.14 1.11 1.14 1.07 1.29 1.61 1.91 2.27 2.46 2.07 1.75 1.66 1.76 1.65 1.54 1.65 1.51 1.51 1.51 1.29 1.21
1.54 1.76 1.72 1.79 1.83 1.74 1.73 1.76 1.97 1.91 1.63 1.39 1.46 1.32 1.14 1.01 1.14 1.15 1.15 1.19 1.21 1.27 1.33 1.28 1.19 1.14 1.02 1.09 1.32 1.81 2.42 2.32 2.07 1.87 1.85 1.77 1.56 1.51 1.37 1.38 1.42 1.33 1.18
1.45 1.59 1.86 1.97 1.92 1.98 2.13 2.14 2.50 2.62 2.16 1.73 1.76 1.93 1.67 1.45 1.21 1.05 1.12 1.14 1.26 1.49 1.50 1.31 1.21 1.12 1.03 1.04 0.86 1.23 1.86 2.17 2.19 2.06 1.89 1.71 1.56 1.40 1.37 1.44 1.41 1.46 1.34
1.42 1.54 1.69 1.84 1.87 1.96 2.08 2.22 2.57 3.06 2.82 2.24 1.99 2.29 2.02 1.78 1.61 1.26 1.08 1.09 1.24 1.49 1.66 1.57 1.41 1.28 1.12 1.13 1.01 1.01 1.23 1.51 2.00 2.20 2.11 1.90 1.79 1.56 1.47 1.60 1.44 1.56 1.59
1.31 1.39 1.53 1.66 1.79 1.83 1.97 2.08 2.21 2.73 3.09 2.77 2.46 2.13 1.80 1.74 1.87 1.67 1.29 1.22 1.27 1.34 1.47 1.50 1.48 1.47 1.34 1.23 1.10 0.98 0.97 1.06 1.62 2.05 2.27 2.22 2.07 1.87 1.85 2.02 1.75 1.61 1.59
1.42 1.41 1.55 1.62 1.64 1.70 1.81 2.14 2.41 2.68 2.90 2.87 2.81 2.61 2.33 2.05 1.71 1.84 1.76 1.51 1.39 1.31 1.35 1.43 1.42 1.45 1.47 1.41 1.44 1.17 0.95 0.92 1.19 1.65 2.13 2.44 2.36 2.21 2.30 2.39 2.01 1.82 1.74
1.54 1.57 1.61 1.62 1.60 1.62 1.73 1.96 2.24 2.46 2.78 2.97 2.88 2.67 2.54 2.41 2.19 2.06 1.83 1.70 1.67 1.50 1.40 1.39 1.33 1.35 1.46 1.60 1.56 1.51 1.09 0.88 0.91 1.22 1.56 1.93 2.22 2.33 2.51 2.53 2.27 2.23 2.08
1.46 1.48 1.56 1.67 1.75 1.78 1.89 2.06 2.20 2.12 2.34 2.73 2.74 2.59 2.49 2.29 2.27 2.30 2.13 1.83 1.70 1.43 1.34 1.28 1.25 1.37 1.36 1.39 1.61 1.79 1.31 1.02 0.84 1.04 1.20 1.34 1.59 1.94 2.37 2.62 2.61 2.60 2.51
1.40 1.33 1.37 1.46 1.60 1.77 1.82 1.86 1.88 1.86 1.98 2.24 2.33 2.51 2.61 2.36 2.22 2.09 2.01 2.05 1.82 1.55 1.40 1.28 1.19 1.23 1.26 1.30 1.51 1.69 1.33 1.13 0.85 0.79 0.89 1.08 1.18 1.31 1.65 2.08 2.47 2.58 2.72
1.15 1.06 1.07 1.11 1.19 1.27 1.36 1.51 1.60 1.72 1.76 1.89 2.04 2.18 2.33 2.43 2.34 2.11 2.02 1.99 1.96 1.78 1.58 1.45 1.29 1.12 1.23 1.35 1.53 1.38 1.25 1.23 1.03 0.84 0.78 0.85 0.96 1.00 1.14 1.27 1.50 1.83 2.25
1.06 0.98 0.94 0.90 0.88 0.86 0.90 1.09 1.29 1.42 1.52 1.67 1.85 1.99 2.02 2.09 2.27 2.22 2.02 1.99 1.92 1.80 1.67 1.48 1.37 1.24 1.42 1.34 1.47 1.32 1.33 1.38 1.08 0.94 0.86 0.82 0.83 0.77 0.76 0.80 0.83 0.99 1.38
1.03 1.02 0.93 0.87 0.94 0.94 0.91 0.97 1.03 1.10 1.17 1.31 1.45 1.58 1.73 1.99 2.30 2.31 2.24 2.11 1.99 1.85 1.64 1.48 1.28 1.20 1.52 1.62 1.53 1.41 1.38 1.33 1.08 0.98 0.90 0.83 0.80 0.75 0.70 0.64 0.65 0.70 0.84
0.70 0.80 0.88 0.83 0.82 0.85 0.87 0.93 0.96 1.00 1.03 1.12 1.22 1.35 1.53 1.81 2.16 2.37 2.44 2.32 2.16 2.01 1.89 1.73 1.41 1.17 1.29 1.63 1.77 1.71 1.47 1.29 1.16 1.07 0.95 0.85 0.80 0.73 0.68 0.66 0.65 0.65 0.66
0.55 0.59 0.68 0.68 0.78 0.86 0.88 0.90 0.91 0.95 0.97 1.05 1.20 1.25 1.31 1.50 1.70 1.91 2.09 2.21 2.20 2.17 2.16 1.92 1.60 1.34 1.27 1.41 1.66 1.68 1.60 1.55 1.32 1.24 1.24 1.12 0.98 0.88 0.78 0.69 0.68 0.65 0.62
0.61 0.66 0.77 0.80 0.75 0.73 0.78 0.89 0.92 0.88 0.86 0.89 0.98 1.08 1.17 1.22 1.37 1.51 1.63 1.82 2.04 2.28 2.35 2.20 1.93 1.60 1.48 1.37 1.48 1.63 1.70 1.66 1.57 1.38 1.33 1.22 1.20 1.14 1.02 0.86 0.73 0.67 0.68
0.68 0.70 0.79 0.89 0.94 0.88 0.85 0.93 0.89 0.87 0.87 0.85 0.89 0.90 0.97 0.99 1.05 1.23 1.28 1.51 1.84 2.10 2.22 2.29 2.16 1.85 1.58 1.40 1.20 1.30 1.56 1.78 1.80 1.71 1.70 1.45 1.31 1.17 1.09 1.05 0.97 0.85 0.76
0.55 0.55 0.58 0.65 0.74 0.78 0.98 0.93 0.77 0.72 0.78 0.84 0.88 0.88 0.89 0.84 0.82 0.89 1.02 1.15 1.46 1.67 1.81 1.89 1.91 1.76 1.53 1.40 1.35 1.32 1.39 1.54 1.60 1.49 1.54 1.61 1.54 1.38 1.28 1.15 1.17 1.20 1.12
0.45 0.43 0.43 0.43 0.49 0.64 0.72 0.57 0.54 0.59 0.73 0.84 0.92 0.94 0.90 0.84 0.89 0.90 0.92 0.93 1.00 1.18 1.39 1.60 1.63 1.53 1.59 1.50 1.42 1.32 1.33 1.35 1.33 1.44 1.52 1.59 1.57 1.46 1.38 1.36 1.39 1.29 1.23
0.37 0.36 0.42 0.48 0.49 0.51 0.59 0.48 0.46 0.56 0.75 0.88 0.89 0.84 0.91 0.92 0.94 1.01 0.94 1.01 0.97 0.95 1.04 1.09 1.22 1.43 1.58 1.74 1.72 1.61 1.61 1.55 1.46 1.56 1.58 1.53 1.44 1.36 1.27 1.25 1.30 1.18 1.10
0.42 0.42 0.51 0.58 0.52 0.46 0.52 0.52 0.56 0.70 0.82 0.90 0.87 0.87 0.94 0.98 1.11 1.16 1.07 1.12 1.08 1.05 1.02 1.13 1.22 1.33 1.41 1.53 1.68 1.72 1.68 1.64 1.50 1.43 1.45 1.39 1.29 1.31 1.30 1.19 1.11 1.11 1.02
0.35 0.42 0.44 0.42 0.42 0.49 0.56 0.54 0.65 0.83 0.95 1.05 1.01 1.00 1.18 1.13 1.11 1.06 1.04 1.19 1.15 1.01 0.94 0.98 1.04 1.12 1.16 1.25 1.38 1.43 1.56 1.63 1.53 1.39 1.22 1.20 1.21 1.24 1.28 1.18 1.07 1.00 0.97

GEFSMA_prec_meanprecacc_222.txt.gz
Total_Precipitation_Accumulation
0.94 0.90 0.83 0.85 0.78 0.89 1.05 1.15 1.10 0.99 0.97 0.89 0.82 0.92 1.00 1.09 1.12 1.18 1.29 1.35 1.59 1.96 2.25 2.25 2.01 1.75 1.66 1.68 1.73 1.76 1.83 1.94 1.92 1.90 1.93 1.88 1.85 1.73 1.66 1.66 1.61 1.54 1.62
0.97 0.95 0.93 0.96 0.92 0.95 1.09 1.12 1.03 1.06 1.11 1.01 0.84 0.86 0.98 1.06 1.13 1.15 1.18 1.32 1.44 1.60 2.08 2.38 2.31 2.11 2.06 1.91 2.01 2.06 2.01 1.83 1.74 1.82 1.86 1.88 1.89 1.72 1.62 1.55 1.52 1.43 1.43
0.85 0.90 0.94 0.94 0.99 1.08 1.14 1.19 1.03 1.07 1.05 0.96 0.90 0.87 0.89 0.94 0.99 1.04 1.02 1.07 1.20 1.34 1.68 2.12 2.45 2.44 2.48 2.39 2.21 2.11 1.94 1.74 1.70 1.74 1.79 1.75 1.80 1.74 1.64 1.66 1.55 1.53 1.48
0.79 0.93 0.97 0.94 0.97 1.12 1.23 1.28 1.19 1.18 1.13 1.08 1.06 1.00 0.92 0.98 0.94 0.97 1.00 0.98 1.17 1.12 1.30 1.60 1.92 2.16 2.45 2.42 2.21 2.12 1.93 1.63 1.56 1.67 1.73 1.62 1.67 1.71 1.61 1.70 1.61 1.53 1.48
0.86 1.06 1.18 1.18 1.17 1.20 1.21 1.17 1.24 1.26 1.26 1.26 1.17 1.12 1.05 1.03 1.06 0.97 1.00 1.07 1.06 1.09 1.20 1.23 1.35 1.45 1.84 2.09 2.17 2.32 2.21 1.77 1.54 1.62 1.71 1.55 1.54 1.67 1.57 1.58 1.56 1.43 1.36
1.21 1.38 1.38 1.45 1.53 1.43 1.41 1.37 1.40 1.36 1.30 1.35 1.22 1.12 1.07 1.01 1.09 1.11 1.12 1.15 1.12 1.05 1.24 1.36 1.32 1.11 1.32 1.63 1.94 2.31 2.50 2.10 1.79 1.71 1.80 1.68 1.57 1.70 1.55 1.54 1.54 1.31 1.24
1.54 1.77 1.73 1.80 1.85 1.76 1.76 1.78 1.99 1.94 1.67 1.43 1.49 1.34 1.17 1.05 1.17 1.19 1.19 1.25 1.29 1.35 1.44 1.45 1.37 1.20 1.05 1.12 1.37 1.87 2.48 2.36 2.12 1.92 1.90 1.82 1.61 1.56 1.41 1.41 1.45 1.34 1.20
1.45 1.60 1.86 1.98 1.93 2.01 2.15 2.16 2.54 2.67 2.20 1.76 1.78 1.97 1.70 1.50 1.27 1.11 1.17 1.20 1.34 1.56 1.57 1.40 1.32 1.20 1.08 1.08 0.92 1.29 1.91 2.22 2.24 2.12 1.96 1.79 1.63 1.46 1.41 1.47 1.43 1.48 1.35
1.43 1.55 1.69 1.85 1.88 1.97 2.10 2.24 2.60 3.11 2.87 2.26 2.02 2.34 2.08 1.83 1.67 1.32 1.12 1.12 1.28 1.55 1.73 1.63 1.48 1.36 1.20 1.21 1.08 1.09 1.30 1.59 2.09 2.28 2.18 1.95 1.83 1.60 1.51 1.62 1.46 1.58 1.61
1.32 1.40 1.53 1.67 1.80 1.84 1.98 2.09 2.23 2.76 3.14 2.81 2.49 2.16 1.83 1.78 1.90 1.72 1.33 1.24 1.29 1.38 1.52 1.56 1.53 1.52 1.39 1.29 1.16 1.05 1.09 1.21 1.72 2.12 2.32 2.26 2.11 1.90 1.87 2.04 1.77 1.64 1.63
1.42 1.41 1.55 1.63 1.65 1.71 1.81 2.15 2.42 2.71 2.94 2.92 2.85 2.64 2.36 2.08 1.74 1.87 1.80 1.55 1.42 1.33 1.38 1.47 1.47 1.49 1.50 1.44 1.48 1.23 1.04 1.04 1.28 1.72 2.19 2.50 2.41 2.23 2.32 2.42 2.04 1.85 1.77
1.54 1.57 1.62 1.63 1.60 1.64 1.74 1.97 2.25 2.47 2.81 3.00 2.91 2.70 2.57 2.45 2.23 2.09 1.87 1.74 1.70 1.52 1.42 1.42 1.36 1.37 1.48 1.63 1.60 1.55 1.14 0.93 0.96 1.27 1.61 1.99 2.26 2.35 2.52 2.55 2.30 2.25 2.10
1.46 1.48 1.56 1.68 1.76 1.79 1.91 2.07 2.22 2.13 2.35 2.75 2.76 2.60 2.50 2.31 2.29 2.32 2.16 1.86 1.72 1.45 1.36 1.32 1.28 1.38 1.38 1.42 1.64 1.81 1.35 1.06 0.87 1.07 1.24 1.37 1.60 1.95 2.38 2.63 2.61 2.60 2.52
1.40 1.34 1.38 1.47 1.61 1.77 1.82 1.88 1.89 1.86 1.99 2.24 2.34 2.51 2.62 2.38 2.24 2.11 2.03 2.07 1.85 1.58 1.43 1.30 1.22 1.25 1.28 1.33 1.54 1.71 1.34 1.15 0.87 0.82 0.92 1.09 1.18 1.31 1.65 2.09 2.47 2.59 2.72
1.15 1.06 1.07 1.12 1.20 1.28 1.36 1.51 1.61 1.73 1.77 1.89 2.05 2.19 2.34 2.44 2.34 2.12 2.02 2.00 1.99 1.81 1.60 1.47 1.31 1.14 1.25 1.37 1.56 1.39 1.27 1.24 1.04 0.87 0.79 0.85 0.96 1.01 1.14 1.27 1.51 1.83 2.25
1.06 0.98 0.94 0.91 0.89 0.87 0.91 1.10 1.31 1.44 1.53 1.67 1.86 1.99 2.03 2.09 2.27 2.22 2.03 1.99 1.92 1.82 1.69 1.49 1.38 1.25 1.43 1.36 1.49 1.34 1.35 1.40 1.09 0.96 0.87 0.82 0.83 0.77 0.76 0.80 0.83 0.99 1.38
1.05 1.03 0.94 0.88 0.95 0.96 0.92 0.98 1.05 1.12 1.19 1.32 1.46 1.58 1.74 2.00 2.30 2.31 2.25 2.11 1.99 1.86 1.65 1.49 1.29 1.21 1.52 1.63 1.54 1.43 1.41 1.36 1.10 1.00 0.91 0.83 0.80 0.75 0.70 0.64 0.65 0.70 0.84
0.72 0.81 0.89 0.84 0.82 0.86 0.88 0.94 0.96 1.01 1.04 1.13 1.22 1.35 1.53 1.82 2.16 2.37 2.45 2.33 2.16 2.02 1.90 1.75 1.42 1.19 1.30 1.64 1.77 1.71 1.49 1.32 1.18 1.09 0.96 0.85 0.80 0.73 0.68 0.66 0.65 0.65 0.66
0.56 0.59 0.69 0.69 0.78 0.86 0.88 0.90 0.92 0.95 0.98 1.05 1.20 1.26 1.31 1.50 1.70 1.91 2.10 2.22 2.20 2.17 2.16 1.93 1.62 1.36 1.28 1.41 1.66 1.69 1.60 1.56 1.33 1.25 1.25 1.12 0.99 0.88 0.78 0.69 0.68 0.66 0.62
0.62 0.67 0.78 0.81 0.76 0.74 0.79 0.89 0.93 0.88 0.86 0.89 0.98 1.08 1.17 1.22 1.38 1.52 1.63 1.83 2.04 2.28 2.36 2.21 1.94 1.61 1.49 1.38 1.48 1.64 1.71 1.66 1.58 1.38 1.33 1.22 1.20 1.14 1.02 0.86 0.73 0.67 0.68
0.69 0.71 0.80 0.89 0.94 0.89 0.86 0.94 0.90 0.87 0.87 0.85 0.90 0.90 0.97 0.99 1.06 1.24 1.29 1.52 1.84 2.11 2.22 2.29 2.16 1.85 1.59 1.41 1.20 1.31 1.57 1.79 1.80 1.71 1.70 1.45 1.32 1.18 1.09 1.05 0.98 0.85 0.76
0.56 0.55 0.59 0.65 0.74 0.78 0.99 0.94 0.77 0.73 0.78 0.84 0.89 0.88 0.90 0.84 0.83 0.89 1.02 1.15 1.46 1.67 1.82 1.90 1.91 1.76 1.54 1.41 1.36 1.32 1.39 1.54 1.60 1.50 1.54 1.61 1.54 1.38 1.28 1.16 1.17 1.20 1.12
0.45 0.43 0.43 0.44 0.49 0.65 0.73 0.57 0.55 0.60 0.74 0.85 0.92 0.94 0.90 0.85 0.89 0.90 0.92 0.93 1.00 1.18 1.40 1.60 1.63 1.54 1.59 1.51 1.43 1.32 1.33 1.35 1.34 1.44 1.52 1.59 1.58 1.46 1.39 1.37 1.39 1.29 1.23
0.38 0.36 0.42 0.48 0.50 0.52 0.59 0.49 0.47 0.56 0.75 0.89 0.89 0.85 0.91 0.92 0.95 1.01 0.94 1.01 0.97 0.95 1.04 1.09 1.23 1.43 1.58 1.75 1.72 1.62 1.62 1.55 1.46 1.56 1.58 1.54 1.44 1.36 1.28 1.25 1.31 1.19 1.10
0.42 0.42 0.51 0.58 0.52 0.46 0.52 0.53 0.56 0.70 0.82 0.90 0.87 0.87 0.94 0.99 1.11 1.16 1.07 1.12 1.09 1.06 1.03 1.13 1.22 1.33 1.41 1.53 1.69 1.72 1.68 1.65 1.51 1.44 1.45 1.40 1.30 1.31 1.30 1.19 1.12 1.11 1.02
0.36 0.42 0.44 0.42 0.42 0.49 0.56 0.54 0.66 0.83 0.95 1.05 1.01 1.00 1.18 1.13 1.12 1.06 1.04 1.19 1.16 1.02 0.94 0.98 1.04 1.13 1.16 1.26 1.39 1.44 1.56 1.63 1.55 1.40 1.23 1.21 1.21 1.25 1.29 1.19 1.07 1.01 0.97